[[[{"header":{"parameterUnit":"kt","parameterCategory":2,"dx":1,"dy":1,"la1":29.587661999999998,"la2":31.0,"lo1":-88.76705300000003,"lo2":-86.6583820000003,"nx":115,"ny":88,"refTime":"2022-10-30T00:00:00:Z","depth":0,"parameterNumber":1,"parameterNumberName":"U-component_of_WINDS"},"data":[3.3629,3.3681,3.2191,3.2416,3.3545,3.2177,3.1524,3.1912,3.2751,3.2847,3.2921,3.3325,3.3538,3.4027,3.3426,3.3342,3.3146,3.3342,3.3524,3.351,3.3692,3.328,3.2973,3.2966,3.3097,3.3137,3.294,3.2733,3.2491,3.1942,3.1484,3.1401,3.0538,2.9913,2.9686,3.0505,3.1651,3.2224,3.3049,3.4403,3.4966,3.5196,3.5489,3.5095,3.4691,3.4486,3.4296,3.3789,3.3771,3.3485,3.2984,3.2933,3.3592,3.4459,3.4622,3.4404,3.3966,3.3728,3.3807,3.3655,3.3637,3.3655,3.4189,3.4437,3.4304,3.4721,3.4872,3.5004,3.5004,3.5004,3.5137,3.5555,3.5879,3.6476,3.7193,3.8216,3.9328,3.9595,3.977,3.9997,4.0469,4.107,4.2094,4.3107,4.3693,4.4276,4.5309,4.6168,4.6736,4.7019,4.7301,4.779,4.8301,4.8674,4.8905,4.8997,4.9206,4.9044,4.8928,4.8974,4.8905,4.8535,4.8928,4.9693,5.0976,5.248,5.3815,5.524,5.6407,5.7385,5.7711,5.7886,5.7886,5.7886,5.791,3.327,3.2623,3.146,3.1473,3.1964,3.1285,3.132,3.2177,3.2553,3.2874,3.3442,3.2591,3.2134,3.2176,3.2161,3.2341,3.2598,3.2977,3.3174,3.3174,3.3524,3.3379,3.3052,3.3002,3.3064,3.3242,3.3082,3.2879,3.2501,3.1723,3.1324,3.1155,3.0788,3.0364,3.0671,3.1267,3.2135,3.286,3.4102,3.523,3.5534,3.5879,3.5683,3.5311,3.4841,3.4495,3.4064,3.3655,3.3083,3.2409,3.1647,3.1733,3.2645,3.404,3.4245,3.4176,3.3739,3.3441,3.3655,3.3807,3.3789,3.3922,3.4588,3.4721,3.4455,3.4588,3.4872,3.5004,3.5004,3.5137,3.542,3.5628,3.6072,3.6592,3.7212,3.7952,3.9153,4.008,4.005,3.9978,4.0449,4.0769,4.1797,4.3107,4.3839,4.4421,4.5309,4.631,4.7041,4.7182,4.7323,4.7813,4.8256,4.8535,4.8813,4.9137,4.9484,4.9367,4.974,4.9576,4.9504,5.0088,5.0393,5.0698,5.1474,5.2779,5.419,5.5661,5.661,5.7638,5.7837,5.7886,5.7886,5.7886,5.7886,3.2814,3.2263,3.074,3.0403,3.0609,2.9571,2.9281,2.9865,3.111,3.1696,3.1776,3.0669,3.058,3.1717,3.1406,3.1695,3.2245,3.2429,3.2625,3.3005,3.3132,3.3284,3.3422,3.3323,3.3288,3.3165,3.3093,3.2805,3.2158,3.1386,3.1332,3.1715,3.0876,3.0729,3.1337,3.259,3.3422,3.3408,3.5424,3.6101,3.5998,3.6414,3.6432,3.5651,3.5005,3.4703,3.4221,3.3405,3.3253,3.2714,3.1477,3.1579,3.2231,3.3256,3.3705,3.3848,3.3604,3.3387,3.3941,3.4074,3.3941,3.4189,3.4721,3.4872,3.4607,3.4721,3.5004,3.5099,3.5099,3.5593,3.5874,3.639,3.6741,3.69,3.7543,3.811,3.9166,4.0027,4.0234,4.0146,4.0241,4.0542,4.1173,4.2483,4.3839,4.4421,4.5882,4.69,4.7041,4.7019,4.7323,4.7627,4.7885,4.8164,4.8996,4.9529,5.0041,5.0322,5.0745,5.1004,5.1452,5.1874,5.2226,5.2825,5.3495,5.3999,5.4843,5.6468,5.7544,5.7788,5.7861,5.7886,5.7886,5.7886,5.8036,3.2521,3.2202,3.0773,3.0008,2.9843,2.8402,2.7695,2.7874,2.9343,2.949,2.8854,2.8346,2.8767,2.9977,3.0175,3.0603,3.1511,3.1708,3.2259,3.2456,3.3005,3.309,3.33,3.3383,3.3394,3.3067,3.2768,3.2702,3.2028,3.136,3.1029,3.1431,3.0917,3.0773,3.154,3.2874,3.3906,3.4052,3.5544,3.6074,3.581,3.6258,3.6663,3.5951,3.5239,3.4963,3.4751,3.3874,3.3807,3.3539,3.2309,3.1922,3.2034,3.1835,3.2557,3.3628,3.3099,3.3325,3.3673,3.3807,3.3941,3.4189,3.4588,3.4739,3.5004,3.5004,3.5061,3.5175,3.5441,3.6029,3.6523,3.7181,3.757,3.7636,3.7796,3.8443,3.9092,3.9686,4.0228,4.0142,4.0146,4.0388,4.0531,4.1754,4.3298,4.4855,4.6168,4.7041,4.7041,4.7317,4.7644,4.7695,4.7908,4.8344,4.9454,5.0222,5.1186,5.1707,5.2184,5.2921,5.3542,5.3233,5.3063,5.4215,5.4939,5.4843,5.5472,5.6908,5.7569,5.7813,5.7886,5.7886,5.7886,5.8314,5.8264,3.2521,3.2377,3.2377,3.1272,2.9942,2.8308,2.7861,2.8221,2.7702,2.6704,2.5908,2.6677,2.7,2.7641,2.8809,2.9492,3.0233,3.1156,3.1708,3.1722,3.2456,3.2991,3.316,3.3328,3.3397,3.3408,3.3052,3.2469,3.2256,3.1445,3.0521,3.008,3.0142,3.07,3.1972,3.3094,3.3971,3.4471,3.5303,3.5781,3.5402,3.5334,3.5286,3.549,3.5341,3.5077,3.5238,3.4979,3.4455,3.3655,3.2849,3.2173,3.1956,3.1783,3.1783,3.2243,3.2668,3.2984,3.3253,3.3521,3.3789,3.4056,3.4322,3.4588,3.4872,3.5004,3.5251,3.5422,3.6295,3.6941,3.696,3.7366,3.7742,3.7888,3.8147,3.8778,3.9371,3.9962,4.0359,4.0524,4.0363,4.059,4.0898,4.2549,4.4276,4.5143,4.6168,4.7041,4.7436,4.7824,4.8085,4.8112,4.8112,4.8294,4.9541,5.1158,5.2344,5.3373,5.3975,5.4481,5.5278,5.4915,5.4142,5.4649,5.5253,5.552,5.5762,5.6494,5.7227,5.7694,5.8039,5.7963,5.8314,5.8772,5.9018,3.2521,3.2521,3.2521,3.1873,3.0585,2.8958,2.8046,2.7512,2.6525,2.5407,2.4412,2.4798,2.5403,2.6014,2.7629,2.87,2.9282,3.0367,3.113,3.1314,3.1905,3.2232,3.2625,3.2977,3.3132,3.2948,3.2676,3.227,3.1829,3.1019,3.0663,3.0641,3.0788,3.1417,3.2202,3.311,3.4036,3.4489,3.5006,3.5157,3.5034,3.5,3.4739,3.4675,3.4973,3.4649,3.4547,3.502,3.4796,3.4455,3.3807,3.3002,3.2038,3.202,3.202,3.202,3.2291,3.2579,3.2849,3.3235,3.3387,3.3789,3.4171,3.4588,3.4891,3.5156,3.5441,3.5764,3.6865,3.7662,3.7548,3.7453,3.7698,3.796,3.8415,3.9014,3.9529,4.0229,4.0501,4.073,4.0868,4.0967,4.2008,4.3548,4.4999,4.5596,4.6354,4.7242,4.8005,4.9095,4.9775,4.8663,4.8385,4.8447,5.0407,5.2105,5.3801,5.5152,5.552,5.6056,5.713,5.6836,5.5691,5.5545,5.5736,5.6123,5.6658,5.7029,5.75,5.7869,5.8386,5.8855,5.9511,5.9631,6.007,3.2521,3.2521,3.2521,3.2057,3.1315,3.0229,2.8919,2.7273,2.5924,2.4557,2.3558,2.3345,2.3943,2.4848,2.6543,2.759,2.8618,2.9661,3.0448,3.1038,3.1418,3.1548,3.1913,3.2319,3.267,3.2421,3.216,3.1714,3.1573,3.0606,3.0361,3.0788,3.0612,3.1417,3.2202,3.33,3.3601,3.39,3.4389,3.4264,3.4107,3.4107,3.4333,3.4148,3.4403,3.4239,3.4011,3.422,3.3874,3.3996,3.3655,3.3136,3.1902,3.202,3.2003,3.2003,3.2138,3.2274,3.2697,3.3101,3.3387,3.3655,3.4467,3.4832,3.4947,3.5288,3.5764,3.5991,3.6618,3.7168,3.7263,3.7396,3.7633,3.8422,3.9211,3.9701,3.9948,4.0567,4.1434,4.1507,4.144,4.1666,4.2741,4.4328,4.5474,4.5948,4.6739,4.7899,4.918,5.1269,5.1722,4.9615,4.8959,4.946,5.1054,5.2791,5.4929,5.6832,5.6983,5.7402,5.809,5.8016,5.7156,5.6689,5.671,5.7099,5.7487,5.8288,5.8951,5.9169,5.9359,6.0039,6.0614,6.0588,6.0845,3.2521,3.2521,3.2521,3.2202,3.2027,3.2103,3.0318,2.7359,2.5903,2.4112,2.2185,2.2828,2.306,2.3394,2.5006,2.6098,2.6822,2.8447,2.9321,2.9996,3.0489,3.0565,3.0759,3.1489,3.1742,3.1498,3.1355,3.1429,3.163,3.0384,2.967,2.9642,2.9952,3.0598,3.1517,3.211,3.2413,3.2746,3.3063,3.3189,3.3316,3.3014,3.3537,3.389,3.3949,3.3816,3.3655,3.3465,3.294,3.262,3.2391,3.202,3.1749,3.163,3.1494,3.1477,3.1578,3.1968,3.2256,3.2714,3.3136,3.3881,3.4993,3.5053,3.5399,3.6219,3.6295,3.6371,3.6029,3.6523,3.6846,3.7156,3.7347,3.8384,3.9491,4.0093,4.0408,4.1215,4.2088,4.2276,4.2348,4.2967,4.3931,4.4736,4.5948,4.6739,4.78,4.8991,5.0754,5.296,5.2077,5.0033,5.0333,5.0526,5.1609,5.3184,5.5311,5.7447,5.7745,5.8165,5.8585,5.8732,5.8042,5.7697,5.7743,5.8039,5.8362,5.9252,6.0106,6.0541,6.0676,6.1301,6.2241,6.2064,6.1389,3.2521,3.2521,3.2521,3.2361,3.2361,3.2361,3.1562,2.9614,2.7006,2.4873,2.3488,2.2863,2.2729,2.3256,2.4411,2.5286,2.5441,2.6858,2.7831,2.8566,2.9086,2.9199,2.9822,3.058,3.0977,3.0696,3.0677,3.0932,3.0965,3.0078,2.9536,2.9332,2.9494,2.9966,3.0321,3.0944,3.1346,3.189,3.1896,3.215,3.2603,3.2839,3.3157,3.3598,3.3768,3.3636,3.3327,3.314,3.308,3.3063,3.3083,3.3235,3.3188,3.2777,3.1934,3.1842,3.1725,3.1452,3.2034,3.2579,3.3136,3.4033,3.5666,3.6029,3.6007,3.7219,3.72,3.6451,3.5536,3.5593,3.5669,3.565,3.6187,3.7173,3.8267,3.977,4.0436,4.2142,4.3066,4.3359,4.3423,4.4248,4.5172,4.5839,4.6904,4.7944,4.8869,5.0615,5.23,5.2607,5.2129,5.1871,5.2082,5.2211,5.2919,5.4091,5.5598,5.7792,5.8511,5.8907,5.9227,5.9144,5.883,5.8462,5.7869,5.7696,5.873,5.9985,6.0805,6.1379,6.169,6.2566,6.3709,6.295,6.1811,3.2521,3.2521,3.2521,3.2377,3.2057,3.2377,3.1897,3.0598,2.8314,2.6171,2.4612,2.3857,2.3524,2.3678,2.4678,2.501,2.5139,2.6031,2.6744,2.7639,2.8363,2.8422,2.8925,2.9816,3.0354,3.0251,3.0609,3.0918,3.0473,2.9872,2.9401,2.8993,2.883,2.8993,2.9193,3.0002,3.091,3.1526,3.1519,3.1682,3.2603,3.2983,3.33,3.33,3.3858,3.3425,3.2438,3.2929,3.2741,3.2318,3.3154,3.3387,3.326,3.3115,3.2271,3.2011,3.149,3.1149,3.1576,3.2427,3.2984,3.4156,3.5526,3.658,3.6504,3.7979,3.7666,3.6661,3.5498,3.5099,3.5213,3.5327,3.5919,3.6842,3.8287,3.9736,4.0943,4.2659,4.3964,4.411,4.4566,4.5366,4.5752,4.6168,4.8185,4.9512,5.0587,5.2058,5.2583,5.2532,5.1797,5.2227,5.3106,5.3602,5.4068,5.46,5.5939,5.7589,5.8387,5.9179,5.934,5.9149,5.9131,5.9415,5.8201,5.7238,5.8828,6.0158,6.1171,6.2064,6.254,6.3293,6.3682,6.3168,6.2384,3.2361,3.2361,3.2361,3.2057,3.1592,3.2217,3.1722,3.0583,2.96,2.7798,2.5524,2.5063,2.4933,2.4549,2.4931,2.4931,2.4985,2.6198,2.707,2.6812,2.7303,2.7868,2.8378,2.8835,2.9404,2.9956,3.03,3.0548,3.065,2.9626,2.8885,2.8328,2.8164,2.8164,2.8626,2.9734,3.0876,3.1692,3.1791,3.2192,3.2808,3.3141,3.3316,3.3474,3.3804,3.3401,3.2555,3.2741,3.272,3.2382,3.3052,3.3405,3.3181,3.3036,3.2377,3.1829,3.1017,3.0813,3.0794,3.1749,3.2697,3.3801,3.5614,3.6574,3.6865,3.7852,3.8535,3.6732,3.5574,3.508,3.5594,3.6051,3.6727,3.7875,3.9477,4.0923,4.1975,4.3351,4.435,4.4914,4.5409,4.6025,4.631,4.722,4.9523,5.0953,5.2058,5.248,5.2598,5.2002,5.0829,5.1442,5.3248,5.3762,5.4634,5.5188,5.5848,5.7113,5.8362,5.9449,5.9732,5.9809,5.9953,6.0301,5.9631,5.8978,5.9634,6.0537,6.1467,6.2399,6.3014,6.3293,6.3378,6.3383,6.3168,3.2027,3.2027,3.2027,3.2042,3.2057,3.1737,3.1431,3.0934,3.0422,2.8789,2.6664,2.5689,2.4684,2.4221,2.4572,2.4635,2.4526,2.5181,2.554,2.5588,2.5816,2.5732,2.6226,2.6872,2.7919,2.7918,2.8644,2.9256,2.9208,2.8871,2.8518,2.8001,2.7838,2.7838,2.8233,2.9102,3.0176,3.1163,3.1391,3.1651,3.2649,3.3316,3.3648,3.3648,3.4281,3.375,3.307,3.3104,3.3229,3.3185,3.333,3.3978,3.3985,3.3557,3.2351,3.1476,3.0967,3.0708,3.0594,3.1352,3.2697,3.3746,3.5477,3.6134,3.6561,3.7301,3.83,3.6884,3.5896,3.5536,3.7015,3.7602,3.8307,3.8702,4.0405,4.1748,4.2818,4.4331,4.5153,4.6036,4.7329,4.8374,4.8651,4.9111,5.0759,5.1139,5.1898,5.2231,5.2351,5.1662,5.0415,5.1469,5.3248,5.4311,5.4953,5.5611,5.6225,5.7487,5.8511,5.9596,6.0499,6.0856,6.1092,6.0731,6.0588,6.0715,6.096,6.1388,6.2074,6.2593,6.276,6.304,6.31,6.3137,6.3222,3.2027,3.2027,3.1547,3.1387,3.1431,3.1431,3.111,3.0788,3.0598,2.9614,2.8328,2.7006,2.5854,2.537,2.5536,2.5193,2.4518,2.537,2.5229,2.5027,2.5027,2.5205,2.5563,2.6152,2.6505,2.7222,2.8163,2.8613,2.8102,2.8271,2.8204,2.7851,2.7523,2.7687,2.8111,2.8718,2.9842,3.0933,3.1564,3.2058,3.2824,3.3648,3.3965,3.3965,3.4579,3.4201,3.3664,3.429,3.4255,3.4322,3.4462,3.4985,3.5211,3.4344,3.3278,3.225,3.1978,3.1632,3.1435,3.218,3.2966,3.3972,3.5067,3.6196,3.6523,3.639,3.6909,3.7525,3.7009,3.7115,3.8305,3.9272,3.9748,4.0125,4.0954,4.2196,4.3727,4.5694,4.683,4.768,4.9041,5.0158,5.0651,5.103,5.1382,5.1491,5.1709,5.1864,5.2,5.1584,5.0957,5.1522,5.3566,5.4733,5.4577,5.5446,5.6601,5.7638,5.866,5.989,6.1103,6.1509,6.134,6.0897,6.0673,6.0778,6.132,6.2021,6.254,6.2619,6.2645,6.2839,6.2854,6.2785,6.3084,3.2361,3.2361,3.1066,3.0436,3.0142,3.0949,3.0627,2.9818,3.0114,2.9952,2.9318,2.8654,2.751,2.7208,2.688,2.6715,2.6031,2.7044,2.6031,2.5536,2.5701,2.5548,2.5503,2.6091,2.7037,2.7336,2.7983,2.8203,2.8318,2.7957,2.7877,2.7536,2.7372,2.7687,2.7961,2.8382,2.9572,3.054,3.1791,3.2618,3.33,3.3965,3.4107,3.4405,3.4621,3.4496,3.4424,3.5143,3.5322,3.5275,3.5556,3.5946,3.6077,3.5378,3.4382,3.3514,3.3188,3.3321,3.317,3.3697,3.3637,3.3739,3.4666,3.6086,3.6533,3.5747,3.6804,3.9014,3.9029,3.9197,4.0012,4.0722,4.1195,4.1696,4.2341,4.3525,4.505,4.6863,4.8096,4.9175,5.0134,5.1188,5.1696,5.2512,5.295,5.2904,5.2995,5.2704,5.2629,5.113,5.0743,5.1428,5.3495,5.4332,5.4036,5.5345,5.6823,5.8041,5.9374,6.0644,6.1535,6.1403,6.1258,6.1084,6.125,6.1136,6.1294,6.1995,6.2593,6.2504,6.2778,6.2963,6.3086,6.2854,6.302,3.1737,3.2042,3.1402,3.0612,2.9938,3.0142,2.9642,2.864,2.864,2.8803,2.8491,2.7674,2.6854,2.6538,2.7044,2.7044,2.6196,2.7044,2.6196,2.5358,2.5027,2.5051,2.4778,2.479,2.5599,2.6063,2.7147,2.7313,2.7402,2.7602,2.7674,2.7385,2.7385,2.7536,2.7687,2.8124,2.8896,3.0042,3.1167,3.2475,3.3474,3.4264,3.491,3.5368,3.5629,3.5671,3.5438,3.5688,3.5887,3.5893,3.6031,3.6449,3.684,3.6299,3.5513,3.4437,3.4702,3.5117,3.5362,3.5098,3.4853,3.491,3.5536,3.6014,3.6565,3.7702,3.899,4.0216,4.0715,4.1818,4.2398,4.2788,4.318,4.3487,4.3871,4.4921,4.6204,4.7449,4.8701,5.0094,5.1479,5.2406,5.3035,5.3992,5.4326,5.427,5.405,5.377,5.2262,5.0307,5.0226,5.0886,5.2565,5.3209,5.4018,5.5857,5.7328,5.878,6.0106,6.1129,6.1509,6.1482,6.1302,6.1634,6.1905,6.166,6.1066,6.1951,6.2645,6.2672,6.261,6.3068,6.3121,6.2883,6.2866,3.0773,3.1226,3.0773,3.0275,3.0099,2.9466,2.9155,2.8654,2.8001,2.7988,2.7988,2.7018,2.6373,2.6538,2.7044,2.7044,2.688,2.7208,2.6373,2.5027,2.5358,2.5205,2.4209,2.4542,2.5039,2.608,2.655,2.6702,2.669,2.7018,2.751,2.7208,2.7044,2.7044,2.7536,2.7586,2.8139,2.9102,3.0205,3.1753,3.3063,3.4422,3.5397,3.6005,3.6049,3.6105,3.5812,3.5867,3.5458,3.5593,3.5973,3.6299,3.6149,3.669,3.6579,3.5362,3.6279,3.6929,3.7079,3.6429,3.6168,3.6038,3.6168,3.6647,3.7711,3.9784,4.1771,4.2389,4.3444,4.4105,4.4273,4.5011,4.5272,4.5527,4.6114,4.6995,4.7532,4.8458,4.9591,5.1352,5.2955,5.3579,5.4222,5.4758,5.4914,5.484,5.4583,5.4241,5.2622,5.0564,5.0474,5.0905,5.1636,5.2654,5.4717,5.625,5.7594,5.9198,6.0524,6.0959,6.1509,6.1571,6.1171,6.1403,6.143,6.135,6.1107,6.1581,6.2566,6.2531,6.2531,6.2663,6.291,6.2725,6.2778,2.979,3.0261,2.9642,2.9466,2.9614,2.8803,2.8816,2.883,2.7523,2.7359,2.751,2.6361,2.6043,2.6728,2.7221,2.7208,2.7208,2.7208,2.6373,2.5358,2.5866,2.5536,2.4542,2.5536,2.5866,2.5701,2.6702,2.6702,2.6373,2.6702,2.7044,2.7031,2.6538,2.6538,2.7144,2.7188,2.7163,2.8353,2.9256,3.0918,3.2857,3.4579,3.5608,3.6126,3.6123,3.6101,3.6292,3.534,3.4931,3.5118,3.542,3.4985,3.4588,3.6449,3.7358,3.7724,3.8109,3.8385,3.7744,3.754,3.7531,3.729,3.743,3.7975,3.935,4.182,4.4137,4.5574,4.5287,4.518,4.6232,4.7144,4.7294,4.7729,4.809,4.8607,4.9024,5.0049,5.1112,5.2587,5.3526,5.4402,5.4758,5.5164,5.5568,5.5416,5.5038,5.4581,5.3501,5.1819,5.1196,5.1325,5.1985,5.3559,5.5397,5.646,5.7931,5.9471,6.0353,6.0814,6.1288,6.1624,6.1145,6.079,6.0526,6.0447,6.0658,6.1265,6.2214,6.2531,6.2531,6.2531,6.2583,6.261,6.2689,2.9452,2.8965,2.8803,2.7988,2.717,2.732,2.6829,2.5511,2.5358,2.5713,2.5915,2.4708,2.5406,2.6956,2.6918,2.6715,2.7372,2.6538,2.6031,2.5689,2.6031,2.5701,2.5193,2.5701,2.6031,2.5536,2.6043,2.6196,2.6208,2.6715,2.655,2.655,2.7044,2.7044,2.6727,2.703,2.787,2.8629,2.934,3.0461,3.2494,3.4844,3.652,3.6327,3.6869,3.6687,3.6044,3.495,3.4813,3.5061,3.5381,3.5362,3.5249,3.682,3.8129,3.864,3.9296,3.9191,3.885,3.8947,3.9093,3.885,3.9309,3.9812,4.0907,4.2465,4.4276,4.4855,4.5287,4.643,4.7956,4.8927,4.9312,4.9578,4.9808,5.0333,5.0835,5.1367,5.2299,5.3111,5.4069,5.4581,5.4683,5.509,5.5416,5.5264,5.4784,5.4274,5.3501,5.2084,5.1468,5.1663,5.2606,5.4237,5.5822,5.704,5.8012,5.9485,6.0353,6.0814,6.1262,6.1414,6.1145,6.0658,6.0421,6.0553,6.0447,6.0816,6.1871,6.2531,6.2531,6.2636,6.2874,6.2979,6.2821,2.8491,2.8314,2.8178,2.751,2.7018,2.6841,2.6196,2.5358,2.4862,2.4708,2.4553,2.3888,2.441,2.5418,2.5382,2.5866,2.6208,2.5701,2.5193,2.5027,2.5358,2.5205,2.453,2.5701,2.5701,2.5536,2.5548,2.5866,2.6043,2.6538,2.6715,2.6373,2.655,2.6715,2.6877,2.6753,2.7084,2.8091,2.8772,2.9634,3.1322,3.3347,3.5081,3.5797,3.6649,3.653,3.5432,3.4481,3.4341,3.4569,3.4985,3.5513,3.6299,3.7595,3.8874,3.997,4.0486,4.034,3.9424,4.0355,4.0765,4.0757,4.0623,4.1237,4.2523,4.3309,4.4481,4.596,4.7115,4.7956,4.9065,4.9999,5.0564,5.081,5.1212,5.1637,5.2167,5.2167,5.2718,5.3501,5.4043,5.43,5.4581,5.481,5.5164,5.5038,5.453,5.3888,5.3111,5.2142,5.1321,5.1942,5.2929,5.4826,5.6712,5.7172,5.7831,5.9445,6.0524,6.0959,6.1106,6.0308,6.001,6.0337,6.0896,6.108,6.1054,6.1133,6.1845,6.2531,6.2531,6.2636,6.3032,6.319,6.2953,2.7523,2.7661,2.7372,2.7195,2.717,2.6361,2.5866,2.5866,2.4708,2.4376,2.4043,2.3555,2.3544,2.4198,2.4684,2.5358,2.6031,2.537,2.4518,2.4364,2.4696,2.5039,2.4708,2.5701,2.6031,2.5878,2.5713,2.5615,2.5883,2.6084,2.6135,2.6525,2.6349,2.6475,2.6548,2.645,2.7014,2.7973,2.8673,2.9421,3.0746,3.2385,3.3546,3.5,3.6426,3.6073,3.4761,3.4137,3.3941,3.3789,3.4607,3.5776,3.6949,3.7981,3.938,4.0618,4.1183,4.107,4.0599,4.1807,4.2497,4.2614,4.2756,4.346,4.4459,4.4935,4.6178,4.7933,4.9041,4.9613,4.975,5.0968,5.1637,5.177,5.2167,5.2718,5.298,5.2849,5.298,5.3371,5.363,5.3888,5.3914,5.4017,5.4376,5.4376,5.3605,5.2562,5.2299,5.1853,5.143,5.2109,5.3307,5.5311,5.7051,5.6966,5.7654,5.9369,6.032,6.0609,6.0343,5.9389,5.9271,6.0042,6.0626,6.1186,6.1581,6.1871,6.2267,6.2504,6.2531,6.2531,6.2742,6.29,6.2742,2.7031,2.6361,2.6196,2.5878,2.5193,2.5027,2.4542,2.3899,2.3566,2.3733,2.3888,2.3532,2.4032,2.5015,2.5524,2.6373,2.6373,2.5524,2.453,2.453,2.4376,2.453,2.5039,2.5536,2.5878,2.5548,2.5548,2.5432,2.5512,2.5697,2.5785,2.5215,2.5858,2.6459,2.65,2.687,2.7692,2.8259,2.8956,3.0024,3.1361,3.2146,3.3191,3.4568,3.5837,3.5752,3.4788,3.4453,3.4455,3.4739,3.5269,3.6038,3.7059,3.8109,3.938,4.1004,4.1271,4.1497,4.2355,4.3476,4.452,4.5209,4.5511,4.6344,4.6785,4.7104,4.789,4.9312,5.0564,5.1394,5.2349,5.2612,5.2743,5.298,5.3111,5.3371,5.3371,5.3396,5.3241,5.3396,5.3371,5.3371,5.3396,5.3526,5.3759,5.3734,5.2299,5.137,5.1479,5.1455,5.1346,5.1868,5.3602,5.5566,5.5914,5.5986,5.7357,5.8734,5.9699,5.9927,6.0007,5.9744,5.9996,6.0377,6.0626,6.108,6.1476,6.2003,6.2346,6.2452,6.2531,6.2531,6.2531,6.2531,6.2583,2.688,2.6031,2.6196,2.5701,2.4862,2.5039,2.4387,2.3566,2.3555,2.3721,2.371,2.3699,2.4364,2.5193,2.5193,2.5193,2.5027,2.402,2.3688,2.3521,2.3699,2.3865,2.4696,2.537,2.5713,2.5548,2.5536,2.5571,2.5537,2.5732,2.5681,2.556,2.6051,2.648,2.6877,2.7109,2.783,2.8584,2.9051,3.0239,3.1747,3.259,3.3549,3.4948,3.5664,3.5296,3.4167,3.4322,3.4721,3.5117,3.5907,3.654,3.682,3.7873,3.9022,4.0117,4.0903,4.2411,4.3828,4.4854,4.5775,4.6654,4.6149,4.6792,4.741,4.7634,4.8419,4.9748,5.1293,5.2481,5.3136,5.3266,5.3266,5.3396,5.3396,5.3396,5.3396,5.3396,5.3396,5.3396,5.298,5.2849,5.3005,5.3266,5.3501,5.3992,5.2537,5.2406,5.2381,5.2158,5.1893,5.2016,5.3878,5.4725,5.4671,5.5409,5.6715,5.795,5.898,5.9299,5.9686,6.0122,6.0533,6.0927,6.1186,6.1397,6.1871,6.2161,6.261,6.2742,6.2768,6.261,6.2531,6.2531,6.2531,2.688,2.6208,2.6373,2.5701,2.5039,2.5205,2.4542,2.3566,2.3877,2.371,2.3688,2.3854,2.4364,2.5193,2.5193,2.453,2.4198,2.3521,2.2687,2.2353,2.2687,2.3355,2.402,2.5027,2.5548,2.5701,2.5701,2.5673,2.5815,2.5796,2.6005,2.615,2.6439,2.6978,2.7705,2.8112,2.8392,2.9095,2.9657,3.0773,3.2181,3.2924,3.3766,3.5042,3.5553,3.485,3.3856,3.4474,3.5117,3.5381,3.6168,3.656,3.671,3.7616,3.8385,3.9191,4.0727,4.3019,4.4744,4.6035,4.7045,4.7868,4.7227,4.6722,4.7902,4.8001,4.8715,4.9993,5.1758,5.293,5.3396,5.3396,5.3396,5.3396,5.3396,5.3396,5.3396,5.3396,5.3396,5.3241,5.2693,5.2167,5.2084,5.2192,5.3111,5.3863,5.3837,5.3708,5.3472,5.3257,5.2762,5.206,5.3311,5.3616,5.3691,5.4057,5.5675,5.7148,5.8188,5.88,5.9301,5.9827,5.9727,6.0298,6.1291,6.2302,6.2689,6.2953,6.2663,6.2953,6.3111,6.2794,6.2531,6.2531,6.2531,2.669,2.6538,2.5878,2.5548,2.537,2.4862,2.453,2.4043,2.3566,2.3888,2.4198,2.3688,2.453,2.6361,2.5536,2.5701,2.5536,2.4032,2.3355,2.2687,2.2854,2.3188,2.3688,2.4862,2.5701,2.5866,2.6373,2.6145,2.5851,2.5698,2.5801,2.5995,2.6586,2.7592,2.8796,3.0028,3.1007,3.1267,3.1514,3.2256,3.2843,3.3219,3.3748,3.466,3.4871,3.4622,3.4813,3.5269,3.5795,3.5795,3.5946,3.6397,3.7179,3.7358,3.7724,3.7996,4.0577,4.3291,4.5057,4.7173,4.8686,4.9095,4.882,4.9027,4.9249,4.9442,4.9954,5.1144,5.2304,5.3115,5.3396,5.3526,5.3526,5.3396,5.3396,5.3396,5.3396,5.3396,5.3396,5.3396,5.2299,5.0944,5.0294,5.0564,5.2035,5.3863,5.3863,5.3734,5.3577,5.3468,5.3,5.2349,5.2322,5.2618,5.2859,5.2996,5.4811,5.642,5.7725,5.8541,5.9044,5.8819,5.8816,5.9486,6.0653,6.174,6.2821,6.3058,6.2742,6.2821,6.2953,6.2742,6.2531,6.2531,6.2531,2.6867,2.669,2.6538,2.6031,2.5039,2.537,2.4708,2.3721,2.341,2.3721,2.4032,2.3699,2.4186,2.5358,2.4862,2.4518,2.4364,2.3043,2.2206,2.1693,2.2018,2.2687,2.3521,2.5039,2.5866,2.6043,2.6525,2.6408,2.6085,2.5827,2.5992,2.6453,2.6885,2.7926,2.9613,3.0365,3.1241,3.1746,3.2013,3.2643,3.3435,3.3586,3.3975,3.4603,3.469,3.4885,3.4967,3.5269,3.5532,3.5795,3.5965,3.6659,3.8212,3.7965,3.7337,3.7358,4.0705,4.3992,4.6081,4.7539,4.8692,4.9279,4.9104,4.9106,4.9387,4.9664,5.0866,5.2205,5.3223,5.3605,5.3526,5.3785,5.3785,5.3526,5.3396,5.3396,5.3396,5.363,5.363,5.3371,5.2849,5.177,4.9453,5.1479,5.2955,5.3734,5.4017,5.4017,5.363,5.3342,5.2975,5.2084,5.1748,5.2615,5.302,5.3695,5.5223,5.6469,5.7661,5.8432,5.8405,5.7528,5.7849,5.853,5.999,6.1265,6.2248,6.3009,6.2863,6.2821,6.2663,6.2636,6.2557,6.2531,6.2531,2.7044,2.688,2.6867,2.6208,2.5193,2.537,2.4885,2.3733,2.341,2.3555,2.3865,2.3366,2.3532,2.4352,2.3688,2.3355,2.3188,2.2374,2.1545,2.0862,2.1021,2.1683,2.2854,2.4696,2.5878,2.6373,2.7006,2.7061,2.6515,2.6881,2.713,2.7243,2.8249,2.9338,3.0499,3.1677,3.2339,3.2761,3.2786,3.3203,3.4118,3.4099,3.4239,3.491,3.5023,3.5023,3.5004,3.5004,3.5269,3.6168,3.654,3.7723,3.9331,3.8117,3.7832,3.9042,4.1989,4.4798,4.7005,4.8096,4.88,4.9447,4.9174,4.8845,4.9392,5.0203,5.1466,5.2636,5.3811,5.4069,5.3914,5.4069,5.3914,5.3656,5.3396,5.3526,5.363,5.3888,5.4146,5.4043,5.363,5.2824,5.201,5.2799,5.412,5.4657,5.5064,5.519,5.4504,5.4017,5.3579,5.2487,5.1991,5.2737,5.3646,5.4347,5.5439,5.6809,5.7906,5.8718,5.7676,5.7067,5.73,5.8005,5.9753,6.1186,6.2116,6.2813,6.3088,6.3243,6.2979,6.261,6.2557,6.2531,6.2531,2.7044,2.7208,2.6043,2.5713,2.5713,2.5205,2.4708,2.4376,2.3733,2.3566,2.371,2.2719,2.2887,2.3699,2.3355,2.3199,2.3188,2.2531,2.185,2.0803,2.0457,2.0615,2.1443,2.3609,2.531,2.669,2.8178,2.8045,2.6951,2.8601,2.9537,2.8757,3.0618,3.2366,3.2826,3.4673,3.5363,3.509,3.457,3.46,3.5257,3.4586,3.4397,3.5023,3.5136,3.5136,3.5269,3.5269,3.5907,3.7724,3.8323,3.9064,3.9782,3.832,3.9211,4.2201,4.3787,4.5739,4.7526,4.824,4.904,5.0097,4.9404,4.9241,5.0184,5.1597,5.271,5.2824,5.3681,5.4351,5.4479,5.4479,5.4197,5.3656,5.3396,5.363,5.3888,5.43,5.4555,5.4937,5.4402,5.3759,5.4784,5.4376,5.5038,5.5542,5.5819,5.5694,5.5138,5.4374,5.4042,5.3606,5.298,5.3676,5.4967,5.5703,5.6899,5.8062,5.908,5.8583,5.7238,5.7255,5.7362,5.8517,5.992,6.1133,6.2161,6.2442,6.2874,6.3005,6.2926,6.2663,6.2531,6.2531,6.2531,2.7221,2.7385,2.6538,2.5866,2.5193,2.5205,2.4708,2.3888,2.341,2.3399,2.3399,2.2395,2.2395,2.2552,2.2552,2.2552,2.2374,2.2049,2.1225,2.0321,2.0126,2.0611,2.1764,2.2747,2.4204,2.6626,2.8504,2.8883,2.8327,2.967,3.0373,3.0507,3.1835,3.2968,3.3433,3.5006,3.5783,3.5591,3.4834,3.4623,3.5167,3.5024,3.5098,3.5606,3.5756,3.6299,3.682,3.6319,3.667,3.8067,3.8831,3.9818,4.1105,4.1105,4.1575,4.3456,4.4635,4.5748,4.6782,4.7754,4.8274,4.8718,4.902,4.9541,5.0365,5.1842,5.2955,5.3161,5.394,5.4479,5.4479,5.4351,5.4043,5.3526,5.3526,5.3501,5.363,5.4043,5.4555,5.481,5.4657,5.4911,5.5317,5.5317,5.5568,5.6068,5.6068,5.5694,5.539,5.4524,5.4195,5.3786,5.3964,5.4873,5.6036,5.7248,5.8431,5.9365,6.0122,5.8913,5.7849,5.7939,5.7784,5.8835,5.9946,6.1159,6.2074,6.2337,6.2768,6.2557,6.2636,6.2636,6.2794,6.2715,6.2663,2.7385,2.7385,2.6702,2.5866,2.5193,2.5027,2.4542,2.3555,2.3243,2.3076,2.2908,2.2227,2.1902,2.1892,2.1902,2.1892,2.1902,2.1545,2.0978,2.0288,1.9902,2.0484,2.1481,2.1931,2.3474,2.5885,2.8233,2.9494,3.0028,3.0766,3.1621,3.2323,3.3252,3.3997,3.4366,3.5424,3.5959,3.592,3.4983,3.493,3.5526,3.5278,3.5494,3.5998,3.6149,3.6929,3.8323,3.7832,3.8088,3.9693,4.0068,4.0937,4.2185,4.3102,4.3747,4.4439,4.5374,4.5976,4.6707,4.7291,4.7638,4.8053,4.888,4.9626,5.0387,5.1572,5.2509,5.3346,5.4197,5.4581,5.4454,5.4197,5.3914,5.3734,5.363,5.3501,5.4017,5.4248,5.453,5.4836,5.5038,5.5264,5.5568,5.5845,5.6068,5.644,5.6193,5.5819,5.5667,5.5007,5.4475,5.4504,5.5306,5.6161,5.7559,5.881,6.0022,6.0944,6.0822,5.9801,5.9277,5.891,5.8596,5.9071,6.0021,6.0995,6.188,6.251,6.319,6.3216,6.3454,6.3401,6.3164,6.3005,6.29,2.7385,2.7208,2.6386,2.6043,2.5701,2.4696,2.4209,2.3877,2.3076,2.2741,2.2741,2.1734,2.1734,2.1892,2.1566,2.1566,2.1892,2.1505,2.1073,2.0484,1.9804,1.9751,2.0678,2.1588,2.2956,2.4908,2.7843,2.9867,3.1048,3.2146,3.3189,3.4189,3.5206,3.5689,3.5966,3.6506,3.6847,3.6316,3.575,3.576,3.6205,3.5142,3.5211,3.6149,3.5644,3.667,3.9567,3.919,3.9818,4.172,4.2619,4.3245,4.3462,4.382,4.4632,4.5569,4.598,4.6805,4.7982,4.7441,4.7635,4.8492,4.8936,4.953,5.0485,5.1395,5.2399,5.33,5.4222,5.4683,5.4631,5.4146,5.3759,5.4069,5.3966,5.4017,5.4631,5.4986,5.5138,5.5317,5.5443,5.5568,5.5694,5.597,5.6343,5.644,5.644,5.6193,5.6068,5.5891,5.5845,5.5879,5.657,5.7914,5.9183,6.0431,6.1573,6.2203,6.1535,6.0896,6.0258,6.0174,6.0047,5.9648,6.06,6.1423,6.2195,6.2705,6.3296,6.3981,6.4746,6.4957,6.443,6.3849,6.3586,2.7385,2.7208,2.6386,2.5866,2.5548,2.453,2.3888,2.3555,2.2908,2.2741,2.2573,2.1734,2.1566,2.1902,2.1566,2.1566,2.1871,2.1228,2.0535,1.9783,1.9004,1.9413,2.0964,2.1401,2.2901,2.527,2.7232,2.9136,3.1009,3.2058,3.277,3.3506,3.5324,3.5825,3.5385,3.5795,3.6558,3.6757,3.5469,3.5235,3.6236,3.5802,3.5737,3.5998,3.6149,3.7554,4.0836,4.0339,4.1004,4.2619,4.3222,4.3701,4.4389,4.4624,4.503,4.5793,4.6009,4.6275,4.6901,4.6844,4.7002,4.7836,4.8682,4.9403,4.9794,5.1116,5.2268,5.3353,5.439,5.5164,5.4859,5.4478,5.453,5.5038,5.5038,5.4937,5.481,5.4885,5.5038,5.5064,5.519,5.5542,5.5819,5.5944,5.6219,5.6564,5.6317,5.6317,5.629,5.651,5.6645,5.7737,5.8705,5.9916,6.1047,6.2012,6.3057,6.294,6.2428,6.1726,6.1133,6.1476,6.1449,6.0968,6.1344,6.2003,6.2478,6.2847,6.3401,6.4087,6.4983,6.5748,6.5326,6.4799,6.4456,2.7208,2.7044,2.6208,2.5701,2.537,2.4209,2.371,2.3555,2.2741,2.2573,2.2573,2.1734,2.1566,2.1881,2.1228,2.1075,2.1209,2.0768,2.0072,1.9347,1.904,1.9732,2.1211,2.1315,2.2696,2.512,2.6678,2.8956,3.136,3.1655,3.2218,3.3402,3.4856,3.5397,3.5151,3.5629,3.6175,3.6895,3.5526,3.5098,3.5989,3.5803,3.5737,3.5848,3.665,3.8302,4.0836,4.1229,4.2087,4.3581,4.4058,4.4531,4.5093,4.521,4.5558,4.616,4.6364,4.6592,4.6984,4.7097,4.7297,4.7746,4.8758,4.9533,4.9863,5.0522,5.1623,5.2822,5.4195,5.4536,5.424,5.3978,5.4232,5.4828,5.4988,5.4751,5.4588,5.4928,5.5164,5.519,5.5164,5.539,5.5944,5.6068,5.6228,5.6976,5.7083,5.7351,5.7539,5.779,5.8185,5.9257,6.0597,6.1923,6.2715,6.3607,6.3848,6.3571,6.3213,6.2342,6.2071,6.2362,6.2302,6.1766,6.1924,6.2425,6.2452,6.2794,6.3243,6.4113,6.5643,6.6197,6.5784,6.6117,6.5669,2.6664,2.6487,2.5866,2.5548,2.5382,2.3899,2.3566,2.3877,2.2563,2.2238,2.2573,2.1693,2.1505,2.1726,2.0635,2.0079,2.0069,2.0048,1.9483,1.897,1.947,2.0282,2.0995,2.1259,2.2581,2.4911,2.6696,2.9201,3.2052,3.1445,3.1946,3.3702,3.4339,3.488,3.5441,3.5868,3.6289,3.6443,3.5714,3.5514,3.5614,3.5326,3.54,3.6168,3.7277,3.8789,4.0068,4.1675,4.3271,4.4531,4.5118,4.5724,4.593,4.593,4.616,4.6757,4.7133,4.7582,4.8054,4.8165,4.8275,4.8632,4.9285,4.9795,5.0149,5.0226,5.0819,5.2316,5.3034,5.3197,5.2922,5.3092,5.3306,5.3871,5.396,5.4006,5.4138,5.4812,5.5554,5.5784,5.5456,5.5607,5.6042,5.6317,5.6869,5.7665,5.8581,5.8906,5.9302,5.9835,6.0019,6.0477,6.1523,6.2768,6.336,6.3848,6.3709,6.3571,6.3432,6.2934,6.2987,6.3014,6.29,6.276,6.2645,6.2504,6.2531,6.2768,6.3137,6.3928,6.5379,6.6566,6.631,6.7093,6.6935,2.6107,2.6009,2.5883,2.5701,2.5382,2.3899,2.3399,2.3399,2.2395,2.206,2.2028,2.1198,2.0881,2.0884,2.0329,2.0058,2.0008,1.9393,1.902,1.8891,1.9163,2.0128,2.1308,2.1722,2.3335,2.5616,2.6903,2.7941,2.8858,2.9767,3.0742,3.1805,3.3399,3.4196,3.4159,3.4667,3.5507,3.6499,3.5339,3.5072,3.5893,3.5823,3.654,3.8302,3.9063,4.0317,4.2353,4.3438,4.4389,4.5142,4.5839,4.6529,4.7159,4.702,4.682,4.6984,4.772,4.8275,4.8496,4.8715,4.8825,4.8934,4.9827,5.039,5.0474,5.092,5.1577,5.2436,5.1741,5.1984,5.2903,5.2999,5.3339,5.4074,5.3867,5.3656,5.362,5.3601,5.4125,5.49,5.4966,5.503,5.6076,5.644,5.6671,5.7208,5.823,5.9113,5.9756,6.1229,6.207,6.1394,6.279,6.3903,6.3934,6.3958,6.3985,6.3985,6.3709,6.3432,6.3432,6.3153,6.29,6.29,6.2672,6.2531,6.2672,6.2672,6.2768,6.3216,6.4087,6.5247,6.6487,6.6592,6.6698,2.5222,2.5259,2.508,2.4893,2.4409,2.3449,2.3125,2.3125,2.2311,2.1985,2.1921,2.1003,2.049,2.0385,1.9889,1.9654,1.948,1.8914,1.8794,1.9064,1.9707,2.0738,2.1997,2.2545,2.385,2.5981,2.6801,2.7477,2.8135,2.958,3.0425,3.0889,3.2548,3.3494,3.3536,3.4287,3.5358,3.6502,3.5515,3.5327,3.5995,3.6311,3.7446,3.9211,4.0193,4.1675,4.351,4.4742,4.5492,4.607,4.6617,4.7384,4.8275,4.8028,4.7805,4.8028,4.8184,4.8218,4.8236,4.8363,4.8788,4.9722,5.0396,5.0926,5.1138,5.2275,5.2965,5.3024,5.229,5.1915,5.2672,5.2326,5.213,5.2876,5.3066,5.3003,5.2917,5.3069,5.3324,5.4285,5.447,5.4967,5.5947,5.6364,5.6752,5.7316,5.8176,5.9249,6.0244,6.1536,6.2276,6.2337,6.2847,6.3335,6.3311,6.358,6.4069,6.4123,6.3985,6.3848,6.3848,6.3571,6.3432,6.3153,6.318,6.3067,6.2927,6.2927,6.2786,6.2804,6.3491,6.4087,6.5906,6.6637,6.7086,2.4362,2.4375,2.3971,2.3494,2.3218,2.2738,2.2749,2.2894,2.2247,2.1889,2.1767,2.103,2.0401,2.0034,1.9506,1.9044,1.875,1.8709,1.8856,1.9297,2.0592,2.1744,2.2706,2.3552,2.4672,2.5963,2.6796,2.7641,2.8467,2.9878,3.0569,3.0773,3.2021,3.3046,3.35,3.4456,3.5421,3.5969,3.5765,3.5776,3.6057,3.6949,3.7939,3.9294,4.1162,4.2744,4.4293,4.579,4.6643,4.7097,4.7582,4.8223,4.9125,4.9043,4.9152,4.9745,4.8587,4.7856,4.7881,4.7753,4.863,5.0352,5.0705,5.1249,5.215,5.3446,5.4214,5.3839,5.3853,5.3328,5.235,5.113,5.0805,5.1583,5.2177,5.238,5.219,5.2731,5.3351,5.3692,5.4193,5.4933,5.5586,5.6135,5.6972,5.7862,5.8527,5.9303,5.9808,6.0483,6.1262,6.2068,6.2202,6.1797,6.196,6.304,6.369,6.4016,6.4015,6.4123,6.4123,6.4123,6.3877,6.3275,6.3383,6.3298,6.3271,6.3266,6.2987,6.3067,6.3059,6.3042,6.4152,6.6098,6.7777,2.4108,2.3692,2.3777,2.3637,2.3482,2.3182,2.2859,2.2559,2.2068,2.1479,2.1269,2.0963,2.0466,1.9876,1.9486,1.9003,1.8709,1.9003,1.8993,1.8993,2.1308,2.2467,2.2875,2.4811,2.6153,2.6978,2.7381,2.7936,2.8504,2.9337,2.9831,2.9985,3.1493,3.2554,3.2998,3.4064,3.4851,3.527,3.5477,3.6038,3.7208,3.8067,3.9442,4.1285,4.2721,4.441,4.606,4.6882,4.7694,4.8496,4.8745,4.9423,5.0411,5.0333,5.0333,5.054,4.9905,4.9446,4.9268,4.9032,4.9018,4.952,5.0854,5.1834,5.2227,5.2804,5.2762,5.2295,5.4156,5.4632,5.2395,5.106,5.0856,5.2032,5.2383,5.2215,5.1485,5.1679,5.2098,5.2464,5.3151,5.4282,5.5453,5.6194,5.6879,5.7653,5.8545,5.8409,5.7399,5.8593,5.9651,6.0284,6.1004,6.133,6.1013,6.1932,6.2931,6.3253,6.3826,6.4179,6.4452,6.4288,6.3879,6.304,6.3254,6.3306,6.2497,6.2873,6.3271,6.3325,6.302,6.2927,6.3405,6.5355,6.7142,2.3519,2.341,2.3534,2.3358,2.3057,2.2745,2.2455,2.2153,2.184,2.1371,2.0738,2.0727,2.03,1.9569,1.9569,1.9433,1.9287,1.9569,1.9997,2.0581,2.2033,2.3188,2.4205,2.536,2.6494,2.7325,2.7605,2.7886,2.846,2.8862,2.9001,2.9139,3.0107,3.1357,3.2326,3.3369,3.4437,3.5249,3.5532,3.6299,3.7575,3.8705,4.0296,4.2382,4.3701,4.5228,4.6995,4.7779,4.8206,4.8325,4.904,4.9701,5.0135,5.015,5.0065,4.9856,4.9549,4.9086,4.8453,4.8624,4.9032,4.9827,5.0598,5.1308,5.1773,5.1345,5.1294,5.1927,5.2363,5.2566,5.1848,5.1841,5.1647,5.1407,5.1828,5.1821,5.1152,5.1575,5.2149,5.2273,5.3071,5.4027,5.5417,5.608,5.6855,5.7472,5.7802,5.7808,5.6539,5.7584,5.8473,5.8589,5.9765,6.0392,6.0237,6.1515,6.2603,6.3005,6.3826,6.4343,6.4616,6.4616,6.3935,6.3171,6.3798,6.3528,6.1954,6.2525,6.3067,6.3093,6.2765,6.2785,6.3239,6.4228,6.5665,2.3131,2.3331,2.3188,2.2755,2.2033,2.1888,2.1744,2.1442,2.1302,2.1002,2.048,2.048,2.0089,1.9569,1.9797,1.99,1.9765,2.0124,2.1088,2.2235,2.2533,2.3672,2.5112,2.5675,2.6236,2.7058,2.7182,2.7474,2.7905,2.8013,2.8028,2.8151,2.8733,2.9676,3.1321,3.2618,3.3948,3.5147,3.5673,3.6341,3.7585,3.9104,4.1038,4.3201,4.4358,4.5695,4.7187,4.8157,4.8351,4.7643,4.8808,4.9415,4.9188,4.9463,4.9244,4.8525,4.8431,4.7972,4.681,4.724,4.8407,4.9902,5.0083,5.0206,5.0568,4.9505,4.9804,5.1976,5.0162,4.9337,5.1079,5.2351,5.2151,5.0625,5.1057,5.1296,5.063,5.169,5.2421,5.2133,5.308,5.4192,5.5225,5.5925,5.6666,5.7401,5.7585,5.7164,5.6945,5.734,5.7557,5.7761,5.8731,5.9278,5.9318,6.1038,6.2185,6.2704,6.366,6.4425,6.4643,6.4642,6.3986,6.3127,6.3676,6.3671,6.178,6.2172,6.2595,6.2334,6.1879,6.2095,6.3007,6.3198,6.3713,2.3628,2.32,2.2322,2.1744,2.1599,2.0289,2.03,2.0961,2.0301,0.0,0.0,2.0824,2.0926,2.1129,2.0738,2.0271,1.9683,1.9979,1.9933,1.9659,2.1692,2.2786,2.292,2.5487,2.6296,2.5738,2.6281,2.6281,2.587,2.6104,2.6483,2.6908,2.8196,2.9117,2.9537,3.1843,3.3128,3.3346,3.4465,3.6057,3.8183,4.037,4.248,4.4503,4.5071,4.6053,4.7474,4.7239,4.7517,4.8325,4.8964,4.9096,4.8951,4.9952,4.9765,4.7799,4.7861,4.735,4.5949,4.5444,4.5709,4.6824,4.8548,4.9217,4.8448,4.7466,4.7742,4.9635,4.9068,4.9066,5.0305,5.0666,5.0752,5.0954,5.0868,5.0566,4.9771,5.0839,5.1551,5.097,5.2378,5.4187,5.5436,5.5728,5.6402,5.7893,5.7757,5.7055,5.7083,5.7354,5.7718,5.757,5.791,5.7952,5.8089,5.9263,6.0301,6.1393,6.2776,6.3979,6.4421,6.4359,6.3306,6.1688,6.1954,6.1943,6.0739,6.1165,6.1679,6.153,6.114,6.1229,6.2202,6.2117,6.2163,2.4176,2.3444,2.2734,2.189,0.0,2.0091,1.9662,1.9248,1.9077,1.9557,2.0312,2.0186,2.0186,2.0264,2.0152,1.991,1.9474,1.9931,1.9944,1.971,2.1823,2.2721,2.2714,2.4981,2.5494,2.4651,2.5652,2.5381,2.4394,2.4944,2.5512,2.5642,2.6433,2.7353,2.8476,2.9886,3.1026,3.2074,3.351,3.5393,3.7417,3.9416,4.1419,4.3331,4.4342,0.0,0.0,0.0,0.0,0.0,0.0,0.0,0.0,4.9948,4.9451,4.7014,4.6183,4.5312,4.4238,4.3423,4.346,4.4703,4.5997,4.6289,4.5213,4.6138,4.7006,4.7667,4.8286,4.8683,4.888,4.9315,4.96,4.9838,5.0204,5.0086,4.948,5.0541,5.1062,5.068,5.171,5.3368,5.5272,5.5691,5.6823,5.8763,5.821,5.7421,5.7664,5.8348,5.8615,5.808,5.7795,5.7592,5.7812,5.8772,5.9869,6.0445,6.1743,6.2781,6.3361,6.3363,6.2938,6.1501,6.1836,6.1876,6.0125,6.0269,6.0877,6.0373,6.0146,6.0237,6.1057,6.1065,6.1137,2.4414,2.3657,2.3119,2.1934,2.0287,1.9954,1.8907,1.7385,1.7933,1.8603,1.9138,1.9362,1.9454,1.9263,1.9442,1.9542,1.9397,1.9694,2.0034,2.0188,2.1774,2.2463,2.2788,2.3957,2.4204,2.3731,2.4356,2.4233,2.3239,2.4016,2.4464,2.4577,2.4668,2.5682,2.7312,0.0,0.0,0.0,3.2793,3.4833,3.6543,3.8209,4.0145,4.2196,4.3472,0.0,4.5438,4.6251,4.6847,4.729,4.8034,0.0,4.9572,0.0,0.0,0.0,0.0,0.0,0.0,0.0,0.0,0.0,4.2383,4.2485,4.2365,4.5007,4.6612,4.6332,4.741,4.782,4.7331,4.7883,4.8212,4.7974,4.8636,4.9007,4.8661,4.9603,5.0417,5.0217,5.0776,5.221,5.4677,5.5725,5.6936,5.9201,5.8586,5.8024,5.8586,5.9165,5.9507,5.9179,5.8574,5.817,5.8154,5.9133,5.9947,6.0173,6.1169,6.2003,6.2184,6.2573,6.2353,6.1301,6.2023,6.176,5.9397,5.9642,6.0125,5.9238,5.9238,5.9279,5.9576,5.9836,6.0241,2.4209,2.3238,2.2145,2.0906,1.9821,1.8535,1.7521,1.6723,1.7104,1.7474,1.7876,1.9217,2.0059,2.0319,2.0249,1.9795,1.9251,1.9455,1.9443,1.9308,2.0542,2.1197,2.1274,2.2299,2.2635,2.2492,2.1665,2.1665,2.2523,2.2604,2.2932,2.3547,2.4378,2.5105,2.5417,2.6049,2.7123,2.8733,3.2391,3.5051,3.671,3.9013,4.1247,4.3205,4.3217,4.3818,4.5198,4.5262,4.5759,4.7153,4.793,4.9004,5.0521,4.754,4.4416,0.0,3.8639,0.0,0.0,0.0,0.0,0.0,0.0,0.0,0.0,4.3848,4.575,4.6365,4.6326,4.612,4.5962,4.5812,4.5662,4.5421,4.5355,4.5577,4.6223,4.7289,4.8227,4.8881,4.953,5.1194,5.4075,5.5142,5.6439,5.8772,5.8567,5.8258,5.8985,5.8879,5.934,6.0802,6.0199,5.9482,5.9419,5.9677,6.0157,6.0694,6.1329,6.1882,6.2258,6.2322,6.1993,6.1068,6.0878,6.0395,5.9179,5.9414,5.9583,5.8753,5.8789,5.8518,5.7882,5.8329,5.9327,2.3683,2.212,2.119,2.0249,1.9397,1.7882,1.6719,1.5891,1.6006,1.601,1.6141,1.6961,1.7673,1.8361,1.8733,1.8624,1.8274,1.8818,1.8669,1.8306,2.0066,2.088,2.0649,2.159,2.2157,2.2466,2.163,2.1729,2.2609,2.3016,2.3347,2.3583,2.3873,2.3891,2.3764,2.5009,2.6183,2.7166,3.0027,3.2694,3.5478,3.7994,4.0028,4.1561,4.2285,4.3168,4.4246,4.4772,4.5348,4.6445,4.6999,4.7665,4.8652,4.5212,4.1486,0.0,0.0,0.0,0.0,0.0,0.0,0.0,0.0,0.0,0.0,0.0,4.423,4.2436,4.4875,4.5528,4.3094,4.4862,4.5908,4.5342,4.4894,4.465,4.4796,4.518,4.5796,4.6771,4.7,4.8878,5.3096,5.4001,5.5345,5.8536,5.758,5.7067,5.8356,5.8856,5.917,6.004,6.025,6.037,6.0772,6.0714,6.0801,6.1118,6.1377,6.1492,6.1721,6.1664,6.155,6.1031,6.0773,6.0458,5.9654,5.92,5.8603,5.8089,5.7867,5.7525,5.6876,5.7585,5.8344,2.3256,2.1506,1.9711,1.8767,1.8091,1.6961,1.5959,1.5168,1.531,1.5142,1.4891,1.5614,1.6246,1.6812,1.7266,1.7416,1.7094,1.7956,1.7993,1.7649,1.949,2.0194,1.9746,2.0681,2.123,2.165,2.1694,2.1919,2.2127,2.2609,2.2965,2.3081,2.3339,2.3245,2.2864,2.4476,2.5521,2.6154,2.7965,3.0538,3.3944,3.6727,3.8784,3.999,4.1233,4.2388,4.331,4.413,4.4873,4.5613,4.6043,4.6242,4.6085,4.2284,0.0,0.0,0.0,0.0,0.0,0.0,0.0,0.0,0.0,3.3847,3.3556,0.0,4.0715,0.0,4.123,4.3395,4.1663,4.3803,0.0,0.0,4.3426,4.2798,4.2619,4.2853,4.3408,4.4293,4.4804,4.6807,5.1248,5.2544,5.3903,5.6067,5.5462,5.5367,5.7145,5.8213,5.883,5.8953,5.9713,6.0612,6.1291,6.1014,6.067,6.0809,6.0809,6.0729,6.062,6.0649,6.0598,6.0604,6.0435,6.0097,5.9507,5.8706,5.7736,5.679,5.6324,5.6057,5.6064,5.6618,5.7292,2.3255,2.2076,1.7599,1.5563,1.531,1.5124,1.4957,1.4742,1.5728,1.556,1.4485,1.6497,1.7526,1.7361,1.686,0.0,1.5906,1.6851,1.7386,1.7552,1.8196,1.8482,1.8418,1.8725,1.8915,1.9032,2.0831,2.1051,1.9819,1.9848,2.0139,2.0864,2.2916,2.3783,2.3633,2.4737,2.5503,2.5855,2.7724,2.974,3.21,3.5609,3.8083,3.9672,4.0234,4.12,4.2604,4.3191,4.3911,4.4956,4.5615,4.5209,4.3596,0.0,0.0,0.0,0.0,0.0,0.0,0.0,0.0,0.0,0.0,0.0,0.0,0.0,0.0,3.1235,3.3714,0.0,4.3325,4.2204,0.0,0.0,0.0,3.786,3.8669,3.9702,4.0751,4.1816,0.0,0.0,4.7479,5.0534,5.1937,5.0145,5.1966,5.3911,5.5253,5.641,5.7384,5.7796,5.8795,5.9839,6.041,5.9907,5.9289,5.9084,5.8949,5.9111,5.9111,5.9051,5.8949,5.8641,5.8817,5.8685,5.7807,5.7783,5.7239,5.4569,5.3759,5.3533,5.4117,5.4981,5.5689,2.092,1.9704,1.6762,1.5517,1.555,1.4112,1.3751,1.4377,1.4671,1.4693,1.445,1.5181,1.6209,1.7382,1.5122,0.0,0.0,0.0,1.6242,1.64,1.779,1.8431,1.8427,1.8803,1.9191,1.9708,2.0642,2.1063,2.1073,2.1476,2.094,1.9589,0.0,2.1429,2.2251,2.3218,2.4439,2.5955,2.7034,2.899,3.1976,3.377,3.5883,3.8616,4.0448,4.1594,4.2069,4.2824,4.2974,4.2445,4.353,4.1711,0.0,0.0,0.0,0.0,0.0,0.0,0.0,0.0,0.0,0.0,0.0,2.6379,2.6634,0.0,0.0,0.0,3.0244,3.3845,3.8178,3.9385,0.0,0.0,0.0,0.0,0.0,0.0,0.0,3.985,4.1165,4.2891,4.5654,4.735,4.8241,4.8047,4.9633,5.1308,5.2654,0.0,5.4747,5.6015,5.7463,5.8738,5.9738,5.9807,5.9686,5.9587,5.8923,5.8507,5.861,5.7656,5.667,5.5896,5.6298,5.682,5.6521,5.5565,5.4397,5.3252,5.265,5.2263,5.2145,5.2897,5.3407,1.7798,0.0,0.0,0.0,0.0,1.2932,1.2855,1.3944,1.3972,1.4258,1.4586,1.4432,0.0,0.0,0.0,0.0,0.0,0.0,1.5153,1.5462,1.7668,1.8616,1.8455,1.9018,1.9577,2.0154,2.0084,2.0445,2.1276,2.1688,2.0716,1.8784,0.0,0.0,0.0,0.0,2.3595,2.5026,2.6243,2.8289,3.1313,3.2141,3.4152,3.7442,3.9866,4.1217,4.152,4.1801,4.1286,3.9778,3.9685,0.0,0.0,0.0,0.0,0.0,0.0,0.0,0.0,0.0,0.0,0.0,0.0,0.0,0.0,0.0,0.0,0.0,0.0,0.0,3.3977,3.6493,3.7359,0.0,0.0,0.0,0.0,0.0,0.0,0.0,0.0,0.0,4.3304,4.3738,4.4443,0.0,0.0,4.9238,5.05,5.158,5.2677,5.3971,5.5197,0.0,5.7233,5.7798,5.8173,5.8203,5.7468,5.6824,5.7184,5.5907,5.4756,5.3943,5.4454,5.4568,5.3543,5.1945,5.0971,5.0864,5.0426,5.0132,5.0371,5.068,5.1134,0.0,0.0,0.0,0.0,1.1974,0.0,0.0,0.0,1.414,1.447,0.0,1.4873,0.0,0.0,0.0,0.0,1.1137,1.2924,0.0,0.0,1.7449,1.8564,1.8507,1.9203,1.9655,1.9639,1.8997,1.8867,1.9126,1.8883,1.8617,0.0,0.0,0.0,0.0,0.0,2.3044,2.2972,2.5486,2.7817,2.9838,3.1165,3.3261,3.6007,3.7897,3.9541,4.0729,3.9644,3.8435,3.7028,3.3739,0.0,0.0,0.0,0.0,0.0,0.0,0.0,0.0,0.0,0.0,0.0,0.0,0.0,0.0,0.0,0.0,0.0,0.0,0.0,0.0,3.4018,0.0,0.0,0.0,0.0,0.0,0.0,0.0,0.0,0.0,3.9438,3.9648,3.9805,4.0774,4.3184,0.0,0.0,0.0,0.0,5.1569,5.166,5.1919,5.2268,5.253,5.2922,5.3255,5.3534,0.0,0.0,5.3977,5.3722,5.3485,5.3771,5.3454,5.2125,4.7637,4.6748,4.6749,4.6716,4.6416,4.6703,4.8558,4.8544,4.8686,0.0,0.0,0.0,0.0,0.0,0.0,0.0,0.0,0.0,1.2543,1.2805,1.3207,0.0,0.0,0.0,0.0,0.0,0.0,0.0,0.0,1.6533,1.7743,1.8265,1.8495,1.8444,1.8261,1.8197,1.7614,0.0,0.0,0.0,0.0,0.0,0.0,0.0,0.0,2.1717,2.353,2.508,2.7114,2.9797,3.1045,3.323,3.6365,3.7364,3.8216,3.901,3.7691,3.591,0.0,0.0,0.0,0.0,0.0,0.0,0.0,0.0,0.0,0.0,0.0,0.0,0.0,0.0,0.0,0.0,0.0,0.0,0.0,0.0,0.0,0.0,0.0,2.9713,0.0,0.0,0.0,0.0,0.0,0.0,0.0,0.0,0.0,3.5689,3.7965,3.9828,4.0727,4.4052,4.6506,4.6975,0.0,0.0,0.0,0.0,0.0,0.0,0.0,5.3161,5.3274,5.2736,5.2031,5.1229,4.9813,4.8825,4.9035,0.0,0.0,4.329,4.3355,4.4083,4.4265,4.4774,4.5244,4.5684,4.6057,4.629,0.0,0.0,0.0,0.0,0.0,0.0,0.0,0.0,0.0,1.1442,1.2018,0.0,0.0,0.0,0.0,0.0,0.0,0.0,0.0,0.0,0.0,0.0,1.7955,1.7905,0.0,0.0,0.0,0.0,0.0,0.0,0.0,0.0,0.0,0.0,0.0,0.0,2.0755,2.3116,2.4741,2.6912,2.9705,3.1029,3.3117,3.5972,3.7073,3.7579,3.7623,0.0,0.0,0.0,2.5295,0.0,0.0,0.0,0.0,0.0,0.0,0.0,0.0,0.0,0.0,0.0,0.0,0.0,0.0,0.0,0.0,0.0,0.0,0.0,0.0,0.0,2.673,0.0,0.0,0.0,0.0,0.0,0.0,0.0,0.0,0.0,0.0,3.5657,3.7427,3.9192,4.2278,4.4576,4.4999,4.7621,4.9281,0.0,0.0,0.0,0.0,0.0,0.0,0.0,0.0,0.0,0.0,0.0,0.0,0.0,4.5083,4.3274,4.0626,4.1004,4.1789,4.196,0.0,0.0,0.0,0.0,0.0,0.0,0.0,0.0,0.0,0.0,0.0,0.0,0.0,0.0,0.0,1.2257,0.0,0.0,1.0543,0.0,0.0,0.0,0.0,0.0,0.0,0.0,0.0,0.0,0.0,0.0,0.0,0.0,0.0,0.0,0.0,0.0,0.0,0.0,0.0,0.0,0.0,2.02,2.1535,2.4375,2.7038,2.9201,3.1221,3.3035,3.4795,3.6846,3.7606,3.6675,0.0,0.0,0.0,0.0,0.0,0.0,0.0,0.0,0.0,0.0,0.0,0.0,0.0,0.0,0.0,0.0,0.0,0.0,0.0,0.0,0.0,0.0,0.0,0.0,0.0,0.0,2.6262,2.8721,2.9558,0.0,0.0,0.0,0.0,0.0,0.0,0.0,0.0,0.0,3.8455,4.0783,4.2358,4.3415,4.6389,4.7977,4.6525,4.6637,4.6857,4.6919,4.6098,4.5441,0.0,0.0,0.0,0.0,0.0,0.0,0.0,0.0,0.0,0.0,0.0,0.0,0.0,0.0,0.0,0.0,0.0,0.0,0.0,0.0,0.0,0.0,0.0,0.0,0.0,0.0,0.0,0.0,0.9412,0.9208,0.0,0.0,0.0,0.0,0.0,0.0,0.0,0.0,0.0,0.0,0.0,0.0,0.0,0.0,0.0,0.0,0.0,0.0,0.0,0.0,0.0,0.0,0.0,0.0,1.8418,2.0218,2.2688,2.5163,2.7654,3.0363,3.2811,3.5024,3.5311,3.5599,3.559,0.0,0.0,0.0,0.0,0.0,0.0,0.0,0.0,0.0,0.0,0.0,0.0,0.0,0.0,0.0,0.0,0.0,0.0,0.0,0.0,0.0,0.0,0.0,0.0,0.0,0.0,0.0,2.7186,2.766,2.7727,0.0,0.0,0.0,0.0,0.0,0.0,0.0,0.0,0.0,0.0,4.1024,4.2505,4.4506,4.5735,4.5365,4.5654,4.5862,4.5793,4.5827,4.5877,4.5842,0.0,0.0,0.0,0.0,0.0,0.0,0.0,0.0,0.0,0.0,0.0,0.0,0.0,0.0,0.0,0.0,0.0,0.0,0.0,0.0,0.0,0.0,0.0,0.0,0.0,0.0,0.0,0.0,0.0,0.0,0.0,0.0,0.0,0.0,0.0,0.0,0.0,0.0,0.0,0.0,0.0,0.0,0.0,0.0,0.0,0.0,0.0,0.0,0.0,0.0,0.0,0.0,0.0,1.733,1.9499,2.1822,2.4364,2.7114,3.0059,3.2717,3.5091,3.5191,3.4895,0.0,0.0,0.0,0.0,0.0,0.0,0.0,0.0,0.0,0.0,0.0,0.0,0.0,0.0,0.0,0.0,0.0,0.0,0.0,0.0,0.0,0.0,0.0,0.0,0.0,0.0,0.0,0.0,2.6753,2.8217,2.729,0.0,0.0,0.0,0.0,0.0,0.0,0.0,0.0,0.0,0.0,3.936,3.9891,4.2551,0.0,0.0,4.4339,4.5046,4.4954,4.48,4.454,4.4088,4.2667,0.0,0.0,0.0,0.0,0.0,0.0,0.0,0.0,0.0,0.0,0.0,0.0,0.0,0.0,0.0,0.0,0.0,0.0,0.0,0.0,0.0,0.0,0.0,0.0,0.0,0.0,0.0,0.0,0.0,0.0,0.0,0.0,0.0,0.0,0.0,0.0,0.0,0.0,0.0,0.0,0.0,0.0,0.0,0.0,0.0,0.0,0.0,0.0,0.0,0.0,0.0,0.0,1.69,1.9098,2.1347,2.3944,2.6894,2.9932,3.2573,3.4716,3.5616,3.4978,0.0,0.0,0.0,0.0,0.0,0.0,0.0,0.0,0.0,0.0,0.0,0.0,0.0,0.0,0.0,0.0,0.0,0.0,0.0,0.0,0.0,0.0,0.0,0.0,0.0,0.0,0.0,0.0,0.0,0.0,0.0,0.0,0.0,0.0,0.0,0.0,0.0,0.0,0.0,0.0,0.0,3.7478,3.6293,4.0548,4.3038,0.0,4.2805,4.4192,4.3928,4.3099,4.212,4.085,0.0,0.0,0.0,0.0,0.0,0.0,0.0,0.0,0.0,0.0,0.0,0.0,0.0,0.0,0.0,0.0,0.0,0.0,0.0,0.0,0.0,0.0,0.0,0.0,0.0,0.0,0.0,0.0,0.0,0.0,0.0,0.0,0.0,0.0,0.0,0.0,0.0,0.0,0.0,0.0,0.0,0.0,0.0,0.0,0.0,0.0,0.0,0.0,0.0,0.0,0.0,0.0,0.0,0.0,1.7379,1.8982,2.0884,2.3029,2.7271,3.0086,3.1331,3.241,0.0,0.0,0.0,0.0,0.0,0.0,0.0,0.0,0.0,0.0,0.0,0.0,0.0,0.0,0.0,0.0,0.0,0.0,0.0,0.0,0.0,0.0,0.0,0.0,0.0,0.0,0.0,1.4276,0.0,0.0,0.0,0.0,0.0,0.0,0.0,0.0,0.0,0.0,0.0,0.0,0.0,0.0,3.6718,3.769,3.9282,4.0268,0.0,0.0,4.1074,3.9837,4.0732,4.0962,0.0,0.0,0.0,0.0,0.0,0.0,0.0,0.0,0.0,0.0,0.0,0.0,0.0,0.0,0.0,0.0,0.0,0.0,0.0,0.0,0.0,0.0,0.0,0.0,0.0,0.0,0.0,0.0,0.0,0.0,0.0,0.0,0.0,0.0,0.0,0.0,0.0,0.0,0.0,0.0,0.0,0.0,0.0,0.0,0.0,0.0,0.0,0.0,0.0,0.0,0.0,0.0,0.0,0.0,1.4366,1.6229,1.7789,1.9593,2.1711,2.5893,2.8791,3.0305,3.1435,3.1293,0.0,0.0,0.0,0.0,0.0,0.0,0.0,0.0,0.0,0.0,0.0,0.0,0.0,0.0,0.0,0.0,0.0,0.0,0.0,0.0,0.0,0.0,0.0,0.0,0.0,0.0,0.0,0.0,0.0,0.0,0.0,0.0,0.0,0.0,0.0,0.0,0.0,0.0,0.0,0.0,0.0,0.0,3.5665,3.6776,0.0,0.0,0.0,3.8761,3.8646,0.0,0.0,0.0,0.0,0.0,0.0,0.0,0.0,0.0,0.0,0.0,0.0,0.0,0.0,0.0,0.0,0.0,0.0,0.0,0.0,0.0,0.0,0.0,0.0,0.0,0.0,0.0,0.0,0.0,0.0,0.0,0.0,0.0,0.0,0.0,0.0,0.0,0.0,0.0,0.0,0.0,0.0,0.0,0.0,0.0,0.0,0.0,0.0,0.0,0.0,0.0,0.0,0.0,0.0,0.0,0.0,0.0,1.5382,1.715,1.9162,2.1494,2.5076,2.801,3.0128,3.163,3.1544,0.0,0.0,0.0,0.0,0.0,0.0,0.0,0.0,0.0,0.0,0.0,0.0,0.0,0.0,0.0,0.0,0.0,0.0,0.0,0.0,0.0,0.0,0.0,0.0,0.0,0.0,0.0,0.0,0.0,0.0,0.0,0.0,0.0,0.0,0.0,0.0,0.0,0.0,0.0,0.0,0.0,3.3316,3.2445,3.3986,3.5151,0.0,0.0,3.6546,3.8014,3.7569,0.0,0.0,0.0,0.0,0.0,0.0,0.0,0.0,0.0,0.0,0.0,0.0,0.0,0.0,0.0,0.0,0.0,0.0,0.0,0.0,0.0,0.0,0.0,0.0,0.0,0.0,0.0,0.0,0.0,0.0,0.0,0.0,0.0,0.0,0.0,0.0,0.0,0.0,0.0,0.0,0.0,0.0,0.0,0.0,0.0,0.0,0.0,0.0,0.0,0.0,0.0,0.0,0.0,0.0,0.0,0.0,1.4317,1.5772,1.7567,1.9667,2.3531,2.6393,2.8019,3.1289,3.1853,0.0,0.0,0.0,0.0,0.0,0.0,0.0,0.0,0.0,0.0,0.0,0.0,0.0,0.0,0.0,0.0,0.0,0.0,0.0,0.0,0.0,0.0,0.0,0.0,0.0,0.0,0.0,0.0,0.0,0.0,0.0,0.0,0.0,0.0,0.0,0.0,0.0,0.0,0.0,0.0,0.0,3.2253,3.2527,3.2917,0.0,0.0,0.0,0.0,3.2229,3.3146,0.0,0.0,0.0,0.0,0.0,0.0,0.0,0.0,0.0,0.0,0.0,0.0,0.0,0.0,0.0,0.0,0.0,0.0,0.0,0.0,0.0,0.0,0.0,0.0,0.0,0.0,0.0,0.0,0.0,0.0,0.0,0.0,0.0,0.0,0.0,0.0,0.0,0.0,0.0,0.0,0.0,0.0,0.0,0.0,0.0,0.0,0.0,0.0,0.0,0.0,0.0,0.0,0.0,0.0,0.0,0.0,1.3586,1.5054,1.676,1.8825,2.1838,2.4778,2.7638,2.9674,3.0011,0.0,0.0,0.0,0.0,0.0,0.0,0.0,0.0,0.0,0.0,0.0,0.0,0.0,0.0,0.0,0.0,0.0,0.0,0.0,0.0,0.0,0.0,0.0,0.0,0.0,0.0,0.0,0.0,0.0,0.0,0.0,0.0,0.0,0.0,0.0,0.0,0.0,0.0,0.0,0.0,2.7673,2.9869,3.0438,0.0,0.0,0.0,0.0,0.0,0.0,3.0537,3.0523,0.0,0.0,0.0,0.0,0.0,0.0,0.0,0.0,0.0,0.0,0.0,0.0,0.0,0.0,0.0,0.0,0.0,0.0,0.0,0.0,0.0,0.0,0.0,0.0,0.0,0.0,0.0,0.0,0.0,0.0,0.0,0.0,0.0,0.0,0.0,0.0,0.0,0.0,0.0,0.0,0.0,0.0,0.0,0.0,0.0,0.0,0.0,0.0,0.0,0.0,0.0,0.0,0.0,0.0,0.0,1.3088,1.4513,1.6396,1.8665,2.049,2.3454,2.7553,2.7833,2.7544,2.6687,0.0,0.0,0.0,0.0,0.0,0.0,0.0,0.0,0.0,0.0,0.0,0.0,0.0,0.0,0.0,0.0,0.0,0.0,0.0,0.0,0.0,0.0,0.0,0.0,0.0,0.0,0.0,0.0,0.0,0.0,0.0,0.0,0.0,0.0,0.0,0.0,0.0,0.0,0.0,2.5092,2.7255,0.0,0.0,0.0,0.0,0.0,0.0,0.0,0.0,2.7686,0.0,0.0,0.0,0.0,0.0,0.0,0.0,0.0,0.0,0.0,0.0,0.0,0.0,0.0,0.0,0.0,0.0,0.0,0.0,0.0,0.0,0.0,0.0,0.0,0.0,0.0,0.0,0.0,0.0,0.0,0.0,0.0,0.0,0.0,0.0,0.0,0.0,0.0,0.0,0.0,0.0,0.0,0.0,0.0,0.0,0.0,0.0,0.0,0.0,0.0,0.0,0.0,0.0,0.0,0.0,0.0,1.4058,1.6188,1.8942,2.0777,2.3374,2.6669,2.6635,2.5923,2.4615,0.0,0.0,0.0,0.0,0.0,0.0,0.0,0.0,0.0,0.0,0.0,0.0,0.0,0.0,0.0,0.0,0.0,0.0,0.0,0.0,0.0,0.0,0.0,0.0,0.0,0.0,0.0,0.0,0.0,0.0,0.0,0.0,0.0,0.0,0.0,0.0,0.0,0.0,2.029,2.3499,0.0,0.0,0.0,0.0,0.0,0.0,0.0,0.0,2.5851,0.0,0.0,0.0,0.0,0.0,0.0,0.0,0.0,0.0,0.0,0.0,0.0,0.0,0.0,0.0,0.0,0.0,0.0,0.0,0.0,0.0,0.0,0.0,0.0,0.0,0.0,0.0,0.0,0.0,0.0,0.0,0.0,0.0,0.0,0.0,0.0,0.0,0.0,0.0,0.0,0.0,0.0,0.0,0.0,0.0,0.0,0.0,0.0,0.0,0.0,0.0,0.0,0.0,0.0,0.0,0.0,0.0,0.0,1.515,1.8837,1.9455,2.1992,2.6453,2.4376,2.3084,0.0,0.0,0.0,0.0,0.0,0.0,0.0,0.0,0.0,0.0,0.0,0.0,0.0,0.0,0.0,0.0,0.0,0.0,0.0,0.0,0.0,0.0,0.0,0.0,0.0,0.0,0.0,0.0,0.0,0.0,0.0,0.0,0.0,0.0,0.0,0.0,0.0,0.0,0.0,0.0,0.0,0.0,0.0,0.0,0.0,0.0,0.0,0.0,0.0,0.0,0.0,0.0,0.0,0.0,0.0,0.0,0.0,0.0,0.0,0.0,0.0,0.0,0.0,0.0,0.0,0.0,0.0,0.0,0.0,0.0,0.0,0.0,0.0,0.0,0.0,0.0,0.0,0.0,0.0,0.0,0.0,0.0,0.0,0.0,0.0,0.0,0.0,0.0,0.0,0.0,0.0,0.0,0.0,0.0,0.0,0.0,0.0,0.0,0.0,0.0,0.0,0.0,0.0,0.0,0.0,0.0,0.0,0.0,1.4204,1.8309,1.8232,2.0743,2.6222,2.2524,2.0738,0.0,0.0,0.0,0.0,0.0,0.0,0.0,0.0,0.0,0.0,0.0,0.0,0.0,0.0,0.0,0.0,0.0,0.0,0.0,0.0,0.0,0.0,0.0,0.0,0.0,0.0,0.0,0.0,0.0,0.0,0.0,0.0,0.0,0.0,0.0,0.0,0.0,0.0,0.0,0.0,0.0,0.0,0.0,0.0,0.0,0.0,0.0,0.0,2.0619,0.0,0.0,0.0,0.0,0.0,0.0,0.0,0.0,0.0,0.0,0.0,0.0,0.0,0.0,0.0,0.0,0.0,0.0,0.0,0.0,0.0,0.0,0.0,0.0,0.0,0.0,0.0,0.0,0.0,0.0,0.0,0.0,0.0,0.0,0.0,0.0,0.0,0.0,0.0,0.0,0.0,0.0,0.0,0.0,0.0,0.0,0.0,0.0,0.0,0.0,0.0,0.0,0.0,0.0,0.0,0.0,0.0,0.0,0.0,1.4081,1.7086,1.8281,2.0623,2.3962,2.2289,2.0345,0.0,0.0,0.0,0.0,0.0,0.0,0.0,0.0,0.0,0.0,0.0,0.0,0.0,0.0,0.0,0.0,0.0,0.0,0.0,0.0,0.0,0.0,0.0,0.0,0.0,0.0,0.0,0.0,0.0,0.0,0.0,0.0,0.0,0.0,0.0,0.0,0.0,0.0,0.0,0.0,0.0,0.0,0.0,0.0,0.0,0.0,0.0,0.0,0.0,0.0,0.0,0.0,0.0,0.0,0.0,0.0,0.0,0.0,0.0,0.0,0.0,0.0,0.0,0.0,0.0,0.0,0.0,0.0,0.0,0.0,0.0,0.0,0.0,0.0,0.0,0.0,0.0,0.0,0.0,0.0,0.0,0.0,0.0,0.0,0.0,0.0,0.0,0.0,0.0,0.0,0.0,0.0,0.0,0.0,0.0,0.0,0.0,0.0,0.0,0.0,0.0,0.0,0.0,0.0,0.0,0.0,0.0,0.0,1.3269,1.6806,1.7942,1.965,2.2054,2.0036,1.8672,0.0,0.0,0.0,0.0,0.0,0.0,0.0,0.0,0.0,0.0,0.0,0.0,0.0,0.0,0.0,0.0,0.0,0.0,0.0,0.0,0.0,0.0,0.0,0.0,0.0,0.0,0.0,0.0,0.0,0.0,0.0,0.0,0.0,0.0,0.0,0.0,0.0,0.0,0.0,0.0,0.0,0.0,0.0,0.0,0.0,0.0,0.0,0.0,0.0,0.0,0.0,0.0,0.0,0.0,0.0,0.0,0.0,0.0,0.0,0.0,0.0,0.0,0.0,0.0,0.0,0.0,0.0,0.0,0.0,0.0,0.0,0.0,0.0,0.0,0.0,0.0,0.0,0.0,0.0,0.0,0.0,0.0,0.0,0.0,0.0,0.0,0.0,0.0,0.0,0.0,0.0,0.0,0.0,0.0,0.0,0.0,0.0,0.0,0.0,0.0,0.0,0.0,0.0,0.0,0.0,0.0,0.0,0.0,0.0,1.6195,1.6695,1.7699,1.9389,1.7683,1.666,0.0,0.0,0.0,0.0,0.0,0.0,0.0,0.0,0.0,0.0,0.0,0.0,0.0,0.0,0.0,0.0,0.0,0.0,0.0,0.0,0.0,0.0,0.0,0.0,0.0,0.0,0.0,0.0,0.0,0.0,0.0,0.0,0.0,0.0,0.0,0.0,0.0,0.0,0.0,0.0,0.0,0.0,0.0,0.0,0.0,0.0,0.0,0.0,0.0,0.0,0.0,0.0,0.0,0.0,0.0,0.0,0.0,0.0,0.0,0.0,0.0,0.0,0.0,0.0,0.0,0.0,0.0,0.0,0.0,0.0,0.0,0.0,0.0,0.0,0.0,0.0,0.0,0.0,0.0,0.0,0.0,0.0,0.0,0.0,0.0,0.0,0.0,0.0,0.0,0.0,0.0,0.0,0.0,0.0,0.0,0.0,0.0,0.0,0.0,0.0,0.0,0.0,0.0,0.0,0.0,0.0,0.0,0.0,0.0,1.5053,1.4162,1.451,1.6165,1.58,1.4484,0.0,0.0,0.0,0.0,0.0,0.0,0.0,0.0,0.0,0.0,0.0,0.0,0.0,0.0,0.0,0.0,0.0,0.0,0.0,0.0,0.0,0.0,0.0,0.0,0.0,0.0,0.0,0.0,0.0,0.0,0.0,0.0,0.0,0.0,0.0,0.0,0.0,0.0,0.0,0.0,0.0,0.0,0.0,0.0,0.0,0.0,0.0,0.0,0.0,0.0,0.0,0.0,0.0,0.0,0.0,0.0,0.0,0.0,0.0,0.0,0.0,0.0,0.0,0.0,0.0,0.0,0.0,0.0,0.0,0.0,0.0,0.0,0.0,0.0,0.0,0.0,0.0,0.0,0.0,0.0,0.0,0.0,0.0,0.0,0.0,0.0,0.0,0.0,0.0,0.0,0.0,0.0,0.0,0.0,0.0,0.0,0.0,0.0,0.0,0.0,0.0,0.0,0.0,0.0,0.0,0.0,0.0,0.0,0.0,1.1988,1.2232,1.2858,1.3966,1.3263,1.2506,1.1641,0.0,0.0,0.0,0.0,0.0,0.0,0.0,0.0,0.0,0.0,0.0,0.0,0.0,0.0,0.0,0.0,0.0,0.0,0.0,0.0,0.0,0.0,0.0,0.0,0.0,0.0,0.0,0.0,0.0,0.0,0.0,0.0,0.0,0.0,0.0,0.0,0.0,0.0,0.0,0.0,0.0,0.0,0.0,0.0,0.0,0.0,0.0,0.0,0.0,0.0,0.0,0.0,0.0,0.0,0.0,0.0,0.0,0.0,0.0,0.0,0.0,0.0,0.0,0.0,0.0,0.0,0.0,0.0,0.0,0.0,0.0,0.0,0.0,0.0,0.0,0.0,0.0,0.0,0.0,0.0,0.0,0.0,0.0,0.0,0.0,0.0,0.0,0.0,0.0,0.0,0.0,0.0,0.0,0.0,0.0,0.0,0.0,0.0,0.0,0.0,0.0,0.0,0.0,0.0,0.0,0.0,0.0,0.0,0.9841,1.0326,1.102,1.2055,1.1142,1.0729,0.0,0.0,0.0,0.0,0.0,0.0,0.0,0.0,0.0,0.0,0.0,0.0,0.0,0.0,0.0,0.0,0.0,0.0,0.0,0.0,0.0,0.0,0.0,0.0,0.0,0.0,0.0,0.0,0.0,0.0,0.0,0.0,0.0,0.0,0.0,0.0,0.0,0.0,0.0,0.0,0.0,0.0,0.0,0.0,0.0,0.0,0.0,0.0,0.0,0.0,0.0,0.0,0.0,0.0,0.0,0.0,0.0,0.0,0.0,0.0,0.0,0.0,0.0,0.0,0.0,0.0,0.0,0.0,0.0,0.0,0.0,0.0,0.0,0.0,0.0,0.0,0.0,0.0,0.0,0.0,0.0,0.0,0.0,0.0,0.0,0.0,0.0,0.0,0.0,0.0,0.0,0.0,0.0,0.0,0.0,0.0,0.0,0.0,0.0,0.0,0.0,0.0,0.0,0.0,0.0,0.0,0.0,0.0,0.6195,0.8785,0.8379,0.8957,1.058,0.9749,0.9306,0.0,0.0,0.0,0.0,0.0,0.0,0.0,0.0,0.0,0.0,0.0,0.0,0.0,0.0,0.0,0.0,0.0,0.0,0.0,0.0,0.0,0.0,0.0,0.0,0.0,0.0,0.0,0.0,0.0,0.0,0.0,0.0,0.0,0.0,0.0,0.0,0.0,0.0,0.0,0.0,0.0,0.0,0.0,0.0,0.0,0.0,0.0,0.0,0.0,0.0,0.0,0.0,0.0,0.0,0.0,0.0,0.0,0.0,0.0,0.0,0.0,0.0,0.0,0.0,0.0,0.0,0.0,0.0,0.0,0.0,0.0,0.0,0.0,0.0,0.0,0.0,0.0,0.0,0.0,0.0,0.0,0.0,0.0,0.0,0.0,0.0,0.0,0.0,0.0,0.0,0.0,0.0,0.0,0.0,0.0,0.0,0.0,0.0,0.0,0.0,0.0,0.0,0.0,0.0,0.0,0.0,0.0,0.0,0.0,0.666,0.7434,0.8234,0.9076,0.9012,0.9087,0.0,0.0,0.0,0.0,0.0,0.0,0.0,0.0,0.0,0.0,0.0,0.0,0.0,0.0,0.0,0.0,0.0,0.0,0.0,0.0,0.0,0.0,0.0,0.0,0.0,0.0,0.0,0.0,0.0,0.0,0.0,0.0,0.0,0.0,0.0,0.0,0.0,0.0,0.0,0.0,0.0,0.0,0.0,0.0,0.0,0.0,0.0,0.0,0.0,0.0,0.0,0.0,0.0,0.0,0.0,0.0,0.0,0.0,0.0,0.0,0.0,0.0,0.0,0.0,0.0,0.0,0.0,0.0,0.0,0.0,0.0,0.0,0.0,0.0,0.0,0.0,0.0,0.0,0.0,0.0,0.0,0.0,0.0,0.0,0.0,0.0,0.0,0.0,0.0,0.0,0.0,0.0,0.0,0.0,0.0,0.0,0.0,0.0,0.0,0.0,0.0,0.0,0.0,0.0,0.0,0.0,0.0,0.0,0.0,0.5484,0.6659,0.7569,0.8219,0.8602,0.8839,0.0,0.0,0.0,0.0,0.0,0.0,0.0,0.0,0.0,0.0,0.0,0.0,0.0,0.0,0.0,0.0,0.0,0.0,0.0,0.0,0.0,0.0,0.0,0.0,0.0,0.0,0.0,0.0,0.0,0.0,0.0,0.0,0.0,0.0,0.0,0.0,0.0,0.0,0.0,0.0,0.0,0.0,0.0,0.0,0.0,0.0,0.0,0.0,0.0,0.0,0.0,0.0,0.0,0.0,0.0,0.0,0.0,0.0,0.0,0.0,0.0,0.0,0.0,0.0,0.0,0.0,0.0,0.0,0.0,0.0,0.0,0.0,0.0,0.0,0.0,0.0,0.0,0.0,0.0,0.0,0.0,0.0,0.0,0.0,0.0,0.0,0.0,0.0,0.0,0.0,0.0,0.0,0.0,0.0,0.0,0.0,0.0,0.0,0.0,0.0,0.0,0.0,0.0,0.0,0.0,0.0,0.0,0.0,0.0,0.5231,0.5997,0.6869,0.7883,0.831,0.8536,0.0,0.0,0.0,0.0,0.0,0.0,0.0,0.0,0.0,0.0,0.0,0.0,0.0,0.0,0.0,0.0,0.0,0.0,0.0,0.0,0.0,0.0,0.0,0.0,0.0,0.0,0.0,0.0,0.0,0.0,0.0,0.0,0.0,0.0,0.0,0.0,0.0,0.0,0.0,0.0,0.0,0.0,0.0,0.0,0.0,0.0,0.0,0.0,0.0,0.0,0.0,0.0,0.0,0.0,0.0,0.0,0.0,0.0,0.0,0.0,0.0,0.0,0.0,0.0,0.0,0.0,0.0,0.0,0.0,0.0,0.0,0.0,0.0,0.0,0.0,0.0,0.0,0.0,0.0,0.0,0.0,0.0,0.0,0.0,0.0,0.0,0.0,0.0,0.0,0.0,0.0,0.0,0.0,0.0,0.0,0.0,0.0,0.0,0.0,0.0,0.0,0.0,0.0,0.0,0.0,0.0,0.0,0.0,0.0,0.0,0.5552,0.6182,0.6932,0.7615,0.7927,0.7835,0.0,0.0,0.0,0.0,0.0,0.0,0.0,0.0,0.0,0.0,0.0,0.0,0.0,0.0,0.0,0.0,0.0,0.0,0.0,0.0,0.0,0.0,0.0,0.0,0.0,0.0,0.0,0.0,0.0,0.0,0.0,0.0,0.0,0.0,0.0,0.0,0.0,0.0,0.0,0.0,0.0,0.0,0.0,0.0,0.0,0.0,0.0,0.0,0.0,0.0,0.0,0.0,0.0,0.0,0.0,0.0,0.0,0.0,0.0,0.0,0.0,0.0,0.0,0.0,0.0,0.0,0.0,0.0,0.0,0.0,0.0,0.0,0.0,0.0,0.0,0.0,0.0,0.0,0.0,0.0,0.0,0.0,0.0,0.0,0.0,0.0,0.0,0.0,0.0,0.0,0.0,0.0,0.0,0.0,0.0,0.0,0.0,0.0,0.0,0.0,0.0,0.0,0.0,0.0,0.0,0.0,0.0,0.0,0.0,0.0,0.5653,0.6206,0.6846,0.7088,0.0,0.0,0.0,0.0,0.0,0.0,0.0,0.0,0.0,0.0,0.0,0.0,0.0,0.0,0.0,0.0,0.0,0.0,0.0,0.0,0.0,0.0,0.0,0.0,0.0,0.0,0.0,0.0,0.0,0.0,0.0,0.0,0.0,0.0,0.0,0.0,0.0,0.0,0.0,0.0,0.0,0.0,0.0,0.0,0.0,0.0,0.0,0.0,0.0,0.0,0.0,0.0,0.0,0.0,0.0,0.0,0.0,0.0,0.0,0.0,0.0,0.0,0.0,0.0,0.0,0.0,0.0,0.0,0.0,0.0,0.0,0.0,0.0,0.0,0.0,0.0,0.0,0.0,0.0,0.0,0.0,0.0,0.0,0.0,0.0,0.0,0.0,0.0,0.0,0.0,0.0,0.0,0.0,0.0,0.0,0.0,0.0,0.0,0.0,0.0,0.0,0.0,0.0,0.0,0.0,0.0,0.0,0.0,0.0,0.0,0.0,0.5139,0.5509,0.5889,0.0,0.5974,0.0,0.0,0.0,0.0,0.0,0.0,0.0,0.0,0.0,0.0,0.0,0.0,0.0,0.0,0.0,0.0,0.0,0.0,0.0,0.0,0.0,0.0,0.0,0.0,0.0,0.0,0.0,0.0,0.0,0.0,0.0,0.0,0.0,0.0,0.0,0.0,0.0,0.0,0.0,0.0,0.0,0.0,0.0,0.0,0.0,0.0,0.0,0.0,0.0,0.0,0.0,0.0,0.0,0.0,0.0,0.0,0.0,0.0,0.0,0.0,0.0,0.0,0.0,0.0,0.0,0.0,0.0,0.0,0.0,0.0,0.0,0.0,0.0,0.0,0.0,0.0,0.0,0.0,0.0,0.0,0.0,0.0,0.0,0.0,0.0,0.0,0.0,0.0,0.0,0.0,0.0,0.0,0.0,0.0,0.0,0.0,0.0,0.0,0.0,0.0,0.0,0.0,0.0,0.0,0.0,0.0,0.0,0.0,0.0,0.0,0.0,0.0,0.5008,0.5265,0.5364,0.0,0.0,0.0,0.0,0.0,0.0,0.0,0.0,0.0,0.0,0.0,0.0,0.0,0.0,0.0,0.0,0.0,0.0,0.0,0.0,0.0,0.0,0.0,0.0,0.0,0.0,0.0,0.0,0.0,0.0,0.0,0.0,0.0,0.0,0.0,0.0,0.0,0.0,0.0,0.0,0.0,0.0,0.0,0.0,0.0,0.0,0.0,0.0,0.0,0.0,0.0,0.0,0.0,0.0,0.0,0.0,0.0,0.0,0.0,0.0,0.0,0.0,0.0,0.0,0.0,0.0,0.0,0.0,0.0,0.0,0.0,0.0,0.0,0.0,0.0,0.0,0.0,0.0,0.0,0.0,0.0,0.0,0.0,0.0,0.0,0.0,0.0,0.0,0.0,0.0,0.0,0.0,0.0,0.0,0.0,0.0,0.0,0.0,0.0,0.0,0.0,0.0,0.0,0.0,0.0,0.0,0.0,0.0,0.0,0.0,0.3857,0.3941,0.3298,0.2779,0.247,0.0,0.0,0.0,0.0,0.0,0.0,0.0,0.0,0.0,0.0,0.0,0.0,0.0,0.0,0.0,0.0,0.0,0.0,0.0,0.0,0.0,0.0,0.0,0.0,0.0,0.0,0.0,0.0,0.0,0.0,0.0,0.0,0.0,0.0,0.0,0.0,0.0,0.0,0.0,0.0,0.0,0.0,0.0,0.0,0.0,0.0,0.0,0.0,0.0,0.0,0.0,0.0,0.0,0.0,0.0,0.0,0.0,0.0,0.0,0.0,0.0,0.0,0.0,0.0,0.0,0.0,0.0,0.0,0.0,0.0,0.0,0.0,0.0,0.0,0.0,0.0,0.0,0.0,0.0,0.0,0.0,0.0,0.0,0.0,0.0,0.0,0.0,0.0,0.0,0.0,0.0,0.0,0.0,0.0,0.0,0.0,0.0,0.0,0.0,0.0,0.0,0.0,0.0,0.0,0.0,0.0,0.0,0.0,0.0,0.0,0.3218,0.0,0.0,0.0,-0.1128,0.0,0.0,0.0,0.0,0.0,0.0,0.0,0.0,0.0,0.0,0.0,0.0,0.0,0.0,0.0,0.0,0.0,0.0,0.0,0.0,0.0,0.0,0.0,0.0,0.0,0.0,0.0,0.0,0.0,0.0,0.0,0.0,0.0,0.0,0.0,0.0,0.0,0.0,0.0,0.0,0.0,0.0,0.0,0.0,0.0,0.0,0.0,0.0,0.0,0.0,0.0,0.0,0.0,0.0,0.0,0.0,0.0,0.0,0.0,0.0,0.0,0.0,0.0,0.0,0.0,0.0,0.0,0.0,0.0,0.0,0.0,0.0,0.0,0.0,0.0,0.0,0.0,0.0,0.0,0.0,0.0,0.0,0.0,0.0,0.0,0.0,0.0,0.0,0.0,0.0,0.0,0.0,0.0,0.0,0.0,0.0,0.0,0.0,0.0,0.0,0.0,0.0,0.0,0.0,0.0,0.0,0.0,0.0,0.0,0.0,0.0,0.0,0.0,0.0,0.0,0.0,0.0,0.0,0.0,0.0,0.0,0.0,0.0,0.0,0.0,0.0,0.0,0.0,0.0,0.0,0.0,0.0,0.0,0.0,0.0,0.0,0.0,0.0,0.0,0.0,0.0,0.0,0.0,0.0,0.0,0.0,0.0,0.0,0.0,0.0,0.0,0.0,0.0,0.0,0.0,0.0,0.0,0.0,0.0,0.0,0.0,0.0,0.0,0.0,0.0,0.0,0.0,0.0,0.0,0.0,0.0,0.0,0.0,0.0,0.0,0.0,0.0,0.0,0.0,0.0,0.0,0.0,0.0,0.0,0.0,0.0,0.0,0.0,0.0,0.0,0.0,0.0,0.0,0.0,0.0,0.0,0.0,0.0,0.0,0.0,0.0,0.0,0.0,0.0,0.0,0.0,0.0,0.0,0.0,0.0,0.0,0.0,0.0,0.0,0.0,0.0,0.0,0.0,0.0,0.0,0.0,0.0,0.0,0.0,0.0,0.0,0.0,0.0,0.0,0.0,0.0,0.0,0.0,0.0,0.0,0.0,0.0,0.0,0.0,0.0,0.0,0.0,0.0,0.0,0.0,0.0,0.0,0.0,0.0,0.0,0.0,0.0,0.0,0.0,0.0,0.0,0.0,0.0,0.0,0.0,0.0,0.0,0.0,0.0,0.0,0.0,0.0,0.0,0.0,0.0,0.0,0.0,0.0,0.0,0.0,0.0,0.0,0.0,0.0,0.0,0.0,0.0,0.0,0.0,0.0,0.0,0.0,0.0,0.0,0.0,0.0,0.0,0.0,0.0,0.0,0.0,0.0,0.0,0.0,0.0,0.0,0.0,0.0,0.0,0.0,0.0,0.0,0.0,0.0,0.0,0.0,0.0,0.0,0.0,0.0,0.0,0.0,0.0,0.0,0.0,0.0,0.0,0.0,0.0,0.0,0.0,0.0,0.0,0.0,0.0,0.0,0.0,0.0,0.0,0.0,0.0,0.0,0.0,0.0,0.0,0.0,0.0,0.0,0.0,0.0,0.0,0.0,0.0,0.0,0.0,0.0,0.0,0.0,0.0,0.0,0.0,0.0,0.0,0.0,0.0,0.0,0.0,0.0,0.0,0.0,0.0,0.0,0.0,0.0,0.0,0.0,0.0,0.0,0.0,0.0,0.0,0.0,0.0,0.0,0.0,0.0,0.0,0.0,0.0,0.0,0.0,0.0,0.0,0.0,0.0,0.0,0.0,0.0,0.0,0.0,0.0,0.0,0.0,0.0,0.0,0.0,0.0,0.0,0.0,0.0,0.0,0.0,0.0,0.0,0.0,0.0,0.0,0.0,0.0,0.0,0.0,0.0,0.0,0.0,0.0,0.0,0.0,0.0,0.0,0.0,0.0,0.0,0.0,0.0,0.0,0.0,0.0,0.0,0.0,0.0,0.0,0.0,0.0,0.0,0.0,0.0,0.0,0.0,0.0,0.0,0.0,0.0,0.0,0.0,0.0,0.0,0.0,0.0,0.0,0.0,0.0,0.0,0.0,0.0,0.0,0.0,0.0,0.0,0.0,0.0,0.0,0.0,0.0,0.0,0.0,0.0,0.0,0.0,0.0,0.0,0.0,0.0,0.0,0.0,0.0,0.0,0.0,0.0,0.0,0.0,0.0,0.0,0.0,0.0,0.0,0.0,0.0,0.0,0.0,0.0,0.0,0.0,0.0,0.0,0.0,0.0,0.0,0.0,0.0,0.0,0.0,0.0,0.0,0.0,0.0,0.0,0.0,0.0,0.0,0.0,0.0,0.0,0.0,0.0,0.0,0.0,0.0,0.0,0.0,0.0,0.0,0.0,0.0,0.0,0.0,0.0,0.0,0.0,0.0,0.0,0.0,0.0,0.0,0.0,0.0,0.0,0.0,0.0,0.0,0.0,0.0,0.0,0.0,0.0,0.0,0.0,0.0,0.0,0.0,0.0,0.0,0.0,0.0,0.0,0.0,0.0,0.0,0.0,0.0,0.0,0.0,0.0,0.0,0.0,0.0,0.0,0.0,0.0,0.0,0.0,0.0,0.0,0.0,0.0,0.0,0.0,0.0,0.0,0.0,0.0,0.0,0.0,0.0,0.0,0.0,0.0,0.0,0.0,0.0,0.0,0.0,0.0,0.0,0.0,0.0,0.0,0.0,0.0,0.0,0.0,0.0,0.0,0.0,0.0,0.0,0.0,0.0,0.0,0.0,0.0,0.0,0.0,0.0,0.0,0.0,0.0,0.0,0.0,0.0,0.0,0.0,0.0,0.0,0.0,0.0,0.0,0.0,0.0,0.0,0.0,0.0,0.0,0.0,0.0,0.0,0.0,0.0,0.0,0.0,0.0,0.0,0.0,0.0,0.0,0.0,0.0,0.0,0.0,0.0,0.0,0.0,0.0,0.0,0.0,0.0,0.0,0.0,0.0,0.0,0.0,0.0,0.0,0.0,0.0,0.0,0.0,0.0,0.0,0.0,0.0,0.0,0.0,0.0,0.0,0.0,0.0,0.0,0.0,0.0,0.0,0.0,0.0,0.0,0.0,0.0,0.0,0.0,0.0,0.0,0.0,0.0,0.0,0.0,0.0,0.0,0.0,0.0,0.0,0.0,0.0,0.0,0.0,0.0,0.0,0.0,0.0,0.0,0.0,0.0,0.0,0.0,0.0,0.0,0.0,0.0,0.0,0.0,0.0,0.0,0.0,0.0,0.0,0.0,0.0,0.0,0.0,0.0,0.0,0.0,0.0,0.0,0.0,0.0,0.0,0.0,0.0,0.0,0.0,0.0,0.0,0.0,0.0,0.0,0.0,0.0,0.0,0.0,0.0,0.0,0.0,0.0,0.0,0.0,0.0,0.0,0.0,0.0,0.0,0.0,0.0,0.0,0.0,0.0,0.0,0.0,0.0,0.0,0.0,0.0,0.0,0.0,0.0,0.0,0.0,0.0,0.0,0.0,0.0,0.0,0.0,0.0,0.0,0.0,0.0,0.0,0.0,0.0,0.0,0.0,0.0,0.0,0.0,0.0,0.0,0.0,0.0,0.0,0.0,0.0,0.0,0.0,0.0,0.0,0.0,0.0,0.0,0.0,0.0,0.0,0.0,0.0,0.0,0.0,0.0,0.0,0.0,0.0,0.0,0.0,0.0,0.0,0.0,0.0,0.0,0.0,0.0,0.0,0.0,0.0,0.0,0.0,0.0,0.0,0.0,0.0,0.0,0.0,0.0,0.0,0.0,0.0,0.0,0.0,0.0,0.0,0.0,0.0,0.0,0.0,0.0,0.0,0.0,0.0,0.0,0.0,0.0,0.0,0.0,0.0,0.0,0.0,0.0,0.0,0.0,0.0,0.0,0.0,0.0,0.0,0.0,0.0,0.0,0.0,0.0,0.0,0.0,0.0,0.0,0.0,0.0,0.0,0.0,0.0,0.0,0.0,0.0,0.0,0.0,0.0,0.0,0.0,0.0,0.0,0.0,0.0,0.0,0.0,0.0,0.0,0.0,0.0,0.0,0.0,0.0,0.0,0.0,0.0,0.0,0.0,0.0,0.0,0.0,0.0,0.0,0.0,0.0,0.0,0.0,0.0,0.0,0.0,0.0,0.0,0.0,0.0,0.0,0.0,0.0,0.0,0.0,0.0,0.0,0.0,0.0,0.0,0.0,0.0,0.0,0.0,0.0,0.0,0.0,0.0,0.0,0.0,0.0,0.0,0.0,0.0,0.0,0.0,0.0,0.0,0.0,0.0,0.0,0.0,0.0,0.0,0.0,0.0,0.0,0.0,0.0,0.0,0.0,0.0,0.0,0.0,0.0,0.0,0.0,0.0,0.0,0.0,0.0,0.0,0.0,0.0,0.0,0.0,0.0,0.0]}],[{"header":{"parameterUnit":"kt","parameterCategory":2,"dx":1,"dy":1,"la1":29.587661999999998,"la2":31.0,"lo1":-88.76705300000003,"lo2":-86.6583820000003,"nx":115,"ny":88,"refTime":"2022-10-30T00:00:00:Z","depth":0,"parameterNumber":2,"parameterNumberName":"V-component_of_WINDS"},"data":[-7.3793,-7.477,-7.5836,-7.8746,-8.2509,-8.3825,-8.545,-8.7087,-8.7018,-8.613,-8.5207,-8.4601,-8.4598,-8.5834,-8.4316,-8.3573,-8.361,-8.3573,-8.35,-8.3465,-8.3391,-8.2371,-8.1102,-8.008,-7.9902,-7.9022,-7.8075,-7.7585,-7.7481,-7.6641,-7.6009,-7.5344,-7.4182,-7.3576,-7.2561,-7.2303,-7.1933,-7.0303,-6.9288,-6.8626,-6.7529,-6.6896,-6.6396,-6.5315,-6.3894,-6.2535,-6.1555,-6.1272,-6.1238,-6.1352,-6.1709,-6.2595,-6.2847,-6.281,-6.246,-6.271,-6.1911,-6.1478,-6.1305,-6.1345,-6.1312,-6.1345,-6.1049,-6.0866,-6.0941,-6.0748,-6.0705,-6.0629,-6.0629,-6.0629,-6.1166,-6.0968,-6.091,-6.1924,-6.2515,-6.4556,-6.6766,-6.8237,-6.9232,-6.9276,-6.9046,-6.869,-6.8023,-6.734,-6.6961,-6.6577,-6.5925,-6.5326,-6.4921,-6.4716,-6.451,-6.4291,-6.4098,-6.372,-6.3447,-6.328,-6.355,-6.3627,-6.3764,-6.3537,-6.3447,-6.3539,-6.3764,-6.4469,-6.5541,-6.6871,-6.7655,-6.8215,-6.8733,-6.9305,-6.9083,-6.8986,-6.8986,-6.8986,-6.9015,-7.4289,-7.3704,-7.5485,-7.8391,-8.1668,-8.3676,-8.6051,-8.8405,-8.8834,-8.8513,-8.7691,-8.6592,-8.652,-8.6058,-8.4888,-8.425,-8.3825,-8.3718,-8.3681,-8.3681,-8.35,-8.2617,-8.1807,-8.1172,-8.0819,-8.0253,-7.9867,-7.9376,-7.8464,-7.706,-7.5623,-7.4295,-7.3873,-7.376,-7.3592,-7.3217,-7.2176,-7.0469,-6.9919,-6.9144,-6.8261,-6.7479,-6.711,-6.6061,-6.4504,-6.2876,-6.177,-6.1345,-6.157,-6.1927,-6.2447,-6.2957,-6.3045,-6.3684,-6.3401,-6.2618,-6.1818,-6.1591,-6.1345,-6.1305,-6.1272,-6.1198,-6.0824,-6.0748,-6.0899,-6.0824,-6.0705,-6.0629,-6.0629,-6.0859,-6.166,-6.2022,-6.1853,-6.2121,-6.2548,-6.3477,-6.581,-6.8042,-6.8675,-6.9244,-6.9013,-6.8869,-6.8206,-6.734,-6.6866,-6.6481,-6.5925,-6.5225,-6.4747,-6.4644,-6.4541,-6.4321,-6.4037,-6.3826,-6.3614,-6.3748,-6.4199,-6.4337,-6.4241,-6.3455,-6.3078,-6.3536,-6.3923,-6.4022,-6.4423,-6.5761,-6.6622,-6.7823,-6.8369,-6.8995,-6.8928,-6.8986,-6.8986,-6.8986,-6.8986,-7.3702,-7.3323,-7.4673,-7.6693,-7.9222,-8.2363,-8.4438,-8.6124,-8.8464,-8.9506,-8.9115,-8.7211,-8.6356,-8.6552,-8.5129,-8.4211,-8.4002,-8.3932,-8.3896,-8.3788,-8.3575,-8.2901,-8.2723,-8.2476,-8.1876,-8.1065,-8.0889,-8.0187,-7.8605,-7.7198,-7.6113,-7.5172,-7.4083,-7.328,-7.2071,-7.2347,-7.1673,-7.0042,-7.0662,-6.9721,-6.8061,-6.8485,-6.8518,-6.6698,-6.5148,-6.3585,-6.2377,-6.1525,-6.1564,-6.1852,-6.2448,-6.2652,-6.3599,-6.3883,-6.3389,-6.2666,-6.1892,-6.1491,-6.1231,-6.1157,-6.1231,-6.1049,-6.0748,-6.0705,-6.0857,-6.0748,-6.0629,-6.0794,-6.0794,-6.1648,-6.245,-6.3029,-6.3001,-6.2644,-6.2792,-6.3426,-6.5183,-6.7279,-6.8303,-6.8839,-6.9003,-6.8827,-6.8185,-6.7332,-6.6866,-6.6481,-6.5527,-6.4849,-6.4747,-6.4716,-6.4541,-6.4364,-6.4126,-6.3916,-6.4142,-6.4547,-6.492,-6.4991,-6.4951,-6.4699,-6.4683,-6.4345,-6.4207,-6.4943,-6.5474,-6.5798,-6.6529,-6.7895,-6.8579,-6.8869,-6.8957,-6.8986,-6.8986,-6.8986,-6.8859,-7.3043,-7.3184,-7.3837,-7.5216,-7.7238,-8.0764,-8.2773,-8.3914,-8.7065,-8.8137,-8.8148,-8.6596,-8.5977,-8.6447,-8.5211,-8.4655,-8.428,-8.4247,-8.4038,-8.4002,-8.3788,-8.3469,-8.3467,-8.3148,-8.2652,-8.1843,-8.1103,-8.0434,-7.9273,-7.7618,-7.6319,-7.5414,-7.4641,-7.3385,-7.2106,-7.2135,-7.1487,-6.9816,-7.0517,-7.0418,-6.9529,-7.0024,-6.9685,-6.7613,-6.5927,-6.4394,-6.2692,-6.1745,-6.1305,-6.1452,-6.2065,-6.2989,-6.425,-6.316,-6.2877,-6.2914,-6.225,-6.1698,-6.1378,-6.1305,-6.1231,-6.1049,-6.0824,-6.0781,-6.0629,-6.0629,-6.0728,-6.0925,-6.1385,-6.2405,-6.326,-6.3756,-6.41,-6.3576,-6.3216,-6.3979,-6.474,-6.6377,-6.7954,-6.8489,-6.8839,-6.8565,-6.8127,-6.7474,-6.6992,-6.6189,-6.5326,-6.4747,-6.4747,-6.4828,-6.4682,-6.4456,-6.4156,-6.4446,-6.5035,-6.5451,-6.581,-6.5885,-6.5605,-6.5939,-6.6414,-6.5737,-6.4945,-6.5768,-6.6351,-6.6529,-6.6994,-6.8121,-6.8608,-6.8898,-6.8986,-6.8986,-6.8986,-6.7976,-6.8218,-7.3043,-7.3149,-7.3149,-7.4575,-7.6996,-7.9388,-8.2076,-8.4958,-8.401,-8.4054,-8.474,-8.5257,-8.5633,-8.5707,-8.5482,-8.5048,-8.4788,-8.4453,-8.4247,-8.4283,-8.4002,-8.3753,-8.3645,-8.3538,-8.3183,-8.2687,-8.1807,-8.0364,-7.9836,-7.783,-7.5542,-7.445,-7.4138,-7.3662,-7.2663,-7.2618,-7.1624,-7.0287,-7.0808,-7.1375,-7.1395,-7.1259,-7.0774,-6.8541,-6.6819,-6.5282,-6.3246,-6.1825,-6.0899,-6.1345,-6.178,-6.2135,-6.2716,-6.2378,-6.2378,-6.227,-6.2091,-6.1709,-6.1564,-6.1418,-6.1272,-6.1124,-6.0974,-6.0824,-6.0705,-6.0629,-6.1057,-6.1353,-6.2865,-6.3983,-6.4016,-6.4395,-6.4395,-6.4001,-6.3802,-6.422,-6.4882,-6.5856,-6.7169,-6.7778,-6.8183,-6.8225,-6.773,-6.7111,-6.6577,-6.5992,-6.5326,-6.4747,-6.4694,-6.4927,-6.4687,-6.443,-6.443,-6.4673,-6.5445,-6.6072,-6.6398,-6.6501,-6.6062,-6.6385,-6.6761,-6.6322,-6.568,-6.6295,-6.7027,-6.7053,-6.7345,-6.7626,-6.82,-6.8453,-6.8559,-6.8772,-6.7976,-6.6722,-6.6708,-7.3043,-7.3043,-7.3043,-7.3742,-7.5229,-7.7453,-7.9199,-8.047,-8.0441,-8.1199,-8.2415,-8.3052,-8.3743,-8.4429,-8.5033,-8.5158,-8.504,-8.4578,-8.4381,-8.4313,-8.4213,-8.3967,-8.3896,-8.3718,-8.3575,-8.2586,-8.1386,-7.9871,-7.878,-7.6774,-7.4951,-7.3975,-7.3873,-7.3566,-7.3184,-7.2653,-7.1761,-7.1503,-7.1378,-7.1685,-7.183,-7.1761,-7.0833,-6.9169,-6.7183,-6.551,-6.3627,-6.1583,-6.088,-6.0899,-6.1305,-6.1742,-6.2205,-6.2171,-6.2171,-6.2171,-6.2031,-6.1923,-6.178,-6.1531,-6.1491,-6.1272,-6.1016,-6.0824,-6.0738,-6.0892,-6.1385,-6.1944,-6.3851,-6.5232,-6.5035,-6.4871,-6.4641,-6.4443,-6.4571,-6.461,-6.5142,-6.5648,-6.6417,-6.7122,-6.7349,-6.7511,-6.7227,-6.6739,-6.609,-6.5726,-6.5287,-6.5023,-6.5171,-6.5448,-6.5458,-6.4871,-6.4795,-6.5174,-6.5692,-6.6393,-6.7034,-6.7503,-6.7053,-6.6804,-6.689,-6.6841,-6.6664,-6.7082,-6.7613,-6.8082,-6.8427,-6.8267,-6.7622,-6.7457,-6.7462,-6.7407,-6.6676,-6.5648,-6.5555,-7.3043,-7.3043,-7.3043,-7.3289,-7.3774,-7.5291,-7.6331,-7.7016,-7.748,-7.8481,-8.0173,-8.0749,-8.1484,-8.2562,-8.4185,-8.4287,-8.4305,-8.4346,-8.4226,-8.4132,-8.4031,-8.3821,-8.3682,-8.3648,-8.3471,-8.2305,-8.0611,-7.899,-7.8146,-7.5753,-7.4213,-7.3873,-7.3904,-7.3566,-7.3184,-7.2649,-7.2469,-7.2287,-7.2098,-7.2242,-7.2316,-7.2316,-7.1578,-7.0403,-6.8626,-6.6836,-6.4988,-6.3026,-6.1745,-6.1331,-6.1345,-6.167,-6.2275,-6.2171,-6.2138,-6.2138,-6.2068,-6.1997,-6.1818,-6.1603,-6.1491,-6.1345,-6.1546,-6.1253,-6.1144,-6.143,-6.1944,-6.2339,-6.3424,-6.4377,-6.4542,-6.4772,-6.4854,-6.5228,-6.5908,-6.5748,-6.5509,-6.6199,-6.6957,-6.7403,-6.6641,-6.6679,-6.6131,-6.572,-6.5857,-6.562,-6.5526,-6.5625,-6.586,-6.6514,-6.65,-6.5247,-6.5266,-6.5934,-6.6535,-6.6965,-6.7832,-6.8333,-6.791,-6.7506,-6.7417,-6.733,-6.7515,-6.7859,-6.8187,-6.8654,-6.9121,-6.8247,-6.7221,-6.6878,-6.6506,-6.6098,-6.5571,-6.4973,-6.4681,-7.3043,-7.3043,-7.3043,-7.3184,-7.322,-7.3393,-7.4108,-7.5169,-7.5764,-7.6472,-7.7369,-7.8962,-7.9764,-8.026,-8.2435,-8.2773,-8.1942,-8.3801,-8.3379,-8.2977,-8.3202,-8.285,-8.2819,-8.3112,-8.2691,-8.1523,-8.0113,-7.8777,-7.8287,-7.5678,-7.4369,-7.4299,-7.4134,-7.3869,-7.3358,-7.2976,-7.28,-7.2693,-7.2549,-7.2408,-7.2684,-7.2863,-7.2331,-7.1453,-6.9993,-6.8197,-6.641,-6.463,-6.3277,-6.233,-6.1893,-6.2171,-6.231,-6.2413,-6.2482,-6.2448,-6.2312,-6.207,-6.1964,-6.1852,-6.167,-6.1438,-6.2165,-6.1957,-6.1935,-6.2734,-6.2865,-6.2997,-6.2405,-6.326,-6.3819,-6.4034,-6.4362,-6.5163,-6.6051,-6.6398,-6.594,-6.6602,-6.7355,-6.7328,-6.6473,-6.5848,-6.5438,-6.5397,-6.562,-6.5526,-6.5791,-6.5906,-6.6144,-6.6879,-6.6656,-6.55,-6.5892,-6.6747,-6.7258,-6.7767,-6.8304,-6.8462,-6.8211,-6.7803,-6.7692,-6.7564,-6.7659,-6.7853,-6.8511,-6.8559,-6.8334,-6.7564,-6.6754,-6.6359,-6.5927,-6.545,-6.4452,-6.3989,-6.3849,-7.3043,-7.3043,-7.3043,-7.3114,-7.3114,-7.3114,-7.3463,-7.4228,-7.5217,-7.5988,-7.6825,-7.8438,-7.9267,-7.9787,-8.1108,-8.1435,-8.1307,-8.205,-8.1404,-8.123,-8.1569,-8.1327,-8.1383,-8.1791,-8.1763,-8.049,-7.9399,-7.8525,-7.7613,-7.5392,-7.4504,-7.4463,-7.4399,-7.4169,-7.3655,-7.2901,-7.2522,-7.2907,-7.2489,-7.2211,-7.2799,-7.29,-7.2757,-7.2051,-7.0796,-6.8963,-6.7211,-6.5394,-6.3546,-6.2183,-6.157,-6.1531,-6.1124,-6.1001,-6.1019,-6.1494,-6.1598,-6.1396,-6.1865,-6.1923,-6.167,-6.1397,-6.2088,-6.2405,-6.2681,-6.3821,-6.3788,-6.2819,-6.155,-6.1648,-6.178,-6.1747,-6.205,-6.2482,-6.3686,-6.5217,-6.5343,-6.6469,-6.7276,-6.7087,-6.6548,-6.5911,-6.542,-6.5465,-6.5455,-6.5687,-6.6043,-6.5963,-6.6046,-6.6433,-6.6423,-6.6094,-6.6363,-6.7129,-6.7733,-6.8308,-6.8658,-6.8569,-6.8206,-6.7764,-6.7535,-6.685,-6.7378,-6.7848,-6.7457,-6.7255,-6.7264,-6.6913,-6.6067,-6.5534,-6.5293,-6.4507,-6.3432,-6.3225,-6.3175,-7.3043,-7.3043,-7.3043,-7.3149,-7.3289,-7.3149,-7.3359,-7.3869,-7.4734,-7.5471,-7.6313,-7.7427,-7.8163,-7.8672,-7.9477,-7.9931,-7.9731,-7.9524,-7.9928,-7.9703,-8.0093,-7.971,-8.0013,-8.082,-8.1187,-7.9846,-7.9222,-7.849,-7.7359,-7.5352,-7.4639,-7.4555,-7.4618,-7.4555,-7.411,-7.3335,-7.2379,-7.294,-7.2488,-7.2003,-7.2799,-7.2794,-7.2649,-7.2649,-7.1384,-7.0076,-6.8779,-6.6773,-6.4957,-6.3427,-6.1703,-6.1491,-6.1258,-6.0991,-6.1013,-6.1492,-6.1803,-6.1465,-6.1972,-6.196,-6.1709,-6.1936,-6.2474,-6.3358,-6.3227,-6.4476,-6.4264,-6.318,-6.1484,-6.0794,-6.0991,-6.1188,-6.1283,-6.1619,-6.2786,-6.4213,-6.4891,-6.6003,-6.6738,-6.6642,-6.6384,-6.5701,-6.534,-6.5326,-6.5416,-6.5705,-6.6224,-6.6333,-6.6403,-6.6637,-6.6297,-6.6249,-6.6763,-6.7387,-6.8278,-6.926,-6.9699,-6.8937,-6.8362,-6.7779,-6.6777,-6.5981,-6.6251,-6.6862,-6.6365,-6.5845,-6.5911,-6.5939,-6.5312,-6.4833,-6.448,-6.3848,-6.3405,-6.3168,-6.2931,-7.3114,-7.3114,-7.3114,-7.3289,-7.3532,-7.3219,-7.3393,-7.3834,-7.4193,-7.4846,-7.5732,-7.6006,-7.6169,-7.6692,-7.7885,-7.7885,-7.7469,-7.8869,-7.9177,-7.8422,-7.8735,-7.8698,-7.904,-7.9763,-8.0243,-7.9592,-7.8934,-7.8553,-7.8309,-7.5693,-7.4759,-7.4769,-7.4831,-7.4831,-7.4574,-7.4058,-7.363,-7.3324,-7.3115,-7.2732,-7.2831,-7.2722,-7.2684,-7.2611,-7.2081,-7.1222,-6.9815,-6.7878,-6.5986,-6.4245,-6.249,-6.1525,-6.143,-6.1163,-6.1214,-6.18,-6.2211,-6.2482,-6.2788,-6.231,-6.1818,-6.1611,-6.2948,-6.3668,-6.3851,-6.5561,-6.6745,-6.3621,-6.1616,-6.0761,-6.1341,-6.2129,-6.2041,-6.2415,-6.3793,-6.4859,-6.4637,-6.5186,-6.5751,-6.5965,-6.5763,-6.5427,-6.5225,-6.4993,-6.5126,-6.5511,-6.6333,-6.6871,-6.702,-6.6859,-6.5943,-6.614,-6.6942,-6.7891,-6.8992,-7.0006,-7.021,-6.9283,-6.8334,-6.7491,-6.6631,-6.5845,-6.5714,-6.5807,-6.5648,-6.5215,-6.508,-6.4918,-6.4772,-6.4616,-6.4123,-6.3848,-6.3655,-6.3383,-6.3168,-7.322,-7.322,-7.322,-7.3254,-7.3289,-7.3428,-7.3601,-7.377,-7.3901,-7.4511,-7.5298,-7.5676,-7.597,-7.6239,-7.6764,-7.6385,-7.6619,-7.6926,-7.6888,-7.7032,-7.7156,-7.6904,-7.7258,-7.8041,-7.8841,-7.7228,-7.7124,-7.7219,-7.6587,-7.5212,-7.4778,-7.4892,-7.4953,-7.4953,-7.4521,-7.341,-7.2852,-7.2973,-7.2627,-7.1933,-7.2903,-7.2684,-7.2572,-7.2572,-7.2276,-7.1561,-7.0119,-6.8251,-6.6284,-6.4433,-6.2685,-6.1297,-6.0685,-6.0228,-5.9894,-6.0144,-6.045,-6.0923,-6.1362,-6.1532,-6.1818,-6.1512,-6.3026,-6.3221,-6.3325,-6.4608,-6.6004,-6.3884,-6.2175,-6.0935,-6.1604,-6.258,-6.2819,-6.1637,-6.3119,-6.4286,-6.4082,-6.4201,-6.4786,-6.514,-6.4254,-6.3615,-6.3403,-6.3143,-6.3244,-6.3718,-6.4375,-6.4789,-6.552,-6.5533,-6.5111,-6.5878,-6.6942,-6.8279,-6.9708,-6.9913,-7.0054,-6.9121,-6.8206,-6.7362,-6.6604,-6.6123,-6.5801,-6.5411,-6.4973,-6.4542,-6.452,-6.469,-6.456,-6.4534,-6.4425,-6.415,-6.3931,-6.3413,-6.3222,-7.322,-7.322,-7.3428,-7.3496,-7.3601,-7.3601,-7.3737,-7.3873,-7.3869,-7.4228,-7.4769,-7.5217,-7.562,-7.5824,-7.5768,-7.5843,-7.6024,-7.5824,-7.5951,-7.5898,-7.5898,-7.5879,-7.64,-7.7043,-7.7524,-7.6873,-7.6856,-7.6528,-7.5665,-7.5115,-7.4938,-7.4989,-7.511,-7.5049,-7.4689,-7.3847,-7.34,-7.3318,-7.2593,-7.2003,-7.2866,-7.2572,-7.2425,-7.2425,-7.2091,-7.1304,-6.9793,-6.7663,-6.5803,-6.3877,-6.1853,-6.0903,-6.0378,-6.0089,-6.0036,-6.0336,-6.0781,-6.109,-6.1363,-6.149,-6.1675,-6.1604,-6.2298,-6.301,-6.326,-6.3029,-6.3607,-6.4346,-6.346,-6.2385,-6.2508,-6.2848,-6.2997,-6.1492,-6.1583,-6.2853,-6.3326,-6.3473,-6.3867,-6.3852,-6.3053,-6.2217,-6.1718,-6.1356,-6.1507,-6.1911,-6.2174,-6.2637,-6.3362,-6.3701,-6.4349,-6.5063,-6.6444,-6.7892,-6.9231,-6.9705,-6.9897,-6.8995,-6.8078,-6.7101,-6.6101,-6.5672,-6.5206,-6.4736,-6.4216,-6.4327,-6.4336,-6.4506,-6.448,-6.4561,-6.4589,-6.4506,-6.3961,-6.3335,-6.336,-7.3114,-7.3114,-7.3633,-7.3936,-7.4138,-7.3805,-7.3939,-7.4269,-7.4068,-7.4134,-7.4427,-7.4645,-7.5074,-7.5265,-7.5383,-7.5441,-7.56,-7.5324,-7.56,-7.5768,-7.5712,-7.5804,-7.622,-7.6863,-7.7421,-7.7195,-7.6882,-7.6963,-7.6759,-7.5273,-7.506,-7.5145,-7.5205,-7.5049,-7.4786,-7.4424,-7.4122,-7.3729,-7.3115,-7.2833,-7.2649,-7.2425,-7.2316,-7.2132,-7.1777,-7.112,-6.9422,-6.6795,-6.4718,-6.3312,-6.1275,-6.012,-6.0042,-6.006,-6.0461,-6.0773,-6.1124,-6.1052,-6.1091,-6.1105,-6.1312,-6.1818,-6.2218,-6.2503,-6.2331,-6.1296,-6.248,-6.461,-6.4956,-6.4277,-6.3414,-6.3006,-6.2833,-6.1817,-6.1607,-6.245,-6.2579,-6.2757,-6.268,-6.2659,-6.2188,-6.1274,-6.0796,-6.0143,-6.0113,-6.0859,-6.1233,-6.1982,-6.2444,-6.314,-6.3792,-6.4654,-6.6061,-6.7094,-6.8545,-6.8959,-6.8932,-6.8258,-6.7406,-6.6472,-6.57,-6.4989,-6.4552,-6.4089,-6.3983,-6.4143,-6.4308,-6.4478,-6.4534,-6.4725,-6.4725,-6.4916,-6.4477,-6.3961,-6.385,-7.3428,-7.3254,-7.3531,-7.3904,-7.4098,-7.4138,-7.4299,-7.461,-7.461,-7.4547,-7.4707,-7.5014,-7.5311,-7.5463,-7.5324,-7.5324,-7.5543,-7.5324,-7.5543,-7.5788,-7.5898,-7.597,-7.6259,-7.6295,-7.6508,-7.6231,-7.6134,-7.6074,-7.58,-7.5323,-7.5014,-7.5241,-7.5241,-7.5145,-7.5049,-7.4724,-7.4307,-7.3892,-7.3425,-7.2939,-7.2611,-7.2242,-7.1974,-7.1327,-7.0304,-6.9259,-6.844,-6.5729,-6.3753,-6.2483,-6.0865,-5.9772,-5.9532,-5.9819,-6.0289,-6.0866,-6.0715,-6.052,-6.0333,-6.0487,-6.0673,-6.0771,-6.0935,-6.1139,-6.0855,-5.9754,-6.0328,-6.4988,-6.5795,-6.5326,-6.436,-6.3736,-6.2827,-6.2106,-6.1789,-6.1829,-6.1874,-6.1837,-6.1777,-6.1585,-6.1079,-6.0286,-5.9682,-5.8921,-5.9027,-5.9747,-6.0558,-6.1313,-6.2008,-6.2682,-6.3426,-6.426,-6.5202,-6.5707,-6.7005,-6.776,-6.7718,-6.7321,-6.6754,-6.6129,-6.5672,-6.5072,-6.4037,-6.3824,-6.3826,-6.3851,-6.3791,-6.4152,-6.4589,-6.4616,-6.4834,-6.5025,-6.5079,-6.4834,-6.4533,-7.3837,-7.3565,-7.3837,-7.4002,-7.4033,-7.4328,-7.4491,-7.4645,-7.4892,-7.4857,-7.4857,-7.5252,-7.5521,-7.5463,-7.5324,-7.5324,-7.5383,-7.5265,-7.5521,-7.5898,-7.5788,-7.5879,-7.6202,-7.6096,-7.5934,-7.5743,-7.5499,-7.5405,-7.5369,-7.5252,-7.5074,-7.5265,-7.5324,-7.5324,-7.5145,-7.4277,-7.3785,-7.341,-7.2922,-7.2593,-7.2549,-7.2167,-7.1778,-7.1433,-6.962,-6.8262,-6.6999,-6.4374,-6.2993,-6.1648,-6.0767,-5.9819,-5.9865,-5.958,-5.9692,-6.0333,-5.9786,-5.9387,-5.9338,-5.9739,-5.9898,-5.9977,-5.9898,-6.0096,-6.0644,-6.1261,-6.3409,-6.5273,-6.6263,-6.6007,-6.5023,-6.4283,-6.2887,-6.2092,-6.2036,-6.1801,-6.1389,-6.1194,-6.0967,-6.0391,-5.9855,-5.9245,-5.8657,-5.821,-5.8376,-5.8809,-5.9306,-5.9978,-6.0802,-6.1888,-6.2889,-6.3711,-6.405,-6.4445,-6.5499,-6.674,-6.6842,-6.7206,-6.6632,-6.6234,-6.5672,-6.4883,-6.39,-6.3308,-6.3335,-6.3253,-6.3278,-6.3769,-6.4507,-6.4752,-6.4752,-6.4889,-6.4861,-6.467,-6.4725,-7.4199,-7.3967,-7.4299,-7.4328,-7.4228,-7.4547,-7.4582,-7.4618,-7.511,-7.5169,-7.5074,-7.5485,-7.5635,-7.5477,-7.53,-7.5265,-7.5265,-7.5265,-7.5521,-7.5788,-7.5656,-7.5768,-7.6096,-7.5768,-7.5656,-7.5712,-7.5405,-7.5405,-7.5521,-7.5405,-7.5324,-7.5288,-7.5463,-7.5463,-7.5086,-7.3696,-7.2652,-7.2441,-7.1958,-7.1963,-7.2517,-7.2091,-7.1419,-7.052,-6.9024,-6.7188,-6.5137,-6.3755,-6.2374,-6.0827,-6.0432,-6.0596,-6.0824,-5.9772,-5.9208,-5.893,-5.8682,-5.8547,-5.8962,-5.9497,-5.9772,-5.9967,-6.0193,-6.0479,-6.1766,-6.3786,-6.5436,-6.5695,-6.5894,-6.5737,-6.4815,-6.4296,-6.3335,-6.2483,-6.2109,-6.1658,-6.1083,-6.0985,-6.0644,-6.0229,-5.9447,-5.8595,-5.821,-5.7878,-5.7543,-5.7636,-5.7998,-5.8531,-5.9419,-6.0941,-6.2106,-6.254,-6.2784,-6.3547,-6.4575,-6.5814,-6.6349,-6.7219,-6.6736,-6.6367,-6.5723,-6.4938,-6.3873,-6.295,-6.2677,-6.2595,-6.2813,-6.3442,-6.4425,-6.4752,-6.4752,-6.4752,-6.4807,-6.4834,-6.4916,-7.4293,-7.4484,-7.4547,-7.4857,-7.5157,-7.5062,-7.524,-7.5696,-7.5788,-7.5748,-7.58,-7.6042,-7.5932,-7.5597,-7.549,-7.5441,-7.5205,-7.5463,-7.56,-7.5676,-7.56,-7.5712,-7.5843,-7.5712,-7.56,-7.5768,-7.5635,-7.5543,-7.5578,-7.5441,-7.5499,-7.5499,-7.5324,-7.5324,-7.4953,-7.3268,-7.3562,-7.3148,-7.262,-7.2198,-7.2556,-7.1837,-7.053,-6.9046,-6.6857,-6.5176,-6.3708,-6.2407,-6.122,-6.0728,-6.0366,-6.0333,-6.0443,-5.95,-5.8714,-5.8379,-5.7986,-5.8103,-5.8696,-5.9404,-6.0487,-6.0689,-6.1702,-6.2192,-6.3293,-6.477,-6.6577,-6.6189,-6.5894,-6.5093,-6.393,-6.319,-6.2552,-6.205,-6.206,-6.188,-6.1123,-6.0677,-6.0429,-5.9767,-5.9005,-5.8531,-5.8384,-5.8053,-5.7636,-5.773,-5.8237,-5.8713,-5.9419,-6.0714,-6.1337,-6.1569,-6.1866,-6.2668,-6.3653,-6.4756,-6.557,-6.6648,-6.6736,-6.6367,-6.5695,-6.4717,-6.3873,-6.2813,-6.2568,-6.2704,-6.2595,-6.2977,-6.407,-6.4752,-6.4752,-6.4862,-6.5107,-6.5217,-6.5053,-7.4707,-7.4734,-7.4866,-7.5074,-7.5252,-7.5275,-7.5543,-7.5788,-7.5952,-7.6042,-7.6132,-7.6344,-7.6258,-7.5968,-7.586,-7.5656,-7.5578,-7.5712,-7.5843,-7.5898,-7.5788,-7.5879,-7.606,-7.5712,-7.5712,-7.5768,-7.5804,-7.5656,-7.5635,-7.5463,-7.5441,-7.5521,-7.5499,-7.5441,-7.4859,-7.3006,-7.2438,-7.2705,-7.1662,-7.1104,-7.2036,-7.2335,-7.0748,-6.8766,-6.6458,-6.4567,-6.3268,-6.1886,-6.1007,-6.0791,-6.0596,-6.0289,-5.9819,-5.9013,-5.8178,-5.7616,-5.8089,-5.8422,-5.8449,-6.0111,-6.1298,-6.1577,-6.2256,-6.2897,-6.364,-6.5123,-6.6258,-6.5333,-6.4552,-6.393,-6.3083,-6.2297,-6.1888,-6.1637,-6.1303,-6.0996,-6.0543,-6.0543,-6.0114,-5.9419,-5.8977,-5.8741,-5.8531,-5.8265,-5.7878,-5.7998,-5.8476,-5.9067,-5.9767,-6.0514,-6.1162,-6.1085,-6.0888,-6.1697,-6.2709,-6.3776,-6.4511,-6.6021,-6.6632,-6.6234,-6.5528,-6.383,-6.2962,-6.2754,-6.3059,-6.325,-6.3223,-6.3305,-6.4042,-6.4752,-6.4752,-6.4862,-6.5271,-6.5435,-6.5189,-7.511,-7.4978,-7.5205,-7.5229,-7.5157,-7.5485,-7.5656,-7.5656,-7.6042,-7.6149,-7.6255,-7.6447,-7.6411,-7.6166,-7.597,-7.5788,-7.56,-7.5824,-7.6024,-7.6113,-7.6006,-7.5934,-7.6042,-7.5712,-7.56,-7.5692,-7.5748,-7.5461,-7.5169,-7.522,-7.484,-7.4904,-7.4926,-7.5284,-7.4453,-7.2672,-7.1775,-7.2873,-7.1415,-7.1028,-7.1995,-7.2314,-7.1531,-6.8323,-6.5714,-6.4084,-6.3034,-6.1903,-6.1231,-6.1272,-6.0857,-6.0133,-5.9419,-5.8765,-5.7837,-5.7207,-5.7737,-5.8654,-5.9073,-6.0546,-6.1546,-6.2295,-6.2795,-6.3234,-6.3789,-6.5076,-6.5039,-6.3899,-6.3053,-6.2653,-6.2544,-6.1555,-6.0996,-6.0883,-6.0543,-6.0114,-5.9883,-5.9999,-5.9883,-5.9535,-5.9302,-5.9067,-5.9095,-5.8949,-5.8567,-5.8567,-5.9274,-6.02,-6.0429,-6.0712,-6.1021,-6.0743,-6.0253,-6.116,-6.1988,-6.299,-6.4313,-6.5936,-6.6407,-6.6143,-6.4994,-6.3132,-6.2459,-6.2721,-6.3055,-6.336,-6.3769,-6.407,-6.4479,-6.4725,-6.4752,-6.4752,-6.4971,-6.5135,-6.4971,-7.5288,-7.5485,-7.5543,-7.5692,-7.5843,-7.5898,-7.6096,-7.638,-7.6483,-7.6432,-7.6344,-7.6374,-7.6219,-7.5862,-7.5732,-7.5521,-7.5521,-7.5732,-7.606,-7.606,-7.6149,-7.606,-7.5934,-7.5768,-7.5692,-7.5804,-7.5804,-7.4921,-7.4092,-7.3586,-7.3836,-7.3752,-7.3529,-7.4202,-7.4833,-7.3327,-7.2614,-7.3617,-7.212,-7.1599,-7.2557,-7.2628,-7.0775,-6.7478,-6.4651,-6.287,-6.1801,-6.1206,-6.0899,-6.0781,-6.0476,-5.9977,-5.9306,-5.8682,-5.7837,-5.6697,-5.7066,-5.8446,-5.9931,-6.0671,-6.1276,-6.2511,-6.351,-6.408,-6.3806,-6.3949,-6.3552,-6.2552,-6.1888,-6.125,-6.0486,-6.0257,-6.0142,-5.9883,-5.9767,-5.9535,-5.9535,-5.9563,-5.9651,-5.9563,-5.9535,-5.9535,-5.9563,-5.9447,-5.9185,-5.9156,-6.0429,-6.122,-6.1079,-6.105,-6.1191,-6.0999,-6.0853,-6.1442,-6.2099,-6.3003,-6.4831,-6.6096,-6.6303,-6.5686,-6.4632,-6.3788,-6.3499,-6.3346,-6.3055,-6.325,-6.366,-6.4206,-6.4561,-6.4671,-6.4752,-6.4752,-6.4752,-6.4752,-6.4807,-7.5383,-7.56,-7.5543,-7.5712,-7.5952,-7.5934,-7.6186,-7.6483,-7.6447,-7.6395,-7.6359,-7.6323,-7.6113,-7.5843,-7.5843,-7.5843,-7.5898,-7.6183,-7.6287,-7.6338,-7.6323,-7.6271,-7.6006,-7.5824,-7.5748,-7.5804,-7.5768,-7.4794,-7.3641,-7.3171,-7.3028,-7.3191,-7.3058,-7.3752,-7.4859,-7.3482,-7.3456,-7.398,-7.2818,-7.1674,-7.1725,-7.1513,-6.9554,-6.6425,-6.4009,-6.2386,-6.1323,-6.0974,-6.0748,-6.052,-6.0055,-5.9627,-5.95,-5.888,-5.8125,-5.756,-5.761,-5.8912,-6.0324,-6.1173,-6.1862,-6.3337,-6.3518,-6.3235,-6.263,-6.2078,-6.1419,-6.0888,-6.059,-6.0372,-5.9796,-5.968,-5.968,-5.9563,-5.9563,-5.9563,-5.9563,-5.9563,-5.9563,-5.9563,-5.9883,-5.9999,-5.9912,-5.968,-5.9419,-5.8921,-6.0171,-6.0286,-6.0257,-6.0801,-6.1028,-6.1172,-6.1167,-6.1584,-6.234,-6.346,-6.5243,-6.608,-6.6081,-6.5283,-6.4568,-6.4473,-6.4349,-6.3924,-6.336,-6.3578,-6.407,-6.437,-6.4834,-6.4971,-6.4998,-6.4834,-6.4752,-6.4752,-6.4752,-7.5383,-7.5578,-7.5521,-7.5712,-7.5934,-7.5879,-7.6096,-7.6483,-7.6307,-7.6359,-7.6287,-7.6235,-7.6113,-7.5843,-7.5843,-7.606,-7.6166,-7.6338,-7.659,-7.6688,-7.659,-7.6389,-7.6183,-7.5898,-7.5804,-7.5712,-7.5712,-7.4558,-7.29,-7.2343,-7.2429,-7.2337,-7.2151,-7.3126,-7.4597,-7.3714,-7.3484,-7.3862,-7.2491,-7.1198,-7.0615,-6.981,-6.8095,-6.5559,-6.381,-6.255,-6.1711,-6.0932,-6.052,-6.0366,-5.9898,-5.966,-5.9612,-5.9045,-5.8547,-5.8377,-5.8708,-5.894,-5.9648,-6.0814,-6.243,-6.3236,-6.2673,-6.1722,-6.0763,-6.0345,-5.9624,-5.9054,-5.9541,-5.9826,-5.9563,-5.9563,-5.9563,-5.9563,-5.9563,-5.9563,-5.9563,-5.9563,-5.9563,-5.9651,-6.0085,-6.0543,-6.0714,-6.0572,-5.9767,-5.9039,-5.9011,-5.9128,-5.9648,-6.0196,-6.0429,-6.0685,-6.1058,-6.195,-6.2587,-6.3573,-6.5187,-6.6324,-6.5769,-6.5018,-6.4716,-6.4437,-6.3491,-6.3264,-6.3469,-6.4234,-6.4916,-6.5189,-6.4889,-6.5189,-6.5353,-6.5026,-6.4752,-6.4752,-6.4752,-7.5369,-7.5463,-7.5692,-7.5804,-7.5824,-7.5952,-7.606,-7.6255,-7.6483,-7.6344,-7.6166,-7.6287,-7.606,-7.5485,-7.5768,-7.5712,-7.5768,-7.6219,-7.6389,-7.659,-7.6541,-7.644,-7.6287,-7.5952,-7.5712,-7.5656,-7.5521,-7.3831,-7.2001,-7.1087,-7.0888,-7.0939,-7.0638,-7.188,-7.3572,-7.3857,-7.3493,-7.3217,-7.1621,-7.0372,-6.9638,-6.811,-6.6234,-6.417,-6.3233,-6.246,-6.122,-6.0476,-6.0166,-6.0166,-6.012,-5.9981,-5.9499,-5.9208,-5.893,-5.9072,-5.8765,-5.8505,-5.8455,-5.9839,-6.1207,-6.1998,-6.1101,-6.0006,-5.9479,-5.8923,-5.8489,-5.7807,-5.8859,-5.951,-5.9563,-5.9447,-5.9447,-5.9563,-5.9563,-5.9563,-5.9563,-5.9563,-5.9563,-5.9563,-6.0429,-6.1526,-6.2108,-6.1888,-6.0656,-5.9039,-5.9039,-5.9156,-5.9503,-5.9906,-6.017,-6.0486,-6.1261,-6.2155,-6.2995,-6.3721,-6.5321,-6.6646,-6.5823,-6.5302,-6.5002,-6.3352,-6.2524,-6.2412,-6.3082,-6.3933,-6.5053,-6.5299,-6.4971,-6.5053,-6.5189,-6.4971,-6.4752,-6.4752,-6.4752,-7.5347,-7.5369,-7.5463,-7.56,-7.5934,-7.5824,-7.6042,-7.6395,-7.6571,-7.6395,-7.6219,-7.6323,-7.613,-7.5788,-7.5952,-7.6024,-7.6113,-7.6563,-7.681,-7.6917,-7.6785,-7.659,-7.6338,-7.5934,-7.5656,-7.5635,-7.5428,-7.4059,-7.2158,-7.096,-7.0454,-7.0283,-7.0037,-7.0895,-7.2837,-7.3308,-7.36,-7.3011,-7.1482,-6.9606,-6.8174,-6.6274,-6.4235,-6.2426,-6.1943,-6.1659,-6.087,-6.0476,-6.0321,-6.0166,-6.0153,-6.071,-6.145,-6.0171,-5.9176,-5.9208,-5.8677,-5.8645,-5.9247,-6.0033,-6.0668,-6.0584,-5.9304,-5.8263,-5.7825,-5.6631,-5.7242,-5.798,-5.8851,-5.9274,-5.9447,-5.9213,-5.9213,-5.9447,-5.9563,-5.9563,-5.9563,-5.9302,-5.9302,-5.9535,-5.9999,-6.0883,-6.2731,-6.1079,-5.9855,-5.9156,-5.8949,-5.8949,-5.9302,-5.9765,-6.0141,-6.0714,-6.1399,-6.2704,-6.375,-6.4275,-6.5521,-6.6704,-6.6332,-6.5756,-6.4299,-6.1961,-6.1765,-6.2219,-6.2666,-6.3442,-6.5025,-6.582,-6.5381,-6.5053,-6.4889,-6.4862,-6.478,-6.4752,-6.4752,-7.5324,-7.5383,-7.5347,-7.5578,-7.5843,-7.5824,-7.6024,-7.6432,-7.6571,-7.6447,-7.6271,-7.6426,-7.6374,-7.6077,-7.6287,-7.6389,-7.644,-7.6761,-7.7037,-7.7186,-7.7104,-7.6881,-7.6541,-7.6006,-7.5692,-7.5521,-7.5217,-7.4349,-7.285,-7.142,-7.0675,-7.051,-7.0808,-7.1268,-7.1852,-7.3289,-7.3497,-7.2727,-7.0712,-6.8456,-6.66,-6.447,-6.241,-6.0771,-6.0662,-6.0662,-6.0629,-6.0629,-6.0476,-5.9898,-5.9627,-6.0369,-6.1147,-6.0121,-5.8816,-5.8431,-5.8327,-5.9179,-6.0164,-6.0464,-6.0533,-6.0251,-5.8603,-5.719,-5.707,-5.6002,-5.6908,-5.8715,-5.9241,-5.9005,-5.9095,-5.9005,-5.9095,-5.933,-5.9563,-5.9447,-5.9302,-5.9067,-5.8831,-5.8977,-5.9302,-5.997,-6.0628,-5.9942,-5.8804,-5.8357,-5.8025,-5.7905,-5.8448,-5.8949,-5.9245,-6.0114,-6.1143,-6.2849,-6.4217,-6.4769,-6.5487,-6.6515,-6.632,-6.55,-6.3218,-6.1197,-6.1447,-6.1931,-6.2419,-6.336,-6.4888,-6.5902,-6.5902,-6.549,-6.5217,-6.4834,-6.478,-6.4752,-6.4752,-7.5324,-7.5265,-7.5635,-7.5748,-7.5748,-7.5879,-7.6042,-7.6149,-7.6432,-7.6483,-7.6359,-7.6699,-7.665,-7.6323,-7.6389,-7.6476,-7.644,-7.6676,-7.6833,-7.6966,-7.7019,-7.6938,-7.6672,-7.6033,-7.5644,-7.5369,-7.4866,-7.4024,-7.3055,-7.1689,-7.1309,-7.1627,-7.2132,-7.2696,-7.2448,-7.3518,-7.3315,-7.1548,-6.8585,-6.6821,-6.5961,-6.3043,-6.1107,-6.0662,-6.0553,-6.0553,-6.0476,-6.0476,-6.0055,-5.893,-5.8452,-5.8188,-5.7884,-5.8726,-5.786,-5.6002,-5.8372,-5.9608,-6.0286,-6.0106,-6.029,-6.0503,-5.8359,-5.74,-5.8242,-5.8319,-5.9057,-5.997,-5.9358,-5.8797,-5.8678,-5.8678,-5.8887,-5.933,-5.9563,-5.9302,-5.9067,-5.8741,-5.8504,-5.8145,-5.8595,-5.9185,-5.8237,-5.8567,-5.7998,-5.7515,-5.73,-5.7421,-5.785,-5.8309,-5.8462,-5.9016,-5.9883,-6.1747,-6.3793,-6.4362,-6.4881,-6.5627,-6.5328,-6.3932,-6.1919,-6.0864,-6.0712,-6.1395,-6.2049,-6.3305,-6.437,-6.4943,-6.5107,-6.5244,-6.5162,-6.4889,-6.4752,-6.4752,-6.4752,-7.53,-7.5241,-7.5463,-7.5656,-7.5843,-7.5879,-7.6042,-7.6344,-7.6571,-7.6535,-7.6535,-7.6834,-7.6834,-7.6749,-7.6749,-7.6749,-7.6761,-7.6895,-7.6535,-7.5838,-7.5772,-7.5602,-7.5278,-7.4987,-7.5048,-7.5191,-7.4743,-7.4272,-7.3794,-7.2075,-7.1122,-7.1436,-7.235,-7.2342,-7.1291,-7.2982,-7.3365,-7.1385,-6.8366,-6.651,-6.5449,-6.254,-6.0487,-6.0146,-6.0101,-5.9819,-5.95,-5.9851,-5.9548,-5.8619,-5.8115,-5.7398,-5.6577,-5.6577,-5.6185,-5.5372,-5.6619,-5.7771,-5.777,-5.8448,-5.8561,-5.7548,-5.689,-5.674,-5.7178,-5.9115,-5.9855,-5.9824,-5.9123,-5.8678,-5.8678,-5.8797,-5.8977,-5.9447,-5.9447,-5.9419,-5.9302,-5.8977,-5.8504,-5.8265,-5.8357,-5.8118,-5.7784,-5.7784,-5.7543,-5.7055,-5.7055,-5.7421,-5.7609,-5.7961,-5.8372,-5.8955,-5.9409,-6.0942,-6.306,-6.386,-6.4327,-6.4502,-6.4473,-6.2901,-6.1765,-6.1055,-6.0626,-6.1459,-6.2076,-6.3332,-6.456,-6.4834,-6.4998,-6.478,-6.4862,-6.4862,-6.5026,-6.4944,-6.4889,-7.5241,-7.5241,-7.5405,-7.5656,-7.5843,-7.5898,-7.6096,-7.6447,-7.6622,-7.6672,-7.6722,-7.6883,-7.7016,-7.6979,-7.7016,-7.6979,-7.7016,-7.7037,-7.6289,-7.506,-7.4928,-7.4495,-7.37,-7.3448,-7.3887,-7.4646,-7.4521,-7.4399,-7.3857,-7.2481,-7.1864,-7.2175,-7.2964,-7.2494,-7.1646,-7.3033,-7.3321,-7.1263,-6.8289,-6.6392,-6.5773,-6.2353,-6.0256,-5.9911,-5.9865,-5.9387,-5.8452,-5.8816,-5.865,-5.7484,-5.7223,-5.6605,-5.5729,-5.5168,-5.4997,-5.5124,-5.5783,-5.6272,-5.6409,-5.6861,-5.6522,-5.5768,-5.5248,-5.5601,-5.6702,-5.7782,-5.8574,-5.9507,-5.8887,-5.8531,-5.865,-5.8887,-5.9095,-5.9156,-5.9302,-5.9419,-5.8949,-5.8685,-5.8476,-5.8293,-5.7998,-5.773,-5.7543,-5.7327,-5.7055,-5.6687,-5.6933,-5.73,-5.7394,-5.7713,-5.8163,-5.8448,-5.9309,-6.0225,-6.1724,-6.279,-6.3527,-6.4222,-6.3814,-6.2742,-6.2192,-6.1807,-6.1478,-6.1706,-6.2426,-6.3438,-6.4641,-6.5299,-6.5435,-6.5463,-6.5708,-6.5654,-6.5408,-6.5244,-6.5135,-7.5241,-7.5265,-7.5557,-7.5635,-7.5712,-7.6006,-7.6202,-7.6307,-7.6672,-7.6772,-7.6772,-7.7063,-7.7063,-7.6979,-7.7111,-7.7111,-7.6979,-7.6891,-7.5987,-7.4495,-7.4561,-7.3711,-7.2114,-7.1728,-7.2258,-7.3376,-7.3978,-7.3922,-7.3145,-7.2628,-7.2826,-7.4163,-7.3812,-7.358,-7.374,-7.322,-7.2708,-7.0891,-6.7591,-6.5862,-6.5315,-6.243,-6.0378,-5.9865,-6.0211,-5.9548,-5.7571,-5.7829,-5.7398,-5.6125,-5.5542,-5.5103,-5.4884,-5.4599,-5.487,-5.5526,-5.5778,-5.6277,-5.6678,-5.5792,-5.5527,-5.5539,-5.4588,-5.4768,-5.6564,-5.5842,-5.5946,-5.8422,-5.8657,-5.8384,-5.8329,-5.8831,-5.9185,-5.8748,-5.8893,-5.8949,-5.8329,-5.7943,-5.785,-5.7784,-5.7664,-5.7543,-5.7421,-5.7205,-5.6837,-5.6687,-5.6687,-5.6933,-5.7055,-5.7123,-5.7327,-5.7612,-5.858,-5.971,-6.0753,-6.1764,-6.2931,-6.3854,-6.3444,-6.3059,-6.2672,-6.2858,-6.2453,-6.231,-6.3028,-6.3605,-6.497,-6.5217,-6.5544,-6.6255,-6.7047,-6.7265,-6.6719,-6.6118,-6.5845,-7.5241,-7.5265,-7.5557,-7.5656,-7.5804,-7.606,-7.6344,-7.6447,-7.6722,-7.6772,-7.6822,-7.7063,-7.7111,-7.7016,-7.7111,-7.7111,-7.6906,-7.5904,-7.4678,-7.3191,-7.2181,-7.1206,-7.0211,-6.9999,-7.0482,-7.1361,-7.1408,-7.0776,-7.0059,-7.0754,-7.0678,-7.0248,-7.2828,-7.3048,-7.1361,-7.1793,-7.1748,-7.0235,-6.6708,-6.4895,-6.5037,-6.201,-6.0068,-5.9911,-5.9865,-5.8949,-5.6725,-5.7079,-5.6697,-5.5542,-5.5073,-5.4694,-5.4088,-5.3894,-5.3903,-5.3855,-5.387,-5.3942,-5.3954,-5.3651,-5.3361,-5.3127,-5.3127,-5.3444,-5.458,-5.4338,-5.5079,-5.6716,-5.7566,-5.7878,-5.8062,-5.842,-5.8476,-5.7998,-5.7998,-5.8145,-5.8265,-5.809,-5.7998,-5.8025,-5.7905,-5.7515,-5.73,-5.7178,-5.696,-5.6564,-5.681,-5.681,-5.6783,-5.651,-5.6645,-5.7485,-5.8449,-5.9655,-6.1047,-6.2283,-6.3333,-6.3769,-6.3527,-6.3364,-6.3305,-6.366,-6.3633,-6.3411,-6.3523,-6.4206,-6.4698,-6.508,-6.5654,-6.6364,-6.7292,-6.8084,-6.7647,-6.7101,-6.6746,-7.5265,-7.5324,-7.5578,-7.5712,-7.5824,-7.6202,-7.6359,-7.6447,-7.6772,-7.6822,-7.6822,-7.7063,-7.7111,-7.6943,-7.5904,-7.5356,-7.52,-7.4259,-7.2994,-7.1578,-7.0442,-6.9384,-6.831,-6.7601,-6.7831,-6.855,-6.8163,-6.7805,-6.8026,-6.906,-6.9092,-6.8866,-7.1071,-7.1778,-7.0502,-7.0304,-7.0238,-6.939,-6.5773,-6.3975,-6.4262,-6.1702,-6.0068,-5.9957,-5.9515,-5.842,-5.6725,-5.6487,-5.5851,-5.4789,-5.4407,-5.402,-5.3502,-5.3404,-5.3107,-5.2635,-5.2405,-5.2202,-5.1952,-5.185,-5.1616,-5.1201,-5.1605,-5.1969,-5.2545,-5.2546,-5.3224,-5.5179,-5.6861,-5.7218,-5.666,-5.6386,-5.6405,-5.6038,-5.6201,-5.6696,-5.7273,-5.763,-5.7878,-5.7905,-5.7878,-5.7609,-5.7178,-5.7055,-5.7218,-5.7225,-5.7333,-5.7602,-5.779,-5.7539,-5.768,-5.8486,-5.9289,-6.0322,-6.19,-6.278,-6.3293,-6.3571,-6.3767,-6.3718,-6.3718,-6.4017,-6.4234,-6.396,-6.4124,-6.4643,-6.4671,-6.5026,-6.549,-6.6391,-6.7975,-6.8549,-6.8419,-6.8467,-6.8002,-7.5298,-7.532,-7.5656,-7.5804,-7.586,-7.638,-7.6483,-7.6307,-7.6785,-7.6919,-7.6822,-7.6917,-7.6891,-7.6395,-7.3783,-7.2401,-7.2365,-7.2292,-7.1463,-7.0186,-6.9615,-6.8473,-6.6587,-6.4947,-6.4661,-6.5752,-6.5253,-6.5586,-6.7198,-6.7819,-6.8507,-6.91,-6.9252,-6.9958,-7.0314,-6.8901,-6.825,-6.7824,-6.4762,-6.3092,-6.2948,-6.1496,-6.0399,-5.9898,-5.908,-5.8052,-5.7223,-5.6064,-5.489,-5.402,-5.3531,-5.3065,-5.2836,-5.2836,-5.2635,-5.2157,-5.1663,-5.1249,-5.086,-5.0755,-5.065,-5.036,-4.9935,-5.0231,-5.148,-5.0445,-5.0819,-5.3237,-5.6131,-5.6551,-5.3386,-5.3324,-5.3539,-5.3403,-5.396,-5.4717,-5.5332,-5.6266,-5.7028,-5.7015,-5.7176,-5.7082,-5.7028,-5.681,-5.7118,-5.7665,-5.7819,-5.8139,-5.9302,-5.9575,-5.9497,-5.9952,-6.0459,-6.1413,-6.3084,-6.3293,-6.3432,-6.3571,-6.3709,-6.4042,-6.4096,-6.4123,-6.4288,-6.4425,-6.4589,-6.4725,-6.4752,-6.4998,-6.5381,-6.62,-6.7702,-6.8931,-6.8966,-6.9477,-6.9313,-7.3723,-7.3959,-7.5169,-7.5712,-7.586,-7.638,-7.6535,-7.6535,-7.6834,-7.6931,-7.6822,-7.5794,-7.4661,-7.3437,-7.2686,-7.2328,-7.2145,-7.1133,-7.0369,-6.9892,-6.8518,-6.741,-6.6567,-6.5874,-6.5441,-6.5031,-6.4551,-6.4646,-6.5198,-6.6081,-6.5927,-6.521,-6.6624,-6.7114,-6.6323,-6.5544,-6.5395,-6.5846,-6.3103,-6.199,-6.2483,-6.1119,-5.9627,-5.842,-5.7914,-5.7048,-5.5697,-5.4854,-5.4088,-5.356,-5.2965,-5.236,-5.1691,-5.1765,-5.1998,-5.1952,-5.1173,-5.065,-5.0439,-5.0227,-5.012,-5.0013,-4.9179,-4.8874,-4.9169,-4.8321,-4.8732,-5.0636,-5.1292,-5.1532,-5.0203,-5.1855,-5.2646,-5.2219,-5.2704,-5.3189,-5.3387,-5.3835,-5.4599,-5.5381,-5.569,-5.5999,-5.6568,-5.6687,-5.6671,-5.7208,-5.7473,-5.8091,-5.8466,-5.9129,-5.9679,-6.086,-6.0901,-6.1442,-6.2827,-6.3127,-6.3153,-6.3153,-6.3432,-6.3709,-6.3709,-6.3985,-6.4288,-6.4288,-6.4616,-6.4752,-6.4616,-6.4616,-6.4998,-6.5463,-6.6364,-6.7565,-6.8849,-6.8958,-6.9067,-7.2224,-7.2331,-7.3357,-7.3861,-7.4023,-7.4372,-7.4474,-7.4474,-7.4722,-7.4818,-7.46,-7.3245,-7.2049,-7.1092,-7.0523,-7.0273,-7.0243,-6.9375,-6.8935,-6.8743,-6.7613,-6.6787,-6.6223,-6.5476,-6.4649,-6.3904,-6.3523,-6.3192,-6.3193,-6.4164,-6.4146,-6.3333,-6.4927,-6.5384,-6.4422,-6.381,-6.3788,-6.419,-6.1825,-6.0881,-6.1414,-6.0432,-5.9062,-5.786,-5.7136,-5.6064,-5.47,-5.3796,-5.3264,-5.2764,-5.223,-5.1485,-5.065,-5.0832,-5.1041,-5.0832,-4.9896,-4.8854,-4.7817,-4.7526,-4.7527,-4.7598,-4.6995,-4.687,-4.7479,-4.6453,-4.6245,-4.7325,-4.7289,-4.7364,-4.8054,-4.9873,-5.1005,-5.0397,-5.1022,-5.1633,-5.1775,-5.2379,-5.3092,-5.3579,-5.447,-5.5208,-5.5461,-5.6119,-5.6752,-5.7316,-5.7419,-5.8224,-5.8944,-5.9685,-6.0667,-6.1526,-6.1223,-6.143,-6.2215,-6.2753,-6.296,-6.3014,-6.3153,-6.3293,-6.3293,-6.3571,-6.3709,-6.3985,-6.4012,-6.4177,-6.4315,-6.4315,-6.4452,-6.4752,-6.5461,-6.6364,-6.8248,-6.8704,-6.9167,-7.0753,-7.0789,-7.1127,-7.1247,-7.1457,-7.1571,-7.1607,-7.1521,-7.1646,-7.1597,-7.1197,-6.9874,-6.9427,-6.9297,-6.8026,-6.7526,-6.7609,-6.7462,-6.7421,-6.7297,-6.6832,-6.6427,-6.5943,-6.4273,-6.3036,-6.268,-6.237,-6.2083,-6.175,-6.264,-6.3024,-6.3094,-6.3875,-6.4163,-6.4012,-6.346,-6.2926,-6.2615,-6.1021,-6.0133,-6.0009,-5.9419,-5.8702,-5.7711,-5.6395,-5.5205,-5.3971,-5.2908,-5.2259,-5.185,-5.1249,-5.0595,-4.9772,-4.9907,-4.9799,-4.9098,-4.8165,-4.6416,-4.4067,-4.3758,-4.3979,-4.4157,-4.4272,-4.4746,-4.5734,-4.4451,-4.3511,-4.3793,-4.4196,-4.4946,-4.591,-4.7264,-4.8002,-4.7892,-4.887,-4.9707,-5.018,-5.1368,-5.22,-5.185,-5.3023,-5.4219,-5.415,-5.5163,-5.6477,-5.7359,-5.7766,-5.8277,-5.9548,-6.0483,-6.1262,-6.1529,-6.1393,-6.0993,-6.1422,-6.222,-6.2588,-6.2635,-6.2907,-6.3014,-6.3014,-6.3014,-6.3047,-6.3275,-6.3383,-6.3575,-6.3548,-6.3821,-6.4096,-6.4177,-6.445,-6.4997,-6.6142,-6.7851,-6.897,-6.9033,-6.9298,-7.0552,-7.1159,-7.121,-7.1348,-7.1413,-7.1548,-7.1621,-7.0253,-6.7974,-6.7512,-6.7466,-6.7642,-6.74,-6.738,-6.7462,-6.738,-6.7344,-6.7344,-6.6567,-6.6185,-6.5965,-6.5059,-6.4326,-6.3943,-6.373,-6.3489,-6.3277,-6.3273,-6.3251,-6.322,-6.2822,-6.2536,-6.2389,-6.177,-6.1286,-6.109,-6.053,-5.9977,-5.9257,-5.8619,-5.7657,-5.6305,-5.5175,-5.3874,-5.2521,-5.184,-5.1146,-5.0439,-5.0039,-4.9423,-4.8469,-4.8606,-4.8606,-4.817,-4.6741,-4.4717,-4.2452,-4.2435,-4.2799,-4.2858,-4.3051,-4.3301,-4.3244,-4.107,-3.994,-4.0858,-4.1555,-4.2492,-4.3577,-4.4386,-4.5192,-4.644,-4.6959,-4.7429,-4.8221,-4.8402,-4.9009,-5.0443,-5.0438,-5.1287,-5.3085,-5.3794,-5.445,-5.6163,-5.7532,-5.8155,-5.8409,-5.9365,-5.9651,-5.95,-5.9687,-6.0006,-6.022,-6.1126,-6.1573,-6.135,-6.2177,-6.2794,-6.2786,-6.29,-6.2774,-6.222,-6.2705,-6.303,-6.2497,-6.2873,-6.3548,-6.3602,-6.385,-6.4315,-6.4803,-6.6506,-6.773,-6.7349,-6.7508,-6.8348,-6.881,-6.8911,-6.8975,-6.911,-6.9207,-6.9267,-6.83,-6.6787,-6.6751,-6.6921,-6.7139,-6.7139,-6.7218,-6.726,-6.7139,-6.6973,-6.6796,-6.6331,-6.5936,-6.561,-6.5213,-6.4761,-6.4373,-6.4254,-6.4132,-6.3921,-6.3699,-6.3636,-6.3573,-6.312,-6.2551,-6.2098,-6.1458,-6.0866,-6.0443,-6.0321,-5.9819,-5.8981,-5.82,-5.7017,-5.5484,-5.4451,-5.3189,-5.1737,-5.1014,-5.0138,-4.8962,-4.8192,-4.6959,-4.554,-4.5354,-4.4881,-4.3916,-4.2883,-4.1555,-3.9765,-3.9375,-3.9352,-3.9634,-4.0068,-4.0086,-3.9547,-3.7648,-3.7267,-3.8776,-3.857,-3.9253,-4.1242,-4.3115,-4.4111,-4.41,-4.4658,-4.5246,-4.6057,-4.6438,-4.7162,-4.8321,-4.8631,-4.9724,-5.2131,-5.2755,-5.3484,-5.5258,-5.6554,-5.7306,-5.7284,-5.7584,-5.7713,-5.7324,-5.7967,-5.8575,-5.868,-5.9925,-6.0985,-6.0843,-6.1905,-6.268,-6.2672,-6.2672,-6.2283,-6.1271,-6.1879,-6.2157,-6.0617,-6.1444,-6.2247,-6.2544,-6.2765,-6.3335,-6.3794,-6.4791,-6.5665,-6.6238,-6.5886,-6.5936,-6.6087,-6.6331,-6.6379,-6.6427,-6.6485,-6.6051,-6.6107,-6.6469,-6.6469,-6.6747,-6.7139,-6.6834,-6.6646,-6.6725,-6.634,-6.588,-6.5502,-6.5441,-6.5037,-6.4576,-6.4355,-6.4128,-6.3744,-6.365,-6.3566,-6.3419,-6.3289,-6.3324,-6.3228,-6.3049,-6.2568,-6.1804,-6.1345,-6.0618,-5.9667,-5.9664,-5.9304,-5.8433,-5.7703,-5.6485,-5.48,-5.3572,-5.2335,-5.1046,-4.9868,-4.8562,-4.7229,-4.5914,-4.4298,-4.2196,-4.1874,-4.0775,-3.8771,-3.8524,-3.7818,-3.6408,-3.5598,-3.5169,-3.5431,-3.6221,-3.631,-3.5408,-3.4343,-3.4712,-3.6903,-3.6111,-3.6341,-3.9017,-4.1829,-4.2799,-4.1547,-4.2276,-4.3234,-4.4012,-4.4933,-4.577,-4.6327,-4.7376,-4.8581,-5.0383,-5.1697,-5.3074,-5.4949,-5.5852,-5.6175,-5.645,-5.6103,-5.5826,-5.5779,-5.6469,-5.6995,-5.7282,-5.8944,-6.0052,-6.0553,-6.1476,-6.2214,-6.2425,-6.2152,-6.1521,-6.0167,-6.0691,-6.0421,-5.8884,-5.9517,-6.0447,-6.0988,-6.1342,-6.1825,-6.3007,-6.2923,-6.3159,-6.719,-6.5972,-6.6234,-6.6427,-6.6474,-6.6885,-6.6921,-6.6479,-6.39,0.0,0.0,-6.457,-6.5374,-6.6505,-6.5275,-6.4785,-6.4887,-6.3365,-6.2742,-6.2829,-6.2116,-6.1763,-6.1714,-6.0781,-6.0477,-6.0634,-6.0442,-6.0442,-6.0578,-6.0395,-6.0188,-6.0082,-5.9447,-5.9043,-5.8919,-5.9262,-5.8553,-5.6894,-5.7644,-5.7425,-5.608,-5.6078,-5.5361,-5.3748,-5.162,-4.982,-4.8521,-4.6828,-4.5289,-4.4088,-4.332,-4.2304,-4.0712,-4.0631,-3.9408,-3.7177,-3.6725,-3.5197,-3.1876,-3.2266,-3.2154,-3.0992,-3.3055,-3.3826,-3.2525,-3.112,-3.16,-3.4755,-3.5161,-3.5812,-3.7394,-3.8179,-3.8944,-4.0169,-4.0826,-4.1499,-4.2508,-4.342,-4.4223,-4.5293,-4.5531,-4.669,-4.9696,-5.062,-5.1683,-5.3986,-5.529,-5.6068,-5.6095,-5.5872,-5.5495,-5.5595,-5.5679,-5.5964,-5.6096,-5.723,-5.8232,-5.9287,-6.0095,-6.0979,-6.167,-6.1075,-5.9813,-5.854,-5.8535,-5.827,-5.7388,-5.8043,-5.9045,-5.9419,-5.982,-6.0433,-6.1393,-6.0776,-6.0293,-6.7801,-6.7134,-6.6495,-6.5899,0.0,-6.5715,-6.533,-6.4463,-6.2889,-6.2502,-6.298,-6.306,-6.3538,-6.427,-6.343,-6.3148,-6.3204,-6.2265,-6.1383,-6.0661,-6.0781,-6.0369,-5.956,-5.8852,-5.8631,-5.8785,-5.8645,-5.8722,-5.8892,-5.9485,-5.974,-5.9684,-5.8339,-5.7997,-5.8385,-5.7719,-5.6552,-5.4999,-5.6047,-5.5824,-5.4442,-5.4003,-5.3013,-5.1412,-4.9681,0.0,0.0,0.0,0.0,0.0,0.0,0.0,0.0,-3.6791,-3.5928,-3.463,-3.3708,-3.2321,-3.0546,-3.0123,-2.9869,-2.9588,-3.0589,-3.0493,-2.8943,-2.883,-2.9802,-3.185,-3.3967,-3.5047,-3.4705,-3.5338,-3.6368,-3.7385,-3.8349,-3.9308,-4.0248,-4.111,-4.2092,-4.2904,-4.339,-4.4781,-4.8047,-4.9924,-5.1841,-5.3377,-5.4758,-5.5694,-5.5443,-5.4888,-5.4659,-5.5116,-5.5086,-5.5133,-5.5343,-5.6262,-5.7312,-5.7863,-5.8592,-5.9318,-5.9865,-5.9087,-5.7925,-5.6851,-5.716,-5.6948,-5.5823,-5.6448,-5.7519,-5.8048,-5.8337,-5.868,-5.8705,-5.8203,-5.8017,-6.7999,-6.7743,-6.6202,-6.5083,-6.4342,-6.3771,-6.2821,-6.1643,-6.1526,-6.1326,-6.1162,-6.141,-6.1699,-6.2037,-6.1663,-6.1512,-6.1518,-6.1065,-5.9874,-5.8217,-5.9021,-5.8518,-5.6759,-5.644,-5.6335,-5.6248,-5.6352,-5.6405,-5.6453,-5.798,-5.8699,-5.861,-5.7417,-5.7012,-5.7261,0.0,0.0,0.0,-5.4308,-5.4154,-5.2923,-5.211,-5.0924,-4.9188,-4.7859,0.0,-4.5836,-4.447,-4.2553,-4.0034,-3.8897,0.0,-3.3911,0.0,0.0,0.0,0.0,0.0,0.0,0.0,0.0,0.0,-2.7656,-2.6936,-2.5835,-2.7043,-2.8424,-2.9659,-3.2432,-3.364,-3.2076,-3.3218,-3.4073,-3.4536,-3.5499,-3.6595,-3.7677,-3.8754,-3.9746,-4.0484,-4.1302,-4.2847,-4.5879,-4.9085,-5.1491,-5.2147,-5.3684,-5.4346,-5.3684,-5.3272,-5.3346,-5.3991,-5.4145,-5.4245,-5.4706,-5.5384,-5.5902,-5.6605,-5.7041,-5.7315,-5.7734,-5.7087,-5.6143,-5.5438,-5.5601,-5.5609,-5.4428,-5.4891,-5.5823,-5.6708,-5.6708,-5.65,-5.5799,-5.5798,-5.6422,-6.7427,-6.608,-6.4771,-6.4343,-6.4329,-6.1585,-5.9629,-5.8319,-5.8208,-5.8059,-5.8016,-5.9144,-6.0386,-6.162,-6.0082,-5.9593,-5.9692,-5.8146,-5.6466,-5.4905,-5.4578,-5.347,-5.1678,-5.1285,-5.1138,-5.1118,-5.135,-5.135,-5.1187,-5.2931,-5.3699,-5.3516,-5.4434,-5.4145,-5.2695,-5.1962,-5.128,-5.0527,-5.1837,-5.1965,-5.076,-5.0843,-5.0036,-4.8407,-4.6547,-4.498,-4.3648,-4.1475,-3.9429,-3.7507,-3.6447,-3.4793,-3.2341,-3.1765,-3.0956,0.0,-2.8073,0.0,0.0,0.0,0.0,0.0,0.0,0.0,0.0,-2.5572,-2.7354,-2.9254,-3.0228,-3.0816,-3.0711,-3.1339,-3.1824,-3.2101,-3.2651,-3.3572,-3.499,-3.6286,-3.7679,-3.9056,-3.9398,-4.0722,-4.3985,-4.6682,-4.8846,-4.9974,-5.0911,-5.1091,-5.0601,-5.0957,-5.1584,-5.2622,-5.2793,-5.3089,-5.3501,-5.3498,-5.3929,-5.5373,-5.5464,-5.5474,-5.6304,-5.538,-5.4606,-5.4505,-5.3861,-5.3433,-5.3991,-5.3732,-5.3885,-5.4789,-5.4583,-5.4094,-5.3272,-5.3683,-5.4841,-6.5962,-6.4699,-6.3331,-6.2321,-6.1518,-5.849,-5.6897,-5.6345,-5.5364,-5.4928,-5.493,-5.5477,-5.6051,-5.6508,-5.5585,-5.5261,-5.5418,-5.5436,-5.4605,-5.3164,-5.439,-5.4042,-5.2421,-5.2122,-5.1884,-5.1668,-5.19,-5.1818,-5.1688,-5.325,-5.4017,-5.3915,-5.362,-5.1527,-4.7925,-4.9084,-4.8985,-4.7531,-4.8523,-4.87,-4.7945,-4.7979,-4.7493,-4.6158,-4.4559,-4.3168,-4.2172,-4.049,-3.839,-3.5639,-3.4778,-3.3066,-3.0107,-2.9642,-2.9184,0.0,0.0,0.0,0.0,0.0,0.0,0.0,0.0,0.0,0.0,0.0,-2.4517,-2.5498,-2.7769,-2.8587,-2.7322,-2.8857,-3.0242,-3.1017,-3.1728,-3.2589,-3.3604,-3.4356,-3.53,-3.6706,-3.6721,-3.8016,-4.2234,-4.4912,-4.6853,-4.7826,-4.7255,-4.7042,-4.8105,-4.9167,-5.0091,-5.0827,-5.1459,-5.2018,-5.2134,-5.2084,-5.2158,-5.2895,-5.2886,-5.2985,-5.3417,-5.3134,-5.2801,-5.3053,-5.2597,-5.2324,-5.301,-5.2606,-5.2306,-5.2764,-5.2104,-5.1118,-5.0763,-5.1622,-5.2764,-6.3896,-6.2903,-5.9341,-5.7334,-5.6515,-5.4205,-5.3875,-5.4694,-5.3392,-5.2808,-5.2801,-5.271,-5.232,-5.1742,-5.1232,-5.094,-5.1089,-5.2521,-5.2629,-5.1623,-5.355,-5.3654,-5.2118,-5.1836,-5.1573,-5.1315,-5.142,-5.1325,-5.1194,-5.2309,-5.2817,-5.2767,-5.2113,-4.9567,-4.5362,-4.7523,-4.7746,-4.5529,-4.6313,-4.6577,-4.6293,-4.6173,-4.5612,-4.4609,-4.2885,-4.1473,-4.0565,-3.9043,-3.6826,-3.3906,-3.2994,-3.1044,-2.7828,-2.746,0.0,0.0,0.0,0.0,0.0,0.0,0.0,0.0,0.0,-2.0843,-2.0664,0.0,-2.1763,0.0,-2.4407,-2.5817,-2.4419,-2.6319,0.0,0.0,-2.9985,-3.081,-3.1825,-3.2146,-3.2859,-3.445,-3.4535,-3.5916,-4.004,-4.2739,-4.4434,-4.4598,-4.3527,-4.3647,-4.5864,-4.714,-4.8066,-4.8813,-4.9443,-4.9965,-4.9854,-5.0073,-5.0013,-4.9904,-4.9904,-5.0061,-5.0193,-5.0218,-5.0398,-5.0628,-5.0711,-5.0876,-5.1275,-5.0808,-5.0189,-4.9367,-4.8105,-4.7246,-4.7883,-4.9218,-5.0465,-6.0979,-6.0244,-5.0395,-4.7197,-4.8556,-4.8335,-5.0093,-5.3158,-5.2676,-5.2528,-5.2677,-5.2321,-5.1264,-4.9714,-4.828,0.0,-4.7884,-4.9288,-4.9786,-4.9566,-4.9657,-4.8781,-4.7056,-4.6935,-4.6817,-4.6811,-4.6788,-4.6731,-4.669,-4.676,-4.6594,-4.6316,-4.8589,-4.8762,-4.6887,-4.8029,-4.7713,-4.5699,-4.6369,-4.7135,-4.759,-4.7041,-4.6199,-4.4841,-4.2213,-4.0135,-3.8699,-3.5763,-3.339,-3.1772,-3.0479,-2.8525,-2.5552,0.0,0.0,0.0,0.0,0.0,0.0,0.0,0.0,0.0,0.0,0.0,0.0,0.0,0.0,-1.8034,-1.9662,0.0,-2.3402,-2.4244,0.0,0.0,0.0,-2.6881,-2.8354,-2.9512,-3.0708,-3.1942,0.0,0.0,-3.7094,-3.9659,-4.0761,-3.9354,-4.0601,-4.212,-4.3362,-4.447,-4.5442,-4.6386,-4.635,-4.6124,-4.6564,-4.6594,-4.695,-4.7208,-4.689,-4.6809,-4.6809,-4.6761,-4.689,-4.7275,-4.6995,-4.7099,-4.8291,-4.7845,-4.6352,-4.2634,-4.2191,-4.2965,-4.4413,-4.593,-4.7563,-5.2436,-4.8464,-4.3667,-4.2633,-4.3912,-4.1277,-4.2637,-4.6659,-4.5491,-4.4886,-4.4805,-4.4723,-4.3065,-4.0217,-3.8887,0.0,0.0,0.0,-4.4025,-4.5059,-4.6648,-4.7092,-4.6481,-4.6249,-4.6048,-4.587,-4.6913,-4.7308,-4.7054,-4.7955,-4.5948,-4.1301,0.0,-4.2514,-4.2518,-4.3897,-4.4316,-4.3843,-4.3901,-4.4641,-4.588,-4.543,-4.4709,-4.3647,-4.116,-3.8787,-3.6731,-3.4833,-3.2678,-2.9997,-2.8676,-2.7088,0.0,0.0,0.0,0.0,0.0,0.0,0.0,0.0,0.0,0.0,0.0,-1.6245,-1.6482,0.0,0.0,0.0,-1.7549,-1.9051,-2.0945,-2.2057,0.0,0.0,0.0,0.0,0.0,0.0,0.0,-3.1134,-3.173,-3.2911,-3.5669,-3.6828,-3.7352,-3.7539,-3.8777,-4.0086,-4.1138,0.0,-4.3939,-4.4357,-4.5097,-4.5685,-4.5632,-4.5478,-4.5386,-4.5516,-4.5009,-4.449,-4.4166,-4.4041,-4.4077,-4.4263,-4.4183,-4.4193,-4.4758,-4.3023,-4.1177,-4.0862,-4.04,-4.0466,-4.1478,-4.3027,-4.4616,-4.2186,0.0,0.0,0.0,0.0,-3.436,-3.5804,-4.021,-3.8387,-3.7633,-3.7752,-3.6874,0.0,0.0,0.0,0.0,0.0,0.0,-3.8223,-4.0018,-4.3185,-4.4395,-4.401,-4.4266,-4.4229,-4.3969,-4.5375,-4.5921,-4.5626,-4.5726,-4.295,-3.7469,0.0,0.0,0.0,0.0,-4.1918,-4.2275,-4.2203,-4.3148,-4.5138,-4.4036,-4.3321,-4.3262,-3.9866,-3.6949,-3.4685,-3.2953,-3.069,-2.7982,-2.6642,0.0,0.0,0.0,0.0,0.0,0.0,0.0,0.0,0.0,0.0,0.0,0.0,0.0,0.0,0.0,0.0,0.0,0.0,0.0,-1.8737,-2.0228,-2.1244,0.0,0.0,0.0,0.0,0.0,0.0,0.0,0.0,0.0,-3.3681,-3.3865,-3.4257,0.0,0.0,-3.8296,-3.9455,-4.1029,-4.2089,-4.2167,-4.3125,0.0,-4.3719,-4.316,-4.2654,-4.2676,-4.1945,-4.1475,-4.0977,-4.0993,-4.0888,-4.0833,-4.0848,-4.0378,-3.908,-3.6881,-3.6023,-3.6955,-3.6974,-3.6927,-3.813,-3.9596,-4.104,0.0,0.0,0.0,0.0,-2.7871,0.0,0.0,0.0,-3.2519,-3.2123,0.0,-2.9832,0.0,0.0,0.0,0.0,-2.5462,-2.9901,0.0,0.0,-3.8735,-3.9811,-3.8156,-3.9591,-4.03,-4.0265,-4.074,-4.0926,-4.0553,-3.7462,-3.5764,0.0,0.0,0.0,0.0,0.0,-4.1573,-4.1657,-4.2,-4.3454,-4.5946,-4.3291,-4.2572,-4.4267,-3.8397,-3.4373,-3.2835,-2.9335,-2.6788,-2.5687,-2.4289,0.0,0.0,0.0,0.0,0.0,0.0,0.0,0.0,0.0,0.0,0.0,0.0,0.0,0.0,0.0,0.0,0.0,0.0,0.0,0.0,-1.8663,0.0,0.0,0.0,0.0,0.0,0.0,0.0,0.0,0.0,-3.0674,-3.0837,-3.082,-3.1429,-3.3588,0.0,0.0,0.0,0.0,-3.975,-3.9819,-3.948,-3.9208,-3.9047,-3.845,-3.7987,-3.7659,0.0,0.0,-3.6752,-3.6922,-3.6932,-3.6784,-3.691,-3.5491,-3.0788,-2.9925,-2.9782,-2.9905,-3.0576,-3.165,-3.3843,-3.5432,-3.7021,0.0,0.0,0.0,0.0,0.0,0.0,0.0,0.0,0.0,-2.3344,-2.3461,-2.1873,0.0,0.0,0.0,0.0,0.0,0.0,0.0,0.0,-3.0293,-3.201,-3.2284,-3.3025,-3.3445,-3.3632,-3.4956,-3.4018,0.0,0.0,0.0,0.0,0.0,0.0,0.0,0.0,-3.979,-4.1169,-4.2155,-4.3181,-4.3969,-4.2534,-4.1775,-4.1833,-3.7856,-3.3811,-2.9799,-2.789,-2.621,0.0,0.0,0.0,0.0,0.0,0.0,0.0,0.0,0.0,0.0,0.0,0.0,0.0,0.0,0.0,0.0,0.0,0.0,0.0,0.0,0.0,0.0,0.0,-1.664,0.0,0.0,0.0,0.0,0.0,0.0,0.0,0.0,0.0,-2.8135,-2.9662,-3.0977,-3.1676,-3.3955,-3.5685,-3.5883,0.0,0.0,0.0,0.0,0.0,0.0,0.0,-3.7397,-3.7303,-3.6414,-3.5427,-3.4717,-3.3284,-3.2164,-3.1843,0.0,0.0,-2.614,-2.6179,-2.6882,-2.6729,-2.7572,-2.8824,-3.0238,-3.1654,-3.3171,0.0,0.0,0.0,0.0,0.0,0.0,0.0,0.0,0.0,-1.6041,-1.5949,0.0,0.0,0.0,0.0,0.0,0.0,0.0,0.0,0.0,0.0,0.0,-2.6494,-2.7439,0.0,0.0,0.0,0.0,0.0,0.0,0.0,0.0,0.0,0.0,0.0,0.0,-3.8627,-4.0444,-4.2003,-4.286,-4.302,-4.1365,-4.0353,-3.9951,-3.6591,-3.2811,-2.8739,0.0,0.0,0.0,-2.0944,0.0,0.0,0.0,0.0,0.0,0.0,0.0,0.0,0.0,0.0,0.0,0.0,0.0,0.0,0.0,0.0,0.0,0.0,0.0,0.0,0.0,-1.4817,0.0,0.0,0.0,0.0,0.0,0.0,0.0,0.0,0.0,0.0,-2.8236,-2.9241,-3.062,-3.2588,-3.3896,-3.4218,-3.5722,-3.68,0.0,0.0,0.0,0.0,0.0,0.0,0.0,0.0,0.0,0.0,0.0,0.0,0.0,-2.7357,-2.5873,-2.3102,-2.3436,-2.4127,-2.3982,0.0,0.0,0.0,0.0,0.0,0.0,0.0,0.0,0.0,0.0,0.0,0.0,0.0,0.0,0.0,-1.1182,0.0,0.0,-0.5057,0.0,0.0,0.0,0.0,0.0,0.0,0.0,0.0,0.0,0.0,0.0,0.0,0.0,0.0,0.0,0.0,0.0,0.0,0.0,0.0,0.0,0.0,-3.8192,-3.9457,-4.1381,-4.2646,-4.3089,-3.9782,-3.8339,-3.8814,-3.4359,-3.1138,-2.9698,0.0,0.0,0.0,0.0,0.0,0.0,0.0,0.0,0.0,0.0,0.0,0.0,0.0,0.0,0.0,0.0,0.0,0.0,0.0,0.0,0.0,0.0,0.0,0.0,0.0,0.0,-1.4408,-1.6002,-1.7066,0.0,0.0,0.0,0.0,0.0,0.0,0.0,0.0,0.0,-3.0452,-3.1294,-3.1919,-3.3164,-3.4326,-3.4857,-3.427,-3.3729,-3.3423,-3.3467,-3.2128,-3.094,0.0,0.0,0.0,0.0,0.0,0.0,0.0,0.0,0.0,0.0,0.0,0.0,0.0,0.0,0.0,0.0,0.0,0.0,0.0,0.0,0.0,0.0,0.0,0.0,0.0,0.0,0.0,0.0,-0.7255,-0.5754,0.0,0.0,0.0,0.0,0.0,0.0,0.0,0.0,0.0,0.0,0.0,0.0,0.0,0.0,0.0,0.0,0.0,0.0,0.0,0.0,0.0,0.0,0.0,0.0,-3.5952,-3.8225,-4.0512,-4.1263,-4.0237,-3.8863,-3.7579,-3.6268,-3.1934,-2.9215,-2.8564,0.0,0.0,0.0,0.0,0.0,0.0,0.0,0.0,0.0,0.0,0.0,0.0,0.0,0.0,0.0,0.0,0.0,0.0,0.0,0.0,0.0,0.0,0.0,0.0,0.0,0.0,0.0,-1.4455,-1.5411,-1.666,0.0,0.0,0.0,0.0,0.0,0.0,0.0,0.0,0.0,0.0,-3.0914,-3.1596,-3.2335,-3.2773,-3.2508,-3.1967,-3.1668,-3.1768,-3.0911,-3.0221,-3.0342,0.0,0.0,0.0,0.0,0.0,0.0,0.0,0.0,0.0,0.0,0.0,0.0,0.0,0.0,0.0,0.0,0.0,0.0,0.0,0.0,0.0,0.0,0.0,0.0,0.0,0.0,0.0,0.0,0.0,0.0,0.0,0.0,0.0,0.0,0.0,0.0,0.0,0.0,0.0,0.0,0.0,0.0,0.0,0.0,0.0,0.0,0.0,0.0,0.0,0.0,0.0,0.0,0.0,-3.4758,-3.6673,-3.9776,-4.0548,-3.8903,-3.8474,-3.7307,-3.5245,-3.1271,-2.8637,0.0,0.0,0.0,0.0,0.0,0.0,0.0,0.0,0.0,0.0,0.0,0.0,0.0,0.0,0.0,0.0,0.0,0.0,0.0,0.0,0.0,0.0,0.0,0.0,0.0,0.0,0.0,0.0,-1.3558,-1.4533,-1.5756,0.0,0.0,0.0,0.0,0.0,0.0,0.0,0.0,0.0,0.0,-2.9526,-2.9384,-3.0633,0.0,0.0,-3.0331,-3.0099,-2.9896,-2.9093,-2.8375,-2.7952,-2.6791,0.0,0.0,0.0,0.0,0.0,0.0,0.0,0.0,0.0,0.0,0.0,0.0,0.0,0.0,0.0,0.0,0.0,0.0,0.0,0.0,0.0,0.0,0.0,0.0,0.0,0.0,0.0,0.0,0.0,0.0,0.0,0.0,0.0,0.0,0.0,0.0,0.0,0.0,0.0,0.0,0.0,0.0,0.0,0.0,0.0,0.0,0.0,0.0,0.0,0.0,0.0,0.0,-3.4082,-3.4992,-3.8911,-4.0048,-3.8408,-3.8139,-3.6979,-3.4868,-3.165,-2.8834,0.0,0.0,0.0,0.0,0.0,0.0,0.0,0.0,0.0,0.0,0.0,0.0,0.0,0.0,0.0,0.0,0.0,0.0,0.0,0.0,0.0,0.0,0.0,0.0,0.0,0.0,0.0,0.0,0.0,0.0,0.0,0.0,0.0,0.0,0.0,0.0,0.0,0.0,0.0,0.0,0.0,-2.7986,-2.7225,-2.9191,-3.0276,0.0,-2.8602,-2.8425,-2.7851,-2.6671,-2.5434,-2.4303,0.0,0.0,0.0,0.0,0.0,0.0,0.0,0.0,0.0,0.0,0.0,0.0,0.0,0.0,0.0,0.0,0.0,0.0,0.0,0.0,0.0,0.0,0.0,0.0,0.0,0.0,0.0,0.0,0.0,0.0,0.0,0.0,0.0,0.0,0.0,0.0,0.0,0.0,0.0,0.0,0.0,0.0,0.0,0.0,0.0,0.0,0.0,0.0,0.0,0.0,0.0,0.0,0.0,0.0,-3.3925,-3.5701,-3.599,-3.4793,-3.5063,-3.3857,-3.1058,-2.9311,0.0,0.0,0.0,0.0,0.0,0.0,0.0,0.0,0.0,0.0,0.0,0.0,0.0,0.0,0.0,0.0,0.0,0.0,0.0,0.0,0.0,0.0,0.0,0.0,0.0,0.0,0.0,-0.9315,0.0,0.0,0.0,0.0,0.0,0.0,0.0,0.0,0.0,0.0,0.0,0.0,0.0,0.0,-2.7544,-2.7635,-2.7762,-2.7676,0.0,0.0,-2.5542,-2.5014,-2.4353,-2.3888,0.0,0.0,0.0,0.0,0.0,0.0,0.0,0.0,0.0,0.0,0.0,0.0,0.0,0.0,0.0,0.0,0.0,0.0,0.0,0.0,0.0,0.0,0.0,0.0,0.0,0.0,0.0,0.0,0.0,0.0,0.0,0.0,0.0,0.0,0.0,0.0,0.0,0.0,0.0,0.0,0.0,0.0,0.0,0.0,0.0,0.0,0.0,0.0,0.0,0.0,0.0,0.0,0.0,0.0,-2.9784,-3.255,-3.4355,-3.463,-3.3433,-3.4206,-3.2974,-2.9393,-2.8181,-2.6142,0.0,0.0,0.0,0.0,0.0,0.0,0.0,0.0,0.0,0.0,0.0,0.0,0.0,0.0,0.0,0.0,0.0,0.0,0.0,0.0,0.0,0.0,0.0,0.0,0.0,0.0,0.0,0.0,0.0,0.0,0.0,0.0,0.0,0.0,0.0,0.0,0.0,0.0,0.0,0.0,0.0,0.0,-2.6031,-2.6111,0.0,0.0,0.0,-2.3869,-2.3106,0.0,0.0,0.0,0.0,0.0,0.0,0.0,0.0,0.0,0.0,0.0,0.0,0.0,0.0,0.0,0.0,0.0,0.0,0.0,0.0,0.0,0.0,0.0,0.0,0.0,0.0,0.0,0.0,0.0,0.0,0.0,0.0,0.0,0.0,0.0,0.0,0.0,0.0,0.0,0.0,0.0,0.0,0.0,0.0,0.0,0.0,0.0,0.0,0.0,0.0,0.0,0.0,0.0,0.0,0.0,0.0,0.0,-3.102,-3.3658,-3.4392,-3.3257,-3.4199,-3.2796,-2.859,-2.7617,-2.5658,0.0,0.0,0.0,0.0,0.0,0.0,0.0,0.0,0.0,0.0,0.0,0.0,0.0,0.0,0.0,0.0,0.0,0.0,0.0,0.0,0.0,0.0,0.0,0.0,0.0,0.0,0.0,0.0,0.0,0.0,0.0,0.0,0.0,0.0,0.0,0.0,0.0,0.0,0.0,0.0,0.0,-2.4992,-2.3681,-2.4466,-2.4727,0.0,0.0,-2.2615,-2.1398,-2.0398,0.0,0.0,0.0,0.0,0.0,0.0,0.0,0.0,0.0,0.0,0.0,0.0,0.0,0.0,0.0,0.0,0.0,0.0,0.0,0.0,0.0,0.0,0.0,0.0,0.0,0.0,0.0,0.0,0.0,0.0,0.0,0.0,0.0,0.0,0.0,0.0,0.0,0.0,0.0,0.0,0.0,0.0,0.0,0.0,0.0,0.0,0.0,0.0,0.0,0.0,0.0,0.0,0.0,0.0,0.0,0.0,-2.9682,-3.1122,-3.2021,-3.2252,-3.1801,-2.9571,-2.5562,-2.5908,-2.4221,0.0,0.0,0.0,0.0,0.0,0.0,0.0,0.0,0.0,0.0,0.0,0.0,0.0,0.0,0.0,0.0,0.0,0.0,0.0,0.0,0.0,0.0,0.0,0.0,0.0,0.0,0.0,0.0,0.0,0.0,0.0,0.0,0.0,0.0,0.0,0.0,0.0,0.0,0.0,0.0,0.0,-2.4195,-2.3308,-2.348,0.0,0.0,0.0,0.0,-1.8514,-1.8279,0.0,0.0,0.0,0.0,0.0,0.0,0.0,0.0,0.0,0.0,0.0,0.0,0.0,0.0,0.0,0.0,0.0,0.0,0.0,0.0,0.0,0.0,0.0,0.0,0.0,0.0,0.0,0.0,0.0,0.0,0.0,0.0,0.0,0.0,0.0,0.0,0.0,0.0,0.0,0.0,0.0,0.0,0.0,0.0,0.0,0.0,0.0,0.0,0.0,0.0,0.0,0.0,0.0,0.0,0.0,0.0,-2.8011,-2.9229,-3.0081,-3.072,-2.9512,-2.7398,-2.4452,-2.3499,-2.1605,0.0,0.0,0.0,0.0,0.0,0.0,0.0,0.0,0.0,0.0,0.0,0.0,0.0,0.0,0.0,0.0,0.0,0.0,0.0,0.0,0.0,0.0,0.0,0.0,0.0,0.0,0.0,0.0,0.0,0.0,0.0,0.0,0.0,0.0,0.0,0.0,0.0,0.0,0.0,0.0,-2.2111,-2.2816,-2.2115,0.0,0.0,0.0,0.0,0.0,0.0,-1.7189,-1.6745,0.0,0.0,0.0,0.0,0.0,0.0,0.0,0.0,0.0,0.0,0.0,0.0,0.0,0.0,0.0,0.0,0.0,0.0,0.0,0.0,0.0,0.0,0.0,0.0,0.0,0.0,0.0,0.0,0.0,0.0,0.0,0.0,0.0,0.0,0.0,0.0,0.0,0.0,0.0,0.0,0.0,0.0,0.0,0.0,0.0,0.0,0.0,0.0,0.0,0.0,0.0,0.0,0.0,0.0,0.0,-2.6395,-2.7585,-2.8542,-2.9298,-2.7817,-2.5934,-2.3742,-2.1165,-1.8842,-1.6757,0.0,0.0,0.0,0.0,0.0,0.0,0.0,0.0,0.0,0.0,0.0,0.0,0.0,0.0,0.0,0.0,0.0,0.0,0.0,0.0,0.0,0.0,0.0,0.0,0.0,0.0,0.0,0.0,0.0,0.0,0.0,0.0,0.0,0.0,0.0,0.0,0.0,0.0,0.0,-2.0593,-2.1294,0.0,0.0,0.0,0.0,0.0,0.0,0.0,0.0,-1.5904,0.0,0.0,0.0,0.0,0.0,0.0,0.0,0.0,0.0,0.0,0.0,0.0,0.0,0.0,0.0,0.0,0.0,0.0,0.0,0.0,0.0,0.0,0.0,0.0,0.0,0.0,0.0,0.0,0.0,0.0,0.0,0.0,0.0,0.0,0.0,0.0,0.0,0.0,0.0,0.0,0.0,0.0,0.0,0.0,0.0,0.0,0.0,0.0,0.0,0.0,0.0,0.0,0.0,0.0,0.0,0.0,-2.5891,-2.7345,-2.9029,-2.7698,-2.5286,-2.2082,-1.998,-1.7239,-1.3856,0.0,0.0,0.0,0.0,0.0,0.0,0.0,0.0,0.0,0.0,0.0,0.0,0.0,0.0,0.0,0.0,0.0,0.0,0.0,0.0,0.0,0.0,0.0,0.0,0.0,0.0,0.0,0.0,0.0,0.0,0.0,0.0,0.0,0.0,0.0,0.0,0.0,0.0,-1.843,-1.9718,0.0,0.0,0.0,0.0,0.0,0.0,0.0,0.0,-1.6232,0.0,0.0,0.0,0.0,0.0,0.0,0.0,0.0,0.0,0.0,0.0,0.0,0.0,0.0,0.0,0.0,0.0,0.0,0.0,0.0,0.0,0.0,0.0,0.0,0.0,0.0,0.0,0.0,0.0,0.0,0.0,0.0,0.0,0.0,0.0,0.0,0.0,0.0,0.0,0.0,0.0,0.0,0.0,0.0,0.0,0.0,0.0,0.0,0.0,0.0,0.0,0.0,0.0,0.0,0.0,0.0,0.0,0.0,-2.509,-2.7409,-2.4789,-2.2674,-2.1326,-1.8119,-1.5062,0.0,0.0,0.0,0.0,0.0,0.0,0.0,0.0,0.0,0.0,0.0,0.0,0.0,0.0,0.0,0.0,0.0,0.0,0.0,0.0,0.0,0.0,0.0,0.0,0.0,0.0,0.0,0.0,0.0,0.0,0.0,0.0,0.0,0.0,0.0,0.0,0.0,0.0,0.0,0.0,0.0,0.0,0.0,0.0,0.0,0.0,0.0,0.0,0.0,0.0,0.0,0.0,0.0,0.0,0.0,0.0,0.0,0.0,0.0,0.0,0.0,0.0,0.0,0.0,0.0,0.0,0.0,0.0,0.0,0.0,0.0,0.0,0.0,0.0,0.0,0.0,0.0,0.0,0.0,0.0,0.0,0.0,0.0,0.0,0.0,0.0,0.0,0.0,0.0,0.0,0.0,0.0,0.0,0.0,0.0,0.0,0.0,0.0,0.0,0.0,0.0,0.0,0.0,0.0,0.0,0.0,0.0,0.0,-2.2954,-2.5085,-2.2315,-2.0653,-2.0395,-1.6215,-1.3022,0.0,0.0,0.0,0.0,0.0,0.0,0.0,0.0,0.0,0.0,0.0,0.0,0.0,0.0,0.0,0.0,0.0,0.0,0.0,0.0,0.0,0.0,0.0,0.0,0.0,0.0,0.0,0.0,0.0,0.0,0.0,0.0,0.0,0.0,0.0,0.0,0.0,0.0,0.0,0.0,0.0,0.0,0.0,0.0,0.0,0.0,0.0,0.0,-1.4238,0.0,0.0,0.0,0.0,0.0,0.0,0.0,0.0,0.0,0.0,0.0,0.0,0.0,0.0,0.0,0.0,0.0,0.0,0.0,0.0,0.0,0.0,0.0,0.0,0.0,0.0,0.0,0.0,0.0,0.0,0.0,0.0,0.0,0.0,0.0,0.0,0.0,0.0,0.0,0.0,0.0,0.0,0.0,0.0,0.0,0.0,0.0,0.0,0.0,0.0,0.0,0.0,0.0,0.0,0.0,0.0,0.0,0.0,0.0,-2.1683,-2.187,-2.2275,-2.0986,-1.7975,-1.4613,-1.1687,0.0,0.0,0.0,0.0,0.0,0.0,0.0,0.0,0.0,0.0,0.0,0.0,0.0,0.0,0.0,0.0,0.0,0.0,0.0,0.0,0.0,0.0,0.0,0.0,0.0,0.0,0.0,0.0,0.0,0.0,0.0,0.0,0.0,0.0,0.0,0.0,0.0,0.0,0.0,0.0,0.0,0.0,0.0,0.0,0.0,0.0,0.0,0.0,0.0,0.0,0.0,0.0,0.0,0.0,0.0,0.0,0.0,0.0,0.0,0.0,0.0,0.0,0.0,0.0,0.0,0.0,0.0,0.0,0.0,0.0,0.0,0.0,0.0,0.0,0.0,0.0,0.0,0.0,0.0,0.0,0.0,0.0,0.0,0.0,0.0,0.0,0.0,0.0,0.0,0.0,0.0,0.0,0.0,0.0,0.0,0.0,0.0,0.0,0.0,0.0,0.0,0.0,0.0,0.0,0.0,0.0,0.0,0.0,-1.9672,-2.1318,-2.0015,-1.8006,-1.53,-1.2642,-1.0403,0.0,0.0,0.0,0.0,0.0,0.0,0.0,0.0,0.0,0.0,0.0,0.0,0.0,0.0,0.0,0.0,0.0,0.0,0.0,0.0,0.0,0.0,0.0,0.0,0.0,0.0,0.0,0.0,0.0,0.0,0.0,0.0,0.0,0.0,0.0,0.0,0.0,0.0,0.0,0.0,0.0,0.0,0.0,0.0,0.0,0.0,0.0,0.0,0.0,0.0,0.0,0.0,0.0,0.0,0.0,0.0,0.0,0.0,0.0,0.0,0.0,0.0,0.0,0.0,0.0,0.0,0.0,0.0,0.0,0.0,0.0,0.0,0.0,0.0,0.0,0.0,0.0,0.0,0.0,0.0,0.0,0.0,0.0,0.0,0.0,0.0,0.0,0.0,0.0,0.0,0.0,0.0,0.0,0.0,0.0,0.0,0.0,0.0,0.0,0.0,0.0,0.0,0.0,0.0,0.0,0.0,0.0,0.0,0.0,-1.991,-1.6915,-1.4461,-1.3078,-1.0889,-0.8858,0.0,0.0,0.0,0.0,0.0,0.0,0.0,0.0,0.0,0.0,0.0,0.0,0.0,0.0,0.0,0.0,0.0,0.0,0.0,0.0,0.0,0.0,0.0,0.0,0.0,0.0,0.0,0.0,0.0,0.0,0.0,0.0,0.0,0.0,0.0,0.0,0.0,0.0,0.0,0.0,0.0,0.0,0.0,0.0,0.0,0.0,0.0,0.0,0.0,0.0,0.0,0.0,0.0,0.0,0.0,0.0,0.0,0.0,0.0,0.0,0.0,0.0,0.0,0.0,0.0,0.0,0.0,0.0,0.0,0.0,0.0,0.0,0.0,0.0,0.0,0.0,0.0,0.0,0.0,0.0,0.0,0.0,0.0,0.0,0.0,0.0,0.0,0.0,0.0,0.0,0.0,0.0,0.0,0.0,0.0,0.0,0.0,0.0,0.0,0.0,0.0,0.0,0.0,0.0,0.0,0.0,0.0,0.0,0.0,-1.6792,-1.3148,-1.1336,-1.153,-0.9307,-0.7025,0.0,0.0,0.0,0.0,0.0,0.0,0.0,0.0,0.0,0.0,0.0,0.0,0.0,0.0,0.0,0.0,0.0,0.0,0.0,0.0,0.0,0.0,0.0,0.0,0.0,0.0,0.0,0.0,0.0,0.0,0.0,0.0,0.0,0.0,0.0,0.0,0.0,0.0,0.0,0.0,0.0,0.0,0.0,0.0,0.0,0.0,0.0,0.0,0.0,0.0,0.0,0.0,0.0,0.0,0.0,0.0,0.0,0.0,0.0,0.0,0.0,0.0,0.0,0.0,0.0,0.0,0.0,0.0,0.0,0.0,0.0,0.0,0.0,0.0,0.0,0.0,0.0,0.0,0.0,0.0,0.0,0.0,0.0,0.0,0.0,0.0,0.0,0.0,0.0,0.0,0.0,0.0,0.0,0.0,0.0,0.0,0.0,0.0,0.0,0.0,0.0,0.0,0.0,0.0,0.0,0.0,0.0,0.0,0.0,-1.2856,-1.0869,-0.9558,-0.9026,-0.7239,-0.5699,-0.4527,0.0,0.0,0.0,0.0,0.0,0.0,0.0,0.0,0.0,0.0,0.0,0.0,0.0,0.0,0.0,0.0,0.0,0.0,0.0,0.0,0.0,0.0,0.0,0.0,0.0,0.0,0.0,0.0,0.0,0.0,0.0,0.0,0.0,0.0,0.0,0.0,0.0,0.0,0.0,0.0,0.0,0.0,0.0,0.0,0.0,0.0,0.0,0.0,0.0,0.0,0.0,0.0,0.0,0.0,0.0,0.0,0.0,0.0,0.0,0.0,0.0,0.0,0.0,0.0,0.0,0.0,0.0,0.0,0.0,0.0,0.0,0.0,0.0,0.0,0.0,0.0,0.0,0.0,0.0,0.0,0.0,0.0,0.0,0.0,0.0,0.0,0.0,0.0,0.0,0.0,0.0,0.0,0.0,0.0,0.0,0.0,0.0,0.0,0.0,0.0,0.0,0.0,0.0,0.0,0.0,0.0,0.0,0.0,-0.9971,-0.878,-0.7825,-0.7137,-0.5646,-0.4554,0.0,0.0,0.0,0.0,0.0,0.0,0.0,0.0,0.0,0.0,0.0,0.0,0.0,0.0,0.0,0.0,0.0,0.0,0.0,0.0,0.0,0.0,0.0,0.0,0.0,0.0,0.0,0.0,0.0,0.0,0.0,0.0,0.0,0.0,0.0,0.0,0.0,0.0,0.0,0.0,0.0,0.0,0.0,0.0,0.0,0.0,0.0,0.0,0.0,0.0,0.0,0.0,0.0,0.0,0.0,0.0,0.0,0.0,0.0,0.0,0.0,0.0,0.0,0.0,0.0,0.0,0.0,0.0,0.0,0.0,0.0,0.0,0.0,0.0,0.0,0.0,0.0,0.0,0.0,0.0,0.0,0.0,0.0,0.0,0.0,0.0,0.0,0.0,0.0,0.0,0.0,0.0,0.0,0.0,0.0,0.0,0.0,0.0,0.0,0.0,0.0,0.0,0.0,0.0,0.0,0.0,0.0,0.0,-0.8685,-0.8337,-0.6785,-0.607,-0.6201,-0.4781,-0.3619,0.0,0.0,0.0,0.0,0.0,0.0,0.0,0.0,0.0,0.0,0.0,0.0,0.0,0.0,0.0,0.0,0.0,0.0,0.0,0.0,0.0,0.0,0.0,0.0,0.0,0.0,0.0,0.0,0.0,0.0,0.0,0.0,0.0,0.0,0.0,0.0,0.0,0.0,0.0,0.0,0.0,0.0,0.0,0.0,0.0,0.0,0.0,0.0,0.0,0.0,0.0,0.0,0.0,0.0,0.0,0.0,0.0,0.0,0.0,0.0,0.0,0.0,0.0,0.0,0.0,0.0,0.0,0.0,0.0,0.0,0.0,0.0,0.0,0.0,0.0,0.0,0.0,0.0,0.0,0.0,0.0,0.0,0.0,0.0,0.0,0.0,0.0,0.0,0.0,0.0,0.0,0.0,0.0,0.0,0.0,0.0,0.0,0.0,0.0,0.0,0.0,0.0,0.0,0.0,0.0,0.0,0.0,0.0,0.0,-0.8188,-0.6723,-0.5846,-0.5535,-0.4641,-0.3951,0.0,0.0,0.0,0.0,0.0,0.0,0.0,0.0,0.0,0.0,0.0,0.0,0.0,0.0,0.0,0.0,0.0,0.0,0.0,0.0,0.0,0.0,0.0,0.0,0.0,0.0,0.0,0.0,0.0,0.0,0.0,0.0,0.0,0.0,0.0,0.0,0.0,0.0,0.0,0.0,0.0,0.0,0.0,0.0,0.0,0.0,0.0,0.0,0.0,0.0,0.0,0.0,0.0,0.0,0.0,0.0,0.0,0.0,0.0,0.0,0.0,0.0,0.0,0.0,0.0,0.0,0.0,0.0,0.0,0.0,0.0,0.0,0.0,0.0,0.0,0.0,0.0,0.0,0.0,0.0,0.0,0.0,0.0,0.0,0.0,0.0,0.0,0.0,0.0,0.0,0.0,0.0,0.0,0.0,0.0,0.0,0.0,0.0,0.0,0.0,0.0,0.0,0.0,0.0,0.0,0.0,0.0,0.0,0.0,-0.8207,-0.7079,-0.6157,-0.5466,-0.4842,-0.4479,0.0,0.0,0.0,0.0,0.0,0.0,0.0,0.0,0.0,0.0,0.0,0.0,0.0,0.0,0.0,0.0,0.0,0.0,0.0,0.0,0.0,0.0,0.0,0.0,0.0,0.0,0.0,0.0,0.0,0.0,0.0,0.0,0.0,0.0,0.0,0.0,0.0,0.0,0.0,0.0,0.0,0.0,0.0,0.0,0.0,0.0,0.0,0.0,0.0,0.0,0.0,0.0,0.0,0.0,0.0,0.0,0.0,0.0,0.0,0.0,0.0,0.0,0.0,0.0,0.0,0.0,0.0,0.0,0.0,0.0,0.0,0.0,0.0,0.0,0.0,0.0,0.0,0.0,0.0,0.0,0.0,0.0,0.0,0.0,0.0,0.0,0.0,0.0,0.0,0.0,0.0,0.0,0.0,0.0,0.0,0.0,0.0,0.0,0.0,0.0,0.0,0.0,0.0,0.0,0.0,0.0,0.0,0.0,0.0,-0.8371,-0.7745,-0.6929,-0.5941,-0.5397,-0.518,0.0,0.0,0.0,0.0,0.0,0.0,0.0,0.0,0.0,0.0,0.0,0.0,0.0,0.0,0.0,0.0,0.0,0.0,0.0,0.0,0.0,0.0,0.0,0.0,0.0,0.0,0.0,0.0,0.0,0.0,0.0,0.0,0.0,0.0,0.0,0.0,0.0,0.0,0.0,0.0,0.0,0.0,0.0,0.0,0.0,0.0,0.0,0.0,0.0,0.0,0.0,0.0,0.0,0.0,0.0,0.0,0.0,0.0,0.0,0.0,0.0,0.0,0.0,0.0,0.0,0.0,0.0,0.0,0.0,0.0,0.0,0.0,0.0,0.0,0.0,0.0,0.0,0.0,0.0,0.0,0.0,0.0,0.0,0.0,0.0,0.0,0.0,0.0,0.0,0.0,0.0,0.0,0.0,0.0,0.0,0.0,0.0,0.0,0.0,0.0,0.0,0.0,0.0,0.0,0.0,0.0,0.0,0.0,0.0,0.0,-0.8116,-0.75,-0.6812,-0.6221,-0.5946,-0.6066,0.0,0.0,0.0,0.0,0.0,0.0,0.0,0.0,0.0,0.0,0.0,0.0,0.0,0.0,0.0,0.0,0.0,0.0,0.0,0.0,0.0,0.0,0.0,0.0,0.0,0.0,0.0,0.0,0.0,0.0,0.0,0.0,0.0,0.0,0.0,0.0,0.0,0.0,0.0,0.0,0.0,0.0,0.0,0.0,0.0,0.0,0.0,0.0,0.0,0.0,0.0,0.0,0.0,0.0,0.0,0.0,0.0,0.0,0.0,0.0,0.0,0.0,0.0,0.0,0.0,0.0,0.0,0.0,0.0,0.0,0.0,0.0,0.0,0.0,0.0,0.0,0.0,0.0,0.0,0.0,0.0,0.0,0.0,0.0,0.0,0.0,0.0,0.0,0.0,0.0,0.0,0.0,0.0,0.0,0.0,0.0,0.0,0.0,0.0,0.0,0.0,0.0,0.0,0.0,0.0,0.0,0.0,0.0,0.0,0.0,-0.7999,-0.7529,-0.7058,-0.6815,0.0,0.0,0.0,0.0,0.0,0.0,0.0,0.0,0.0,0.0,0.0,0.0,0.0,0.0,0.0,0.0,0.0,0.0,0.0,0.0,0.0,0.0,0.0,0.0,0.0,0.0,0.0,0.0,0.0,0.0,0.0,0.0,0.0,0.0,0.0,0.0,0.0,0.0,0.0,0.0,0.0,0.0,0.0,0.0,0.0,0.0,0.0,0.0,0.0,0.0,0.0,0.0,0.0,0.0,0.0,0.0,0.0,0.0,0.0,0.0,0.0,0.0,0.0,0.0,0.0,0.0,0.0,0.0,0.0,0.0,0.0,0.0,0.0,0.0,0.0,0.0,0.0,0.0,0.0,0.0,0.0,0.0,0.0,0.0,0.0,0.0,0.0,0.0,0.0,0.0,0.0,0.0,0.0,0.0,0.0,0.0,0.0,0.0,0.0,0.0,0.0,0.0,0.0,0.0,0.0,0.0,0.0,0.0,0.0,0.0,0.0,-0.8428,-0.8053,-0.778,0.0,-0.7715,0.0,0.0,0.0,0.0,0.0,0.0,0.0,0.0,0.0,0.0,0.0,0.0,0.0,0.0,0.0,0.0,0.0,0.0,0.0,0.0,0.0,0.0,0.0,0.0,0.0,0.0,0.0,0.0,0.0,0.0,0.0,0.0,0.0,0.0,0.0,0.0,0.0,0.0,0.0,0.0,0.0,0.0,0.0,0.0,0.0,0.0,0.0,0.0,0.0,0.0,0.0,0.0,0.0,0.0,0.0,0.0,0.0,0.0,0.0,0.0,0.0,0.0,0.0,0.0,0.0,0.0,0.0,0.0,0.0,0.0,0.0,0.0,0.0,0.0,0.0,0.0,0.0,0.0,0.0,0.0,0.0,0.0,0.0,0.0,0.0,0.0,0.0,0.0,0.0,0.0,0.0,0.0,0.0,0.0,0.0,0.0,0.0,0.0,0.0,0.0,0.0,0.0,0.0,0.0,0.0,0.0,0.0,0.0,0.0,0.0,0.0,0.0,-0.8418,-0.8305,-0.8105,0.0,0.0,0.0,0.0,0.0,0.0,0.0,0.0,0.0,0.0,0.0,0.0,0.0,0.0,0.0,0.0,0.0,0.0,0.0,0.0,0.0,0.0,0.0,0.0,0.0,0.0,0.0,0.0,0.0,0.0,0.0,0.0,0.0,0.0,0.0,0.0,0.0,0.0,0.0,0.0,0.0,0.0,0.0,0.0,0.0,0.0,0.0,0.0,0.0,0.0,0.0,0.0,0.0,0.0,0.0,0.0,0.0,0.0,0.0,0.0,0.0,0.0,0.0,0.0,0.0,0.0,0.0,0.0,0.0,0.0,0.0,0.0,0.0,0.0,0.0,0.0,0.0,0.0,0.0,0.0,0.0,0.0,0.0,0.0,0.0,0.0,0.0,0.0,0.0,0.0,0.0,0.0,0.0,0.0,0.0,0.0,0.0,0.0,0.0,0.0,0.0,0.0,0.0,0.0,0.0,0.0,0.0,0.0,0.0,0.0,-0.9086,-0.9009,-0.8372,-0.7957,-0.766,0.0,0.0,0.0,0.0,0.0,0.0,0.0,0.0,0.0,0.0,0.0,0.0,0.0,0.0,0.0,0.0,0.0,0.0,0.0,0.0,0.0,0.0,0.0,0.0,0.0,0.0,0.0,0.0,0.0,0.0,0.0,0.0,0.0,0.0,0.0,0.0,0.0,0.0,0.0,0.0,0.0,0.0,0.0,0.0,0.0,0.0,0.0,0.0,0.0,0.0,0.0,0.0,0.0,0.0,0.0,0.0,0.0,0.0,0.0,0.0,0.0,0.0,0.0,0.0,0.0,0.0,0.0,0.0,0.0,0.0,0.0,0.0,0.0,0.0,0.0,0.0,0.0,0.0,0.0,0.0,0.0,0.0,0.0,0.0,0.0,0.0,0.0,0.0,0.0,0.0,0.0,0.0,0.0,0.0,0.0,0.0,0.0,0.0,0.0,0.0,0.0,0.0,0.0,0.0,0.0,0.0,0.0,0.0,0.0,0.0,-0.9412,0.0,0.0,0.0,-0.674,0.0,0.0,0.0,0.0,0.0,0.0,0.0,0.0,0.0,0.0,0.0,0.0,0.0,0.0,0.0,0.0,0.0,0.0,0.0,0.0,0.0,0.0,0.0,0.0,0.0,0.0,0.0,0.0,0.0,0.0,0.0,0.0,0.0,0.0,0.0,0.0,0.0,0.0,0.0,0.0,0.0,0.0,0.0,0.0,0.0,0.0,0.0,0.0,0.0,0.0,0.0,0.0,0.0,0.0,0.0,0.0,0.0,0.0,0.0,0.0,0.0,0.0,0.0,0.0,0.0,0.0,0.0,0.0,0.0,0.0,0.0,0.0,0.0,0.0,0.0,0.0,0.0,0.0,0.0,0.0,0.0,0.0,0.0,0.0,0.0,0.0,0.0,0.0,0.0,0.0,0.0,0.0,0.0,0.0,0.0,0.0,0.0,0.0,0.0,0.0,0.0,0.0,0.0,0.0,0.0,0.0,0.0,0.0,0.0,0.0,0.0,0.0,0.0,0.0,0.0,0.0,0.0,0.0,0.0,0.0,0.0,0.0,0.0,0.0,0.0,0.0,0.0,0.0,0.0,0.0,0.0,0.0,0.0,0.0,0.0,0.0,0.0,0.0,0.0,0.0,0.0,0.0,0.0,0.0,0.0,0.0,0.0,0.0,0.0,0.0,0.0,0.0,0.0,0.0,0.0,0.0,0.0,0.0,0.0,0.0,0.0,0.0,0.0,0.0,0.0,0.0,0.0,0.0,0.0,0.0,0.0,0.0,0.0,0.0,0.0,0.0,0.0,0.0,0.0,0.0,0.0,0.0,0.0,0.0,0.0,0.0,0.0,0.0,0.0,0.0,0.0,0.0,0.0,0.0,0.0,0.0,0.0,0.0,0.0,0.0,0.0,0.0,0.0,0.0,0.0,0.0,0.0,0.0,0.0,0.0,0.0,0.0,0.0,0.0,0.0,0.0,0.0,0.0,0.0,0.0,0.0,0.0,0.0,0.0,0.0,0.0,0.0,0.0,0.0,0.0,0.0,0.0,0.0,0.0,0.0,0.0,0.0,0.0,0.0,0.0,0.0,0.0,0.0,0.0,0.0,0.0,0.0,0.0,0.0,0.0,0.0,0.0,0.0,0.0,0.0,0.0,0.0,0.0,0.0,0.0,0.0,0.0,0.0,0.0,0.0,0.0,0.0,0.0,0.0,0.0,0.0,0.0,0.0,0.0,0.0,0.0,0.0,0.0,0.0,0.0,0.0,0.0,0.0,0.0,0.0,0.0,0.0,0.0,0.0,0.0,0.0,0.0,0.0,0.0,0.0,0.0,0.0,0.0,0.0,0.0,0.0,0.0,0.0,0.0,0.0,0.0,0.0,0.0,0.0,0.0,0.0,0.0,0.0,0.0,0.0,0.0,0.0,0.0,0.0,0.0,0.0,0.0,0.0,0.0,0.0,0.0,0.0,0.0,0.0,0.0,0.0,0.0,0.0,0.0,0.0,0.0,0.0,0.0,0.0,0.0,0.0,0.0,0.0,0.0,0.0,0.0,0.0,0.0,0.0,0.0,0.0,0.0,0.0,0.0,0.0,0.0,0.0,0.0,0.0,0.0,0.0,0.0,0.0,0.0,0.0,0.0,0.0,0.0,0.0,0.0,0.0,0.0,0.0,0.0,0.0,0.0,0.0,0.0,0.0,0.0,0.0,0.0,0.0,0.0,0.0,0.0,0.0,0.0,0.0,0.0,0.0,0.0,0.0,0.0,0.0,0.0,0.0,0.0,0.0,0.0,0.0,0.0,0.0,0.0,0.0,0.0,0.0,0.0,0.0,0.0,0.0,0.0,0.0,0.0,0.0,0.0,0.0,0.0,0.0,0.0,0.0,0.0,0.0,0.0,0.0,0.0,0.0,0.0,0.0,0.0,0.0,0.0,0.0,0.0,0.0,0.0,0.0,0.0,0.0,0.0,0.0,0.0,0.0,0.0,0.0,0.0,0.0,0.0,0.0,0.0,0.0,0.0,0.0,0.0,0.0,0.0,0.0,0.0,0.0,0.0,0.0,0.0,0.0,0.0,0.0,0.0,0.0,0.0,0.0,0.0,0.0,0.0,0.0,0.0,0.0,0.0,0.0,0.0,0.0,0.0,0.0,0.0,0.0,0.0,0.0,0.0,0.0,0.0,0.0,0.0,0.0,0.0,0.0,0.0,0.0,0.0,0.0,0.0,0.0,0.0,0.0,0.0,0.0,0.0,0.0,0.0,0.0,0.0,0.0,0.0,0.0,0.0,0.0,0.0,0.0,0.0,0.0,0.0,0.0,0.0,0.0,0.0,0.0,0.0,0.0,0.0,0.0,0.0,0.0,0.0,0.0,0.0,0.0,0.0,0.0,0.0,0.0,0.0,0.0,0.0,0.0,0.0,0.0,0.0,0.0,0.0,0.0,0.0,0.0,0.0,0.0,0.0,0.0,0.0,0.0,0.0,0.0,0.0,0.0,0.0,0.0,0.0,0.0,0.0,0.0,0.0,0.0,0.0,0.0,0.0,0.0,0.0,0.0,0.0,0.0,0.0,0.0,0.0,0.0,0.0,0.0,0.0,0.0,0.0,0.0,0.0,0.0,0.0,0.0,0.0,0.0,0.0,0.0,0.0,0.0,0.0,0.0,0.0,0.0,0.0,0.0,0.0,0.0,0.0,0.0,0.0,0.0,0.0,0.0,0.0,0.0,0.0,0.0,0.0,0.0,0.0,0.0,0.0,0.0,0.0,0.0,0.0,0.0,0.0,0.0,0.0,0.0,0.0,0.0,0.0,0.0,0.0,0.0,0.0,0.0,0.0,0.0,0.0,0.0,0.0,0.0,0.0,0.0,0.0,0.0,0.0,0.0,0.0,0.0,0.0,0.0,0.0,0.0,0.0,0.0,0.0,0.0,0.0,0.0,0.0,0.0,0.0,0.0,0.0,0.0,0.0,0.0,0.0,0.0,0.0,0.0,0.0,0.0,0.0,0.0,0.0,0.0,0.0,0.0,0.0,0.0,0.0,0.0,0.0,0.0,0.0,0.0,0.0,0.0,0.0,0.0,0.0,0.0,0.0,0.0,0.0,0.0,0.0,0.0,0.0,0.0,0.0,0.0,0.0,0.0,0.0,0.0,0.0,0.0,0.0,0.0,0.0,0.0,0.0,0.0,0.0,0.0,0.0,0.0,0.0,0.0,0.0,0.0,0.0,0.0,0.0,0.0,0.0,0.0,0.0,0.0,0.0,0.0,0.0,0.0,0.0,0.0,0.0,0.0,0.0,0.0,0.0,0.0,0.0,0.0,0.0,0.0,0.0,0.0,0.0,0.0,0.0,0.0,0.0,0.0,0.0,0.0,0.0,0.0,0.0,0.0,0.0,0.0,0.0,0.0,0.0,0.0,0.0,0.0,0.0,0.0,0.0,0.0,0.0,0.0,0.0,0.0,0.0,0.0,0.0,0.0,0.0,0.0,0.0,0.0,0.0,0.0,0.0,0.0,0.0,0.0,0.0,0.0,0.0,0.0,0.0,0.0,0.0,0.0,0.0,0.0,0.0,0.0,0.0,0.0,0.0,0.0,0.0,0.0,0.0,0.0,0.0,0.0,0.0,0.0,0.0,0.0,0.0,0.0,0.0,0.0,0.0,0.0,0.0,0.0,0.0,0.0,0.0,0.0,0.0,0.0,0.0,0.0,0.0,0.0,0.0,0.0,0.0,0.0,0.0,0.0,0.0,0.0,0.0,0.0,0.0,0.0,0.0,0.0,0.0,0.0,0.0,0.0,0.0,0.0,0.0,0.0,0.0,0.0,0.0,0.0,0.0,0.0,0.0,0.0,0.0,0.0,0.0,0.0,0.0,0.0,0.0,0.0,0.0,0.0,0.0,0.0,0.0,0.0,0.0,0.0,0.0,0.0,0.0,0.0,0.0,0.0,0.0,0.0,0.0,0.0,0.0,0.0,0.0,0.0,0.0,0.0,0.0,0.0,0.0,0.0,0.0,0.0,0.0,0.0,0.0,0.0,0.0,0.0,0.0,0.0,0.0,0.0,0.0,0.0,0.0,0.0,0.0,0.0,0.0,0.0,0.0,0.0,0.0,0.0,0.0,0.0,0.0,0.0,0.0,0.0,0.0,0.0,0.0,0.0,0.0,0.0,0.0,0.0,0.0,0.0,0.0,0.0,0.0,0.0,0.0,0.0,0.0,0.0,0.0,0.0,0.0,0.0,0.0,0.0,0.0,0.0,0.0,0.0,0.0,0.0,0.0,0.0,0.0,0.0,0.0,0.0,0.0,0.0,0.0,0.0,0.0,0.0,0.0,0.0,0.0,0.0,0.0,0.0,0.0,0.0,0.0,0.0,0.0,0.0,0.0,0.0,0.0]}]]]